[[{"header":{"parameterUnit":"m.s-1","parameterCategory":1,"la1":30.6,"la2":28.766,"lo1":-90.7593,"lo2":-88.6598,"dy":0.0162,"dx":0.0183,"nx":116,"ny":114,"refTime":"2024-04-13T06:00:00:Z","depth":0,"parameterNumber":2,"parameterNumberName":"U-component_of_WINDS"},"data":[0.0,0.0,0.0,0.0,0.0,0.0,0.0,0.0,0.0,0.0,0.0,0.0,0.0,0.0,0.0,0.0,0.0,0.0,0.0,0.0,0.0,0.0,0.0,0.0,0.0,0.0,0.0,0.0,0.0,0.0,0.0,0.0,0.0,0.0,0.0,0.0,0.0,0.0,0.0,0.0,0.0,0.0,0.0,0.0,0.0,0.0,0.0,0.0,0.0,0.0,0.0,0.0,0.0,0.0,0.0,0.0,0.0,0.0,0.0,0.0,0.0,0.0,0.0,0.0,0.0,0.0,0.0,0.0,0.0,0.0,0.0,0.0,0.0,0.0,0.0,0.0,0.0,0.0,0.0,0.0,0.0,0.0,0.0,0.0,0.0,0.0,0.0,0.0,0.0,0.0,0.0,0.0,0.0,0.0,0.0,0.0,0.0,0.0,0.0,0.0,0.0,0.0,0.0,0.0,0.0,0.0,0.0,0.0,0.0,0.0,0.0,0.0,0.0,0.0,0.0,0.0,0.0,0.0,0.0,0.0,0.0,0.0,0.0,0.0,0.0,0.0,0.0,0.0,0.0,0.0,0.0,0.0,0.0,0.0,0.0,0.0,0.0,0.0,0.0,0.0,0.0,0.0,0.0,0.0,0.0,0.0,0.0,0.0,0.0,0.0,0.0,0.0,0.0,0.0,0.0,0.0,0.0,0.0,0.0,0.0,0.0,0.0,0.0,0.0,0.0,0.0,0.0,0.0,0.0,0.0,0.0,0.0,0.0,0.0,0.0,0.0,0.0,0.0,0.0,0.0,0.0,0.0,0.0,0.0,0.0,0.0,0.0,0.0,0.0,0.0,0.0,0.0,0.0,0.0,0.0,0.0,0.0,0.0,0.0,0.0,0.0,0.0,0.0,0.0,0.0,0.0,0.0,0.0,0.0,0.0,0.0,0.0,0.0,0.0,0.0,0.0,0.0,0.0,0.0,0.0,0.0,0.0,0.0,0.0,0.0,0.0,0.0,0.0,0.0,0.0,0.0,0.0,0.0,0.0,0.0,0.0,0.0,0.0,0.0,0.0,0.0,0.0,0.0,0.0,0.0,0.0,0.0,0.0,0.0,0.0,0.0,0.0,0.0,0.0,0.0,0.0,0.0,0.0,0.0,0.0,0.0,0.0,0.0,0.0,0.0,0.0,0.0,0.0,0.0,0.0,0.0,0.0,0.0,0.0,0.0,0.0,0.0,0.0,0.0,0.0,0.0,0.0,0.0,0.0,0.0,0.0,0.0,0.0,0.0,0.0,0.0,0.0,0.0,0.0,0.0,0.0,0.0,0.0,0.0,0.0,0.0,0.0,0.0,0.0,0.0,0.0,0.0,0.0,0.0,0.0,0.0,0.0,0.0,0.0,0.0,0.0,0.0,0.0,0.0,0.0,0.0,0.0,0.0,0.0,0.0,0.0,0.0,0.0,0.0,0.0,0.0,0.0,0.0,0.0,0.0,0.0,0.0,0.0,0.0,0.0,0.0,0.0,0.0,0.0,0.0,0.0,0.0,0.0,0.0,0.0,0.0,0.0,0.0,0.0,0.0,0.0,0.0,0.0,0.0,0.0,0.0,0.0,0.0,0.0,0.0,0.0,0.0,0.0,0.0,0.0,0.0,0.0,0.0,0.0,0.0,0.0,0.0,0.0,0.0,0.0,0.0,0.0,0.0,0.0,0.0,0.0,0.0,0.0,0.0,0.0,0.0,0.0,0.0,0.0,0.0,0.0,0.0,0.0,0.0,0.0,0.0,0.0,0.0,0.0,0.0,0.0,0.0,0.0,0.0,0.0,0.0,0.0,0.0,0.0,0.0,0.0,0.0,0.0,0.0,0.0,0.0,0.0,0.0,0.0,0.0,0.0,0.0,0.0,0.0,0.0,0.0,0.0,0.0,0.0,0.0,0.0,0.0,0.0,0.0,0.0,0.0,0.0,0.0,0.0,0.0,0.0,0.0,0.0,0.0,0.0,0.0,0.0,0.0,0.0,0.0,0.0,0.0,0.0,0.0,0.0,0.0,0.0,0.0,0.0,0.0,0.0,0.0,0.0,0.0,0.0,0.0,0.0,0.0,0.0,0.0,0.0,0.0,0.0,0.0,0.0,0.0,0.0,0.0,0.0,0.0,0.0,0.0,0.0,0.0,0.0,0.0,0.0,0.0,0.0,0.0,0.0,0.0,0.0,0.0,0.0,0.0,0.0,0.0,0.0,0.0,0.0,0.0,0.0,0.0,0.0,0.0,0.0,0.0,0.0,0.0,0.0,0.0,0.0,0.0,0.0,0.0,0.0,0.0,0.0,0.0,0.0,0.0,0.0,0.0,0.0,0.0,0.0,0.0,0.0,0.0,0.0,0.0,0.0,0.0,0.0,0.0,0.0,0.0,0.0,0.0,0.0,0.0,0.0,0.0,0.0,0.0,0.0,0.0,0.0,0.0,0.0,0.0,0.0,0.0,0.0,0.0,0.0,0.0,0.0,0.0,0.0,0.0,0.0,0.0,0.0,0.0,0.0,0.0,0.0,0.0,0.0,0.0,0.0,0.0,0.0,0.0,0.0,0.0,0.0,0.0,0.0,0.0,0.0,0.0,0.0,0.0,0.0,0.0,0.0,0.0,0.0,0.0,0.0,0.0,0.0,0.0,0.0,0.0,0.0,0.0,0.0,0.0,0.0,0.0,0.0,0.0,0.0,0.0,0.0,0.0,0.0,0.0,0.0,0.0,0.0,0.0,0.0,0.0,0.0,0.0,0.0,0.0,0.0,0.0,0.0,0.0,0.0,0.0,0.0,0.0,0.0,0.0,0.0,0.0,0.0,0.0,0.0,0.0,0.0,0.0,0.0,0.0,0.0,0.0,0.0,0.0,0.0,0.0,0.0,0.0,0.0,0.0,0.0,0.0,0.0,0.0,0.0,0.0,0.0,0.0,0.0,0.0,0.0,0.0,0.0,0.0,0.0,0.0,0.0,0.0,0.0,0.0,0.0,0.0,0.0,0.0,0.0,0.0,0.0,0.0,0.0,0.0,0.0,0.0,0.0,0.0,0.0,0.0,0.0,0.0,0.0,0.0,0.0,0.0,0.0,0.0,0.0,0.0,0.0,0.0,0.0,0.0,0.0,0.0,0.0,0.0,0.0,0.0,0.0,0.0,0.0,0.0,0.0,0.0,0.0,0.0,0.0,0.0,0.0,0.0,0.0,0.0,0.0,0.0,0.0,0.0,0.0,0.0,0.0,0.0,0.0,0.0,0.0,0.0,0.0,0.0,0.0,0.0,0.0,0.0,0.0,0.0,0.0,0.0,0.0,0.0,0.0,0.0,0.0,0.0,0.0,0.0,0.0,0.0,0.0,0.0,0.0,0.0,0.0,0.0,0.0,0.0,0.0,0.0,0.0,0.0,0.0,0.0,0.0,0.0,0.0,0.0,0.0,0.0,0.0,0.0,0.0,0.0,0.0,0.0,0.0,0.0,0.0,0.0,0.0,0.0,0.0,0.0,0.0,0.0,0.0,0.0,0.0,0.0,0.0,0.0,0.0,0.0,0.0,0.0,0.0,0.0,0.0,0.0,0.0,0.0,0.0,0.0,0.0,0.0,0.0,0.0,0.0,0.0,0.0,0.0,0.0,0.0,0.0,0.0,0.0,0.0,0.0,0.0,0.0,0.0,0.0,0.0,0.0,0.0,0.0,0.0,0.0,0.0,0.0,0.0,0.0,0.0,0.0,0.0,0.0,0.0,0.0,0.0,0.0,0.0,0.0,0.0,0.0,0.0,0.0,0.0,0.0,0.0,0.0,0.0,0.0,0.0,0.0,0.0,0.0,0.0,0.0,0.0,0.0,0.0,0.0,0.0,0.0,0.0,0.0,0.0,0.0,0.0,0.0,0.0,0.0,0.0,0.0,0.0,0.0,0.0,0.0,0.0,0.0,0.0,0.0,0.0,0.0,0.0,0.0,0.0,0.0,0.0,0.0,0.0,0.0,0.0,0.0,0.0,0.0,0.0,0.0,0.0,0.0,0.0,0.0,0.0,0.0,0.0,0.0,0.0,0.0,0.0,0.0,0.0,0.0,0.0,0.0,0.0,0.0,0.0,0.0,0.0,0.0,0.0,0.0,0.0,0.0,0.0,0.0,0.0,0.0,0.0,0.0,0.0,0.0,0.0,0.0,0.0,0.0,0.0,0.0,0.0,0.0,0.0,0.0,0.0,0.0,0.0,0.0,0.0,0.0,0.0,0.0,0.0,0.0,0.0,0.0,0.0,0.0,0.0,0.0,0.0,0.0,0.0,0.0,0.0,0.0,0.0,0.0,0.0,0.0,0.0,0.0,0.0,0.0,0.0,0.0,0.0,0.0,0.0,0.0,0.0,0.0,0.0,0.0,0.0,0.0,0.0,0.0,0.0,0.0,0.0,0.0,0.0,0.0,0.0,0.0,0.0,0.0,0.0,0.0,0.0,0.0,0.0,0.0,0.0,0.0,0.0,0.0,0.0,0.0,0.0,0.0,0.0,0.0,0.0,0.0,0.0,0.0,0.0,0.0,0.0,0.0,0.0,0.0,0.0,0.0,0.0,0.0,0.0,0.0,0.0,0.0,0.0,0.0,0.0,0.0,0.0,0.0,0.0,0.0,0.0,0.0,0.0,0.0,0.0,0.0,0.0,0.0,0.0,0.0,0.0,0.0,0.0,0.0,0.0,0.0,0.0,0.0,0.0,0.0,0.0,0.0,0.0,0.0,0.0,0.0,0.0,0.0,0.0,0.0,0.0,0.0,0.0,0.0,0.0,0.0,0.0,0.0,0.0,0.0,0.0,0.0,0.0,0.0,0.0,0.0,0.0,0.0,0.0,0.0,0.0,0.0,0.0,0.0,0.0,0.0,0.0,0.0,0.0,0.0,0.0,0.0,0.0,0.0,0.0,0.0,0.0,0.0,0.0,0.0,0.0,0.0,0.0,0.0,0.0,0.0,0.0,0.0,0.0,0.0,0.0,0.0,0.0,0.0,0.0,0.0,0.0,0.0,0.0,0.0,0.0,0.0,0.0,0.0,0.0,0.0,0.0,0.0,0.0,0.0,0.0,0.0,0.0,0.0,0.0,0.0,0.0,0.0,0.0,0.0,0.0,0.0,0.0,0.0,0.0,0.0,0.0,0.0,0.0,0.0,0.0,0.0,0.0,0.0,0.0,0.0,0.0,0.0,0.0,0.0,0.0,0.0,0.0,0.0,0.0,0.0,0.0,0.0,0.0,0.0,0.0,0.0,0.0,0.0,0.0,0.0,0.0,0.0,0.0,0.0,0.0,0.0,0.0,0.0,0.0,0.0,0.0,0.0,0.0,0.0,0.0,0.0,0.0,0.0,0.0,0.0,0.0,0.0,0.0,0.0,0.0,0.0,0.0,0.0,0.0,0.0,0.0,0.0,0.0,0.0,0.0,0.0,0.0,0.0,0.0,0.0,0.0,0.0,0.0,0.0,0.0,0.0,0.0,0.0,0.0,0.0,0.0,0.0,0.0,0.0,0.0,0.0,0.0,0.0,0.0,0.0,0.0,0.0,0.0,0.0,0.0,0.0,0.0,0.0,0.0,0.0,0.0,0.0,0.0,0.0,0.0,0.0,0.0,0.0,0.0,0.0,0.0,0.0,0.0,0.0,0.0,0.0,0.0,0.0,0.0,0.0,0.0,0.0,0.0,0.0,0.0,0.0,0.0,0.0,0.0,0.0,0.0,0.0,0.0,0.0,0.0,0.0,0.0,0.0,0.0,0.0,0.0,0.0,0.0,0.0,0.0,0.0,0.0,0.0,0.0,0.0,0.0,0.0,0.0,0.0,0.0,0.0,0.0,0.0,0.0,0.0,0.0,0.0,0.0,0.0,0.0,0.0,0.0,0.0,0.0,0.0,0.0,0.0,0.0,0.0,0.0,0.0,0.0,0.0,0.0,0.0,0.0,0.0,0.0,0.0,0.0,0.0,0.0,0.0,0.0,0.0,0.0,0.0,0.0,0.0,0.0,0.0,0.0,0.0,0.0,0.0,0.0,0.0,0.0,0.0,0.0,0.0,0.0,0.0,0.0,0.0,0.0,0.0,0.0,0.0,0.0,0.0,-4.2836,0.0,0.0,0.0,0.0,0.0,0.0,0.0,0.0,0.0,0.0,0.0,0.0,0.0,0.0,0.0,0.0,0.0,0.0,0.0,0.0,0.0,0.0,0.0,0.0,-4.9018,-4.9018,-4.9018,-4.9018,-4.9018,-4.9018,-4.9018,0.0,0.0,0.0,0.0,-4.8443,-4.8443,-4.8612,-4.8951,-4.8951,-4.9323,-5.0033,-4.9289,-4.8748,-4.8409,0.0,0.0,0.0,0.0,0.0,0.0,0.0,0.0,0.0,0.0,0.0,0.0,0.0,0.0,0.0,0.0,0.0,0.0,0.0,0.0,0.0,0.0,0.0,0.0,0.0,0.0,0.0,0.0,0.0,0.0,0.0,0.0,0.0,0.0,0.0,0.0,0.0,0.0,0.0,0.0,0.0,0.0,0.0,0.0,0.0,0.0,0.0,0.0,0.0,0.0,0.0,0.0,0.0,0.0,0.0,0.0,0.0,0.0,0.0,0.0,0.0,0.0,0.0,0.0,0.0,0.0,0.0,0.0,0.0,0.0,0.0,-4.3048,0.0,0.0,0.0,0.0,0.0,0.0,0.0,0.0,0.0,0.0,0.0,0.0,0.0,0.0,0.0,0.0,0.0,0.0,0.0,0.0,0.0,-4.9018,-4.9018,-4.912,-4.9187,-4.9187,-4.9323,-4.939,-4.939,-4.939,-4.9323,-4.9187,-4.9187,-4.9187,-4.9187,-4.9187,-4.956,-5.027,-5.0811,-5.1522,-5.2401,-5.2638,-5.2097,-5.0879,-4.9729,0.0,0.0,0.0,0.0,0.0,0.0,0.0,0.0,0.0,0.0,0.0,0.0,0.0,0.0,0.0,0.0,0.0,0.0,0.0,0.0,0.0,0.0,0.0,0.0,0.0,0.0,0.0,0.0,0.0,0.0,0.0,0.0,0.0,0.0,0.0,0.0,0.0,0.0,0.0,0.0,0.0,0.0,0.0,0.0,0.0,0.0,0.0,0.0,0.0,0.0,0.0,0.0,0.0,0.0,0.0,0.0,0.0,0.0,0.0,0.0,0.0,0.0,0.0,-5.0212,-5.0326,-5.0597,-5.0459,-5.0321,-4.9942,-4.5216,-4.3414,-4.3793,-4.3793,0.0,0.0,0.0,0.0,0.0,0.0,0.0,0.0,0.0,0.0,0.0,0.0,0.0,0.0,0.0,0.0,0.0,0.0,0.0,-4.9018,-4.9018,-4.956,-4.9932,-4.9965,-5.0541,-5.0881,-5.0881,-5.0881,-5.0642,-4.9965,-4.9932,-4.9965,-4.9932,-4.9932,-5.0304,-5.1082,-5.3687,-5.5683,-5.7036,-5.8321,-5.8829,-5.8389,-5.2536,-5.1048,-5.2739,0.0,0.0,0.0,0.0,0.0,0.0,0.0,0.0,0.0,0.0,0.0,0.0,0.0,0.0,0.0,0.0,0.0,0.0,0.0,0.0,0.0,0.0,0.0,0.0,0.0,0.0,0.0,0.0,0.0,0.0,0.0,0.0,0.0,0.0,0.0,0.0,0.0,0.0,0.0,0.0,0.0,-4.6458,-4.6458,0.0,0.0,0.0,0.0,0.0,0.0,0.0,0.0,0.0,0.0,0.0,0.0,0.0,-5.0328,-5.177,-5.306,-5.3414,-5.2926,-5.4836,-5.477,-5.2942,-5.2252,-5.1563,-5.0838,-4.8775,0.0,-4.6148,-4.6148,0.0,0.0,0.0,0.0,0.0,0.0,0.0,0.0,0.0,0.0,0.0,0.0,0.0,0.0,0.0,0.0,0.0,0.0,0.0,0.0,0.0,-5.0642,-5.1319,-5.1319,-5.3957,-5.4532,-5.1995,-5.3416,-5.3281,-5.0811,-5.071,-5.071,-5.071,-5.071,-5.2131,-5.4972,-5.8423,-6.0858,-6.2279,-6.2922,-6.3024,-6.2448,-5.8693,-5.5919,-5.3957,-5.1792,0.0,0.0,0.0,0.0,0.0,0.0,0.0,0.0,0.0,0.0,0.0,0.0,0.0,0.0,0.0,0.0,0.0,0.0,0.0,0.0,0.0,0.0,0.0,0.0,0.0,0.0,0.0,0.0,0.0,0.0,0.0,0.0,0.0,0.0,0.0,0.0,0.0,0.0,0.0,-4.6707,-4.7217,-4.7217,-4.7844,-4.8017,0.0,0.0,0.0,0.0,0.0,0.0,0.0,0.0,0.0,-5.2494,-5.3391,-5.4322,-5.5391,-5.6529,-5.7116,-5.7219,-5.8219,-5.8185,-5.7185,-5.6391,-5.5632,-5.4805,-5.2873,-5.1149,-4.9602,-4.7941,-4.6389,-4.5079,0.0,0.0,0.0,0.0,-4.4423,-4.4389,0.0,0.0,0.0,0.0,0.0,0.0,0.0,0.0,0.0,0.0,0.0,0.0,-5.0811,-5.2435,-5.3754,-5.4532,-5.7306,-5.7746,-5.4803,-5.5446,-5.4803,-5.2198,-5.1691,-5.1488,-5.1488,-5.2435,-5.504,-5.9336,-6.3091,-6.5797,-6.7421,-6.7963,-6.7963,-6.7354,-6.5696,-6.1941,-5.6697,-5.4025,-5.2164,-5.0845,0.0,0.0,0.0,0.0,0.0,0.0,0.0,0.0,0.0,0.0,0.0,0.0,0.0,0.0,0.0,0.0,0.0,0.0,0.0,0.0,0.0,0.0,0.0,0.0,0.0,0.0,0.0,0.0,0.0,0.0,0.0,0.0,0.0,0.0,0.0,0.0,0.0,-4.7907,-4.8603,-4.8051,-4.9499,-4.9947,0.0,0.0,0.0,0.0,0.0,0.0,-5.1977,-5.346,-5.5046,-5.6771,-5.7943,-5.8978,-5.9944,-6.0737,-6.1289,-6.1668,-6.1841,-6.1634,-6.1047,-6.0254,-5.9392,-5.8392,-5.6288,-5.4494,-5.2843,-4.9809,-4.801,-4.7086,-4.65,-4.6259,-4.6259,-4.6052,-4.5983,-4.5914,0.0,0.0,0.0,0.0,0.0,0.0,0.0,0.0,0.0,0.0,0.0,-5.0101,-5.301,-5.5277,-5.7746,-6.0588,-5.9708,-5.9539,-6.0757,-5.6359,-5.389,-5.4397,-5.301,-5.2232,-5.2232,-5.575,-5.9404,-6.3226,-6.6981,-6.9925,-7.2124,-7.4221,-7.5168,-7.5033,-7.2868,-6.8605,-6.2685,-5.6934,-5.5243,-5.5987,-5.098,0.0,0.0,0.0,0.0,0.0,0.0,0.0,0.0,0.0,0.0,0.0,0.0,0.0,0.0,0.0,0.0,0.0,0.0,0.0,0.0,0.0,0.0,0.0,0.0,0.0,0.0,0.0,0.0,0.0,0.0,0.0,0.0,0.0,0.0,0.0,0.0,0.0,0.0,-4.8982,-5.2601,0.0,0.0,0.0,0.0,-5.1912,-5.336,-5.5184,-5.7391,-5.8944,-6.084,-6.3048,-6.322,-6.3979,-6.5462,-6.6221,-6.6255,-6.56,-6.6324,-6.5497,-6.3393,-6.2634,-6.1496,-5.9978,-5.8426,-5.6874,-5.5219,-5.2183,-5.0016,-4.8672,-4.8637,-4.8637,-4.8534,-4.7844,-4.7569,-4.7569,0.0,0.0,0.0,0.0,0.0,-4.9018,-4.9018,-4.9018,-4.9018,-4.9018,-5.0236,-5.2266,-5.5277,-5.9336,-6.2618,-6.4681,-6.6542,-6.644,-6.3599,-6.0791,-5.849,-5.6799,-5.4837,-5.4668,-5.6596,-6.0283,-6.4275,-6.8538,-7.2766,-7.5946,-7.8111,-7.845,-7.8348,-7.7807,-7.6082,-7.3308,-6.9485,-6.255,-5.8254,-5.5818,-5.2469,-5.0574,0.0,0.0,0.0,0.0,0.0,0.0,0.0,0.0,0.0,0.0,0.0,0.0,0.0,0.0,0.0,0.0,0.0,0.0,0.0,0.0,0.0,0.0,0.0,0.0,0.0,0.0,0.0,0.0,0.0,0.0,0.0,0.0,0.0,0.0,0.0,0.0,0.0,-5.4632,-5.7391,0.0,-5.6736,-5.6805,-5.7081,-5.7322,-5.8771,-6.022,-6.1496,-6.3013,-6.4669,-6.6428,-6.698,-6.7738,-6.8773,-6.9049,-6.8808,-6.8083,-6.8325,-6.729,-6.5048,-6.4255,-6.3082,-6.1565,-5.9495,-5.8323,-5.7598,-5.5046,-5.2532,-5.0223,-4.9769,-4.9597,-4.9493,-4.8672,-4.8396,-4.8327,0.0,0.0,0.0,0.0,0.0,-4.8551,-4.8615,-4.8646,-4.8646,-4.8646,-5.1217,-5.4499,-5.8287,-6.3362,-6.7489,-6.9992,-7.1312,-7.0466,-6.6711,-6.2956,-5.9979,-5.7983,-5.6494,-5.7103,-6.008,-6.4309,-6.8571,-7.28,-7.6792,-7.96,-8.1291,-8.1054,-8.0682,-8.0175,-7.8686,-7.6893,-7.4627,-6.8673,-6.326,-5.8423,-5.4871,-5.3145,-5.2435,0.0,0.0,0.0,0.0,0.0,0.0,0.0,0.0,0.0,0.0,0.0,0.0,0.0,0.0,0.0,0.0,0.0,0.0,0.0,0.0,0.0,0.0,0.0,0.0,0.0,0.0,0.0,0.0,0.0,0.0,0.0,0.0,0.0,0.0,-5.5219,-5.8323,-5.9323,-6.2151,-6.3393,-6.1875,-6.1703,-6.191,-6.2461,-6.3427,-6.4565,-6.5807,-6.7083,-6.8359,-6.9601,-7.0153,-7.067,-7.1153,-7.1153,-7.0636,-6.9635,-6.9635,-6.8325,-6.5876,-6.5324,-6.4289,-6.2737,-6.0668,-5.9633,-5.9254,-5.6943,-5.4667,-5.2528,-5.1528,-5.0976,-5.0666,-4.9844,-4.9396,-4.912,0.0,0.0,0.0,0.0,0.0,-4.7656,-4.7838,-4.7872,-4.7906,-4.7906,-5.1894,-5.6697,-6.1907,-6.7184,-7.2124,-7.6589,-7.3544,-7.1041,-7.0195,-6.2482,-5.7915,-5.7915,-5.7983,-5.9471,-6.2584,-6.7726,-7.2157,-7.5879,-7.8855,-8.0682,-8.1393,-8.2103,-8.2441,-8.2374,-8.0919,-7.9431,-7.7874,-7.4897,-7.0263,-6.4377,-5.8389,-5.6731,-5.734,0.0,0.0,0.0,0.0,0.0,0.0,0.0,0.0,0.0,0.0,0.0,0.0,0.0,0.0,0.0,0.0,0.0,0.0,0.0,0.0,0.0,0.0,0.0,0.0,0.0,0.0,0.0,0.0,0.0,0.0,0.0,0.0,0.0,-5.4632,-5.9288,-6.2668,-6.2737,-6.6704,-6.8256,-6.5255,-6.4979,-6.56,-6.7083,-6.7221,-6.8187,-7.036,-7.1187,-7.1912,-7.2713,-7.2713,-7.2713,-7.2713,-7.2713,-7.1877,-7.0394,-7.036,-6.8773,-6.5876,-6.5876,-6.5048,-6.3496,-6.1979,-6.0875,-6.0047,-5.7736,-5.6357,-5.5495,-5.4011,-5.2942,-5.2153,-5.139,-5.0631,-5.0011,0.0,0.0,0.0,-4.7998,-4.7729,-4.7487,-4.7162,-4.7564,-4.8075,-4.8646,-5.3551,-5.8964,-6.4208,-6.9925,-7.4762,-7.8213,-7.5067,-7.1887,-6.9553,-6.2685,-5.8693,-5.8693,-6.0283,-6.3565,-6.8741,-7.236,-7.6014,-7.9735,-8.1663,-8.2983,-8.3693,-8.3355,-8.3186,-8.3152,-8.2205,-8.0987,-7.9464,-7.757,-7.4864,-7.1244,-6.4208,-5.9979,-5.7543,0.0,0.0,0.0,0.0,0.0,0.0,0.0,0.0,0.0,0.0,0.0,0.0,0.0,0.0,0.0,0.0,0.0,0.0,0.0,0.0,0.0,0.0,0.0,0.0,0.0,0.0,0.0,0.0,0.0,0.0,0.0,-5.5805,-5.7771,-5.7771,-6.2841,-6.698,-6.8083,-7.0774,-7.2222,-7.136,-7.1291,-7.1463,-7.1877,-7.2429,-7.2774,-7.2843,-7.305,-7.3015,-7.2705,-7.2713,-7.2713,-7.2713,-7.2119,-7.1325,-7.0394,-6.9842,-6.829,-6.5876,-6.5876,-6.5048,-6.3496,-6.1979,-6.1185,-6.0771,-5.7978,-5.6667,-5.6288,-5.4218,-5.3253,-5.2908,-5.1597,-5.0631,-5.0011,0.0,0.0,0.0,-4.7167,-4.7066,-4.6891,-4.6418,-4.6955,-4.7699,-4.8443,-5.4532,-6.0554,-6.5189,-7.1041,-7.5439,-7.7502,-7.4559,-7.0906,-6.7015,-6.1907,-5.9302,-5.9945,-6.3632,-6.7861,-7.2597,-7.6217,-7.9397,-8.2205,-8.3389,-8.42,-8.4606,-8.4167,-8.3964,-8.393,-8.3186,-8.2205,-8.1021,-7.9532,-7.7807,-7.5574,-7.0297,-6.6102,-6.2618,-5.8829,-5.7239,-5.6731,-5.46,-5.389,-5.3653,-5.1589,0.0,0.0,0.0,0.0,0.0,0.0,0.0,0.0,0.0,0.0,0.0,0.0,0.0,0.0,0.0,0.0,0.0,0.0,0.0,0.0,0.0,0.0,0.0,0.0,-5.9737,-6.2668,-6.3634,-6.7083,-7.0325,-7.2533,-7.4533,-7.574,-7.574,-7.574,-7.5568,-7.5257,-7.5361,-7.4947,-7.3843,-7.3774,-7.3429,-7.2747,-7.2713,-7.2533,-7.2188,-7.1705,-7.0946,-6.9911,-6.9497,-6.8083,-6.5876,-6.5876,-6.5048,0.0,-6.1979,-6.1289,-6.1082,-5.8392,-5.7081,0.0,0.0,0.0,0.0,0.0,-5.039,-5.0011,0.0,0.0,0.0,-4.6246,-4.6207,-4.6062,-4.5645,-4.6278,-4.7056,-4.7804,-5.4871,-6.1231,-6.4783,-7.0364,-7.4221,-7.5134,-7.236,-6.847,-6.3599,-6.0825,-6.0283,-6.2212,-6.776,-7.2225,-7.5303,-7.9431,-8.2205,-8.3625,-8.4302,-8.464,-8.464,-8.464,-8.464,-8.4606,-8.393,-8.3219,-8.2441,-8.1054,-7.96,-7.8044,-7.5777,-7.3003,-6.9586,-6.4038,-6.2584,-6.3159,-6.0283,-5.7679,-5.5446,-5.4363,0.0,0.0,0.0,0.0,0.0,0.0,0.0,0.0,0.0,0.0,0.0,0.0,0.0,0.0,0.0,0.0,0.0,0.0,0.0,0.0,0.0,0.0,0.0,0.0,-6.4048,-6.8152,-7.0774,-7.1705,-7.3153,-7.5913,-7.7603,-7.8534,-7.8534,-7.8534,-7.8223,-7.7534,-7.6706,-7.5602,-7.4119,0.0,0.0,0.0,0.0,-7.2291,-7.1498,-7.1429,-7.067,-6.9291,-6.9227,-6.8014,-6.5876,-6.5876,-6.5048,-6.3496,-6.1979,-6.1289,-6.1116,-5.884,-5.7426,-5.6495,-5.4977,-5.346,-5.1912,-5.0631,-5.008,-5.0011,0.0,0.0,0.0,-4.5507,-4.5407,-4.5291,-4.4863,-4.594,-4.7056,-4.7804,-5.3991,-5.9302,-6.1873,-6.6373,-6.9992,-7.1988,-6.8335,-6.4715,-6.1907,-6.1738,-6.3734,-6.8267,-7.2428,-7.6318,-7.9904,-8.2002,-8.3524,-8.4403,-8.4539,-8.464,-8.464,-8.464,-8.464,-8.4553,-8.4471,-8.3998,-8.3219,-8.234,-8.1122,-7.9566,-7.7367,-7.395,-6.9857,-6.688,-6.4816,-6.3294,-6.1501,-6.1264,-6.1298,-5.8118,-5.7137,-5.6731,-5.3619,-5.1792,0.0,0.0,0.0,0.0,0.0,0.0,0.0,0.0,0.0,0.0,0.0,0.0,0.0,0.0,0.0,0.0,0.0,0.0,0.0,-6.4634,-6.7359,-7.0498,-7.5223,-7.6016,-7.6326,-7.6947,-7.8361,-7.9293,-7.9293,-7.9293,-7.9224,-7.9086,-7.7775,-7.6602,-7.5706,-7.4464,-7.3429,-7.2747,-7.2713,-7.2291,-7.1498,-7.0912,-7.0153,-6.9256,0.0,0.0,-6.5876,-6.5876,-6.5048,-6.3496,-6.1979,-6.1289,-6.1116,-5.884,-5.7081,-5.5701,-5.4184,-5.2666,-5.1287,-5.1011,-5.0528,-5.0011,0.0,0.0,0.0,-4.472,-4.4909,-4.5027,-4.4513,-4.5443,-4.665,-4.7736,-5.2469,-5.6562,-5.8795,-6.2009,-6.4309,-6.5087,-6.2076,-6.0317,-6.0689,-6.3159,-6.6948,-7.2157,-7.6318,-7.9735,-8.234,-8.349,-8.4234,-8.464,-8.464,-8.464,-8.464,-8.464,-8.464,-8.464,-8.464,-8.4403,-8.3998,-8.3253,-8.2306,-8.1122,-7.8889,-7.598,-7.2699,-7.0466,-6.847,-6.6745,-6.6,-6.5019,-6.3734,-6.1467,-5.9945,-5.8558,-5.5987,-5.4126,-5.2672,0.0,0.0,0.0,0.0,0.0,0.0,0.0,0.0,0.0,0.0,0.0,0.0,0.0,0.0,-5.6115,-5.7633,0.0,-6.4255,-6.8083,-7.0946,-7.3774,-7.6809,-7.7879,-7.8361,-7.8361,-7.9362,-8.0051,-8.0051,-8.0051,-7.9913,-7.9534,-7.8085,-7.6696,-7.5524,-7.443,-7.3429,-7.2747,-7.2713,-7.2119,-7.0946,-7.0567,-6.9808,-6.867,-6.829,-6.7497,-6.6428,-6.6048,-6.5048,-6.3496,-6.1979,-6.1082,-6.0565,-5.8288,-5.6909,-5.6046,-5.4529,-5.3011,-5.1602,-5.1252,-5.0631,-5.0011,0.0,0.0,0.0,-4.4101,-4.4482,-4.483,-4.4365,-4.5081,-4.6177,-4.753,-5.0845,-5.3754,-5.5513,-5.7712,-5.8727,-5.8017,-5.6968,-5.7746,-6.0994,-6.5392,-7.0297,-7.5676,-7.9769,-8.2509,-8.3693,-8.4302,-8.464,-8.464,-8.464,-8.464,-8.464,-8.464,-8.464,-8.464,-8.464,-8.464,-8.4573,-8.3964,-8.3219,-8.2238,-8.0175,-7.7874,-7.5473,-7.3409,-7.1684,-7.0364,-7.0094,-6.7658,-6.4478,-6.3768,-6.1501,-5.8795,-5.7611,-5.6224,-5.4702,-5.301,-5.1488,0.0,0.0,0.0,0.0,0.0,0.0,0.0,0.0,-5.2459,-5.3911,-5.5322,-5.7667,-6.0047,-6.2048,-6.5531,-6.8842,-7.1118,-7.4223,-7.6637,-7.7534,-7.8465,-7.912,-7.9293,-7.9948,-8.0396,-8.0396,-8.0258,-8.0017,-7.9534,-7.781,-7.6248,-7.5179,-7.4154,-7.3291,-7.2747,-7.2575,-7.1774,-7.0394,-7.0256,-6.9463,-6.8083,-6.7945,-6.7497,-6.6738,-6.6014,-6.4807,-6.3289,-6.1772,-6.0668,-5.9806,-5.7667,-5.6805,-5.6633,-5.5115,-5.3563,-5.2119,-5.1533,-5.0769,-5.0011,0.0,0.0,0.0,0.0,0.0,-4.4255,-4.4298,-4.5081,-4.6007,-4.6819,-4.9593,-5.1523,-5.1826,-5.3856,-5.4905,-5.4194,-5.69,-6.0486,-6.4783,-6.9282,-7.439,-8.0276,-8.2915,-8.4336,-8.4505,-8.4573,-8.464,-8.464,-8.464,-8.464,-8.464,-8.464,-8.464,-8.464,-8.464,-8.464,-8.4553,-8.4539,-8.3693,-8.2272,-8.0716,-7.8314,-7.554,-7.395,-7.2462,-7.1007,-6.9688,-6.7218,-6.4478,-6.3768,-6.1501,-5.8998,-5.8829,-5.7746,-5.6122,-5.3991,-5.23,-5.0777,-4.939,-4.9077,-4.96,-5.1298,-5.1802,-5.2619,0.0,-5.7185,-5.8495,-5.9392,-6.2461,-6.5255,-6.6186,-6.9463,-7.2809,-7.5085,-7.6395,-7.7603,-7.9051,-7.8223,-7.7741,-7.843,-7.9189,-7.9638,-7.9638,-7.9051,-7.8879,-7.9465,-7.6765,-7.5386,-7.5947,-7.3947,-7.2816,-7.2713,-7.1981,-7.1222,-7.0394,-6.9739,-6.898,-6.8083,-6.7428,-6.6738,-6.5979,-6.5186,-6.4014,-6.253,-6.0978,-5.9875,-5.9012,-5.746,-5.6805,-5.6633,-5.5115,-5.3563,-5.2188,-5.2084,-5.1218,-5.0011,0.0,0.0,0.0,0.0,0.0,-4.3981,-4.4039,-4.4539,-4.5154,-4.5896,-4.7537,-4.8815,-4.9224,-5.0507,-5.1217,-5.0913,-5.4296,-5.8727,-6.4072,-6.9417,-7.5067,-8.1021,-8.3422,-8.464,-8.464,-8.508,-8.508,-8.464,-8.508,-8.508,-8.464,-8.464,-8.464,-8.464,-8.464,-8.464,-8.4606,-8.4167,-8.3355,-8.2238,-8.0344,-7.801,-7.5439,-7.3105,-7.0466,-6.7963,-6.732,-6.5459,0.0,-6.1434,-6.0047,-5.893,-5.849,-5.734,-5.5818,-5.4025,-5.2097,-5.0369,-4.9382,-4.9906,-5.1216,-5.3418,-5.4714,-5.6153,-5.884,-6.0599,-6.2013,-6.3255,-6.6152,-6.8877,-7.0084,-7.305,-7.5775,-7.7223,-7.843,-7.912,-7.8913,-7.7913,-7.6671,-7.5257,-7.5326,-7.6223,-7.8017,-7.7499,-7.7189,-7.7499,-7.5499,-7.4395,-7.474,-7.3429,-7.2506,-7.2015,-7.167,-7.0912,-6.9739,-6.9428,-6.8877,-6.8083,-6.7325,-6.6842,-6.6497,-6.5255,-6.3634,-6.1703,-6.0185,-5.9323,-5.8944,-5.7874,-5.7185,-5.6702,-5.5563,-5.4218,-5.2839,-5.236,-5.1287,-5.0011,0.0,0.0,0.0,0.0,0.0,-4.3628,-4.3927,-4.4155,-4.4562,-4.5366,-4.6254,-4.7158,-4.8105,-4.8511,-4.8714,-4.8714,-5.1758,-5.6292,-6.2516,-6.8098,-7.4086,-8.0682,-8.2915,-8.42,-8.4606,-8.5384,-8.5418,-8.464,-8.5418,-8.5384,-8.464,-8.464,-8.464,-8.464,-8.464,-8.464,-8.4573,-8.3828,-8.2949,-8.19,-7.9701,-7.7198,-7.4424,-7.1278,-6.759,-6.414,-6.414,-6.2347,-5.9674,-5.8051,-5.7205,-5.6867,-5.6968,-5.6258,-5.5108,-5.3619,-5.1589,-4.9825,-4.9875,-5.1322,-5.3325,-5.5748,-5.7979,-6.0082,-6.2358,-6.4048,-6.56,-6.7118,-6.9497,-7.167,-7.2774,-7.5292,-7.7465,-7.8292,-7.9327,-7.9638,-7.8568,-7.7016,-7.4981,-7.236,-7.1498,-7.205,-7.4464,-7.4981,-7.5326,-7.5775,-7.4361,-7.3567,-7.3774,-7.3084,-7.2326,-7.1532,-7.1291,-7.0567,-6.9291,-6.9049,-6.867,-6.8083,-6.7152,-6.6669,-6.6635,-6.4669,-6.2875,-6.122,-5.9668,-5.8909,-5.8633,-5.7909,-5.715,-5.6391,-5.5598,-5.4391,-5.3011,-5.2394,-5.1425,-5.0287,0.0,0.0,0.0,0.0,0.0,-4.2958,-4.3952,-4.4212,-4.4653,-4.5573,-4.6346,-4.7361,-4.8815,-4.8376,-4.7906,-4.7906,-5.0002,-5.4194,-6.0926,-6.5561,-7.1684,-7.987,-8.1663,-8.3152,-8.4606,-8.5384,-8.5418,-8.464,-8.5418,-8.5384,-8.464,-8.464,-8.464,-8.464,-8.464,-8.464,-8.4573,-8.3828,-8.2644,-8.1122,-7.8889,-7.5811,-7.209,-6.8368,-6.4174,-6.0283,-6.0283,0.0,-5.3754,-5.3687,-5.2672,-5.1826,-5.3991,-5.4668,-5.4329,-5.2874,-5.0811,-4.9419,-5.1219,-5.3363,-5.572,-5.8255,-6.1185,-6.4014,-6.629,-6.8014,-6.9532,-7.1015,-7.2567,-7.3705,-7.374,-7.5637,-7.7465,-7.8292,-7.843,-7.8465,-7.843,-7.5188,-7.2222,-7.0636,-6.8497,-6.7463,0.0,-7.105,-7.3395,-7.48,-7.3567,-7.3058,-7.374,-7.3084,-7.2326,-7.1532,-7.0808,-7.0049,-6.9331,-6.8532,-6.8118,-6.8083,-6.6635,-6.5911,-6.5807,-6.2772,-6.1358,-6.122,-5.9668,-5.8599,-5.7874,-5.715,-5.6357,-5.5563,-5.4839,-5.3598,-5.2222,-5.2188,-5.1705,-5.0976,0.0,0.0,0.0,0.0,0.0,0.0,-4.3169,-4.3772,-4.4284,-4.4611,-4.5891,0.0,0.0,0.0,0.0,0.0,-4.8748,-5.1995,-5.7239,-6.2245,-6.7557,-7.3308,-7.7367,-7.9938,-8.0953,-8.2644,-8.3422,-8.3152,-8.3896,-8.3896,-8.3152,-8.3152,-8.3152,-8.3152,-8.3152,-8.3152,-8.3084,-8.1832,-8.0445,-7.8822,-7.5574,-7.2665,-6.9688,-6.4952,-6.0689,-5.6867,0.0,-5.2503,-5.1082,-5.0135,-4.9763,-4.9965,-5.1217,-5.1589,-5.142,-5.0439,-5.0642,-5.1619,-5.3538,-5.603,-5.9109,-6.3285,-6.5462,-6.7325,-7.0118,-7.1153,-7.1712,-7.2188,-7.1498,-7.0808,-7.0808,-7.1843,-7.2946,-7.3705,-7.5533,-7.6706,-7.6154,-7.4568,-7.2084,-6.8566,-6.7876,-6.7221,-6.5979,0.0,0.0,-7.1808,-7.1912,-7.2015,-7.2257,-7.2015,-7.1532,-7.0774,-7.0049,-6.9291,-6.8497,-6.7738,-6.7359,-6.7325,-6.5842,-6.4565,-6.3565,-6.2013,-6.1013,-6.0496,-5.9461,-5.8875,-5.8599,-5.784,-5.7081,-5.6322,-5.5563,-5.4632,-5.3598,-5.2567,-5.2015,-5.1636,0.0,0.0,0.0,0.0,0.0,0.0,0.0,0.0,0.0,0.0,0.0,0.0,0.0,0.0,0.0,0.0,0.0,-4.9763,-5.345,-5.7848,-6.2313,-6.6812,-7.1007,-7.368,-7.4695,-7.6386,-7.7096,-7.6826,-7.8111,-7.8483,-7.8044,-7.8585,-7.8957,-7.9228,-7.9498,-7.9634,-7.9532,-7.8314,-7.6792,-7.4897,-7.1413,-6.8199,-6.4986,-6.0283,-5.6359,0.0,0.0,-4.8342,-4.8003,-4.7361,-4.7597,-4.8342,-4.9086,-4.9492,-4.9729,-4.9763,-5.1417,-5.3753,-5.6167,-5.9417,-6.309,-6.6867,-6.8773,-7.0256,-7.2264,-7.2464,-7.2015,-7.1187,-6.9463,-6.7807,-6.7014,-6.7256,-6.7876,-6.8911,-7.0981,-7.2671,-7.3222,-7.2188,-7.036,-6.7704,-6.7325,-6.6738,-6.5255,-6.6428,0.0,-6.9842,-7.0912,-7.1498,-7.1498,-7.1498,-7.1153,-7.0394,-6.967,-6.8911,-6.8118,-6.7635,-6.7118,-6.6566,-6.56,-6.4324,-6.2841,-6.1772,-6.1047,-6.053,-5.9461,-5.8875,-5.8564,-5.7805,-5.7081,-5.6288,-5.5529,-5.477,-5.3977,-5.2701,-5.2015,-5.1602,0.0,0.0,0.0,0.0,0.0,0.0,0.0,0.0,0.0,0.0,0.0,0.0,0.0,0.0,0.0,0.0,0.0,0.0,-4.9729,-5.2672,-5.6292,-6.0655,-6.3057,-6.5019,-6.6508,-6.7252,-6.7286,-6.6643,-6.8741,-6.9789,-6.9823,-7.1244,-7.2259,-7.2935,-7.368,-7.3984,-7.395,-7.3206,-7.165,-6.935,-6.6406,-6.2618,-5.8321,-5.4668,0.0,0.0,-4.6481,-4.5229,-4.4716,-4.55,-4.6312,-4.709,-4.7868,-4.8578,-4.9424,-5.1048,-5.3244,-5.5826,-5.9141,-6.3433,-6.7369,-6.9043,-7.1125,-7.2713,-7.2609,-7.1912,-7.067,-6.8394,-6.6635,-6.4807,-6.2599,-6.222,-6.2772,-6.4324,-6.5393,-6.7049,-7.0084,-6.8635,-6.7497,-6.8083,-6.6945,-6.6048,-6.5945,-6.6014,-6.6945,-6.9158,0.0,-7.1394,-7.1394,-7.1429,-7.1084,-7.036,-6.9601,-6.8842,-6.8118,-6.8049,-6.729,-6.5807,-6.5807,-6.5014,-6.3496,-6.1979,-6.1289,-6.1151,-5.9668,-5.8599,-5.7909,-5.7116,-5.6357,-5.5598,-5.4805,-5.408,-5.3356,-5.2563,-5.1808,-5.1114,0.0,0.0,0.0,0.0,0.0,0.0,0.0,0.0,0.0,0.0,0.0,0.0,0.0,0.0,0.0,0.0,0.0,0.0,-4.6752,-4.9593,-5.2232,-5.4499,-5.8355,-6.1163,-6.2685,-6.3429,-6.3971,-6.4343,-6.4377,-6.4377,-6.4377,-6.4749,-6.5053,-6.5222,-6.5425,-6.5493,-6.5493,-6.529,-6.3903,-6.1704,0.0,-5.7408,-5.4566,0.0,0.0,0.0,-4.6312,-4.5229,-4.4818,-4.6075,-4.7733,-4.939,-5.0135,-5.0475,-5.1285,-5.4465,-5.6738,-5.9198,-6.3512,-6.6924,-6.9667,-7.1387,-7.2299,-7.2402,-7.1222,-6.9911,-6.8325,-6.6048,-6.2565,-5.9599,-5.8461,-5.8702,-5.9944,-6.2634,-6.5566,-6.8601,-7.167,-7.1601,-7.067,-6.9153,-6.9118,-6.8566,-6.6876,-6.7738,-6.8635,0.0,-6.9635,-6.9842,-6.9842,-7.036,-7.0325,-6.9601,-6.8808,-6.829,-6.8083,-6.7566,-6.6497,-6.5014,-6.5014,-6.422,-6.2737,-6.1737,-6.1013,-6.0427,-5.9426,-5.8909,-5.8633,-5.7322,-5.6667,-5.6357,-5.5012,-5.4391,-5.4149,-5.3391,-5.2977,-5.2632,0.0,0.0,0.0,0.0,0.0,0.0,0.0,0.0,0.0,0.0,0.0,0.0,0.0,0.0,0.0,0.0,0.0,0.0,0.0,-4.7056,-4.868,-4.983,-5.2604,-5.4702,-5.5886,-5.6325,-5.6731,-5.7137,-5.7036,-5.7171,-5.7509,-5.7814,-5.8152,-5.849,-5.8829,-5.9167,-5.9438,-5.9099,-5.8051,0.0,0.0,0.0,0.0,0.0,0.0,-4.638,-4.5872,-4.5635,-4.5867,-4.7631,-4.9492,-5.1319,-5.2739,-5.3856,-5.5243,-5.8355,-6.0782,-6.3196,-6.6485,-6.9227,-7.1476,-7.2464,-7.2429,-7.1567,-6.9394,-6.7704,-6.56,-6.1979,-5.8668,-5.5977,-5.4563,-5.4908,-5.6288,-5.9047,-6.2393,-6.5945,-6.967,-7.0463,-7.0567,-7.0291,-7.0636,-7.0256,-6.8635,-6.9256,-6.9773,-6.9773,-7.0049,-7.0118,-6.9773,-7.0153,-7.0049,-6.9291,-6.8497,-6.8083,-6.8083,-6.7669,-6.6704,-6.5221,-6.5221,-6.4427,-6.2944,-6.1806,-6.1082,-6.0634,0.0,-5.9012,-5.8909,-5.7426,-5.6805,-5.6633,-5.5115,-5.4494,-5.4425,-5.3667,-5.3391,-5.3218,0.0,0.0,0.0,0.0,0.0,0.0,0.0,0.0,0.0,0.0,-4.5076,-4.5211,0.0,0.0,0.0,0.0,0.0,0.0,0.0,0.0,0.0,-4.6752,-4.753,-4.8274,-4.8984,-4.8917,-4.8815,-4.8714,-4.9255,-4.9796,-5.0338,-5.098,-5.1657,-5.2367,-5.2976,-5.3687,-5.4329,-5.3687,-5.3044,0.0,0.0,0.0,0.0,0.0,0.0,-4.4852,-4.5466,-4.6177,-4.7124,-4.9458,-5.1352,-5.3179,-5.5547,-5.7746,-5.9979,-6.2516,-6.4903,-6.7065,-6.8842,-7.1129,-7.2946,-7.2843,-7.2084,-7.0532,-6.7394,-6.5255,-6.2496,-5.7358,-5.5083,-5.3425,-5.1356,-5.1666,-5.308,-5.577,-5.8633,-6.2151,-6.6911,-6.8152,-6.9325,-7.1394,-7.1636,-7.1394,-7.0739,-7.0705,-7.0705,-7.0705,-7.1187,-7.1118,-7.0291,-7.0325,-6.998,-6.9153,-6.8463,-6.8083,-6.8083,-6.8014,-6.7256,-6.5876,-6.5773,-6.4979,-6.3531,-6.2117,-6.1392,-6.122,-5.9806,0.0,-5.8909,-5.7529,-5.6874,-5.6667,-5.5219,-5.4598,-5.4425,-5.377,-5.3563,-5.3425,0.0,0.0,0.0,0.0,0.0,0.0,0.0,0.0,0.0,0.0,-4.3935,-4.3939,0.0,0.0,0.0,0.0,0.0,0.0,0.0,0.0,0.0,0.0,-4.753,-4.8274,-4.8984,-4.8409,-4.78,-4.7192,-4.6684,-4.621,-4.5766,-4.5901,-4.6036,-4.6172,-4.6273,-4.6718,-4.7428,-4.7293,-4.7158,0.0,0.0,0.0,0.0,0.0,0.0,0.0,-4.5669,-4.6177,-4.7225,-5.0067,-5.2841,-5.5615,-5.8457,-6.0486,-6.2618,-6.6711,-6.7972,-6.8735,-7.2249,-7.3744,-7.4178,-7.3697,-7.2084,-6.9601,-6.5791,-6.2389,-5.8806,-5.4611,-5.2643,-5.139,-5.039,-5.1287,-5.3804,-5.8633,-6.0909,-6.4117,-6.9911,-7.0808,-7.1291,-7.236,-7.2464,-7.2429,-7.2291,-7.2333,-7.2333,0.0,-7.1774,-7.0912,-6.9532,-7.0049,-6.9739,-6.8359,-6.8152,-6.8083,-6.8083,-6.7497,-6.6738,-6.5876,-6.5221,-6.4462,-6.3565,-6.2668,-6.191,-6.1254,-6.0358,0.0,-5.8944,-5.8081,-5.7357,-5.6702,-5.577,-5.5046,-5.4494,-5.4356,-5.4322,-5.4218,0.0,0.0,0.0,0.0,0.0,0.0,0.0,-4.1189,-4.1979,-4.3635,-4.3936,-4.4267,-4.503,-4.447,-4.4347,0.0,0.0,0.0,0.0,0.0,0.0,0.0,0.0,0.0,-4.8984,-4.8646,-4.8308,-4.7936,0.0,-4.6684,-4.6312,-4.5534,-4.5162,-4.5162,-4.5162,-4.5365,-4.5703,-4.5703,-4.5703,-4.5669,-4.5263,-4.5128,0.0,0.0,0.0,0.0,0.0,-4.5838,-4.7192,-4.9763,-5.2638,-5.5987,-6.0892,-6.4038,-6.6474,-6.9383,-7.0711,-7.1644,-7.3683,-7.4693,-7.5053,-7.4481,-7.1774,-6.8044,-6.3724,-5.9874,-5.6085,-5.2142,-5.0892,-5.0424,-5.008,-5.1218,-5.3291,-5.6702,-5.884,-6.2082,-6.7773,-6.8911,-7.0015,-7.2437,-7.2713,-7.2713,-7.2713,-7.3058,-7.3084,-7.2747,-7.2326,-7.1463,-6.9946,-6.9428,-6.8842,-6.8118,-6.8083,-6.8083,-6.8083,-6.7359,-6.6635,-6.5876,-6.5083,-6.4324,-6.3565,-6.2393,-6.1668,-6.1254,-6.0082,0.0,-5.8944,-5.8219,-5.746,-5.6771,-5.6391,-5.5529,-5.4563,-5.4943,-5.4839,-5.446,0.0,0.0,0.0,0.0,0.0,0.0,-4.1175,-4.1542,-4.2198,-4.3837,-4.4373,-4.4835,-4.5406,-4.4389,-4.4062,0.0,0.0,0.0,0.0,0.0,0.0,0.0,0.0,0.0,0.0,0.0,0.0,-4.8781,-4.8206,0.0,0.0,0.0,0.0,0.0,-4.5703,-4.5703,-4.5703,-4.5703,-4.5805,0.0,0.0,-4.5297,0.0,0.0,0.0,0.0,0.0,-4.5568,-4.6887,-4.912,-5.1758,-5.5141,-6.1061,-6.5425,-6.8639,-6.9958,-7.1988,-7.3946,-7.4605,-7.5298,-7.5753,-7.5308,-7.136,-6.6458,-6.2037,-5.798,-5.4086,-5.0429,-4.983,-5.0011,-5.0011,-5.0976,-5.2356,-5.4218,-5.615,-5.9357,-6.4841,-6.6428,-6.8325,-7.1981,-7.2609,-7.2713,-7.2713,-7.3188,-7.3291,-7.2747,-7.236,-7.1601,-7.0222,-6.8842,-6.8083,-6.8083,-6.8083,-6.8014,-6.7876,-6.7118,-6.6393,-6.5635,-6.4841,-6.4152,-6.3531,-6.2186,-6.1461,-6.122,-5.984,0.0,0.0,-5.8392,-5.7702,-5.7012,-5.6874,-5.5943,-5.4805,-5.5219,-5.5012,-5.4494,0.0,0.0,0.0,0.0,0.0,0.0,-4.1175,-4.1931,-4.3097,-4.5203,-4.4992,-4.4721,-4.5022,-4.4493,-4.4042,0.0,0.0,0.0,0.0,0.0,0.0,0.0,0.0,0.0,0.0,0.0,0.0,-4.8007,-4.7906,0.0,0.0,0.0,0.0,0.0,0.0,-4.5703,-4.5703,-4.5703,0.0,0.0,0.0,0.0,0.0,0.0,0.0,0.0,0.0,-4.5703,-4.6143,-4.8376,-5.0608,-5.3112,-5.6461,-6.1434,-6.617,-6.6981,-7.0195,-7.392,-7.5776,-7.6358,-7.6359,-7.6056,-7.1015,-6.5179,-6.1613,-5.7088,-5.2815,-5.0073,-4.9772,-5.0011,-5.0011,-5.0114,-5.1149,-5.4046,-5.5253,-5.7943,-6.3945,-6.6048,-6.8152,-7.1222,-7.2257,-7.2713,-7.2713,-7.2782,-7.2782,-7.2713,-7.1394,-7.0256,-6.9428,-6.8566,-6.8083,-6.8083,-6.8083,-6.7773,-6.7083,-6.6359,-6.56,-6.4807,-6.4048,-6.3669,-6.3565,-6.2737,-6.1979,-6.1254,-6.0427,0.0,0.0,-5.8944,-5.8461,-5.7736,-5.7047,-5.6288,-5.546,-5.4839,-5.4563,-5.4494,0.0,0.0,0.0,0.0,0.0,0.0,-4.1175,-4.1991,-4.3019,-4.4648,-4.5308,-4.5413,-4.4813,-4.4302,-4.3839,-4.3489,0.0,0.0,0.0,0.0,0.0,0.0,0.0,0.0,0.0,0.0,-4.8849,-4.8578,-4.8578,0.0,0.0,0.0,0.0,0.0,0.0,-4.6786,-4.638,-4.6853,0.0,0.0,0.0,0.0,0.0,0.0,0.0,0.0,0.0,0.0,-4.5974,-4.7767,-4.8646,-4.9289,-5.0913,-5.4634,-5.9302,-6.4072,-6.803,-7.1469,-7.4207,-7.5686,-7.6416,-7.5946,-7.0093,-6.3758,-6.1336,-5.6096,-5.1295,-4.9838,-4.9624,-4.9772,-4.9982,-4.9889,-5.0238,-5.1567,-5.2046,-5.3873,-5.8564,-6.0185,-6.2841,-6.8152,-6.9463,-7.0636,-7.2498,-7.3084,-7.2946,-7.205,-7.0981,-7.0049,-6.9365,-6.8532,-6.8083,-6.8083,-6.7669,-6.729,-6.698,-6.5773,-6.5014,-6.4703,-6.3945,-6.36,-6.3565,-6.2324,-6.1599,-6.122,-6.0013,0.0,0.0,-5.9012,-5.8564,-5.7874,-5.7598,-5.6702,-5.5563,-5.5288,-5.4908,-5.4494,0.0,0.0,0.0,0.0,0.0,-3.9858,-4.1175,-4.1991,-4.28,-4.3868,-4.5005,-4.5346,-4.4328,-4.3663,-4.3223,-4.2979,-4.414,0.0,0.0,0.0,0.0,0.0,0.0,0.0,0.0,0.0,-4.868,-4.868,-4.868,-4.8781,0.0,0.0,-4.8003,-4.7597,0.0,0.0,0.0,0.0,0.0,0.0,0.0,0.0,0.0,0.0,0.0,0.0,0.0,0.0,0.0,0.0,0.0,-4.7192,-4.7496,-4.9695,-5.3382,-5.9539,-6.4681,-6.8953,-7.1566,-7.3957,-7.5686,-7.5204,-6.9007,-6.2584,-6.0891,-5.5379,-5.0359,-4.9581,-4.9441,-4.956,-4.986,-4.9801,-4.9767,-4.9982,-5.0183,-5.1563,-5.5115,-5.6702,-5.9599,-6.5324,-6.6635,-6.829,-7.1436,-7.2533,-7.2671,-7.1567,-7.0601,0.0,-6.9325,-6.8532,-6.8187,-6.8428,-6.7497,-6.6876,-6.6669,-6.5359,-6.46,-6.4358,-6.3841,-6.3496,-6.322,-6.191,-6.1185,-6.0909,-5.9564,0.0,0.0,-5.9012,-5.8702,-5.8185,-5.7771,-5.6909,-5.5908,-5.546,-5.4943,-5.4494,0.0,0.0,0.0,0.0,0.0,-3.9858,-4.1175,-4.1991,-4.265,-4.323,-4.3888,-4.4077,-4.3379,-4.2469,-4.1917,-4.1923,-4.2393,0.0,0.0,0.0,0.0,0.0,0.0,0.0,0.0,0.0,-4.7906,-4.7906,-4.7906,-4.8277,-4.9018,-4.8984,-4.8206,-4.6819,0.0,0.0,0.0,0.0,0.0,0.0,0.0,0.0,0.0,0.0,0.0,0.0,0.0,0.0,0.0,0.0,0.0,0.0,0.0,-4.7834,-4.9661,-5.2739,-5.9911,-6.7057,-6.8098,-7.1197,-7.4114,-7.366,-6.7805,-6.1794,-6.0068,-5.5003,-5.0328,-4.943,-4.935,-4.953,-4.9679,-4.9708,-4.9767,-4.9982,-5.0631,-5.2119,-5.5184,-5.7598,-6.0185,-6.3255,-6.4289,-6.5945,-6.9055,-7.0636,-7.1498,-7.1498,-7.0118,0.0,-6.9291,-6.8532,-6.8463,-6.9256,-6.7773,-6.6635,-6.5911,-6.5117,-6.4324,-6.36,-6.36,-6.322,-6.2461,-6.1668,-6.0909,0.0,0.0,0.0,0.0,-5.9012,-5.9012,-5.884,-5.7391,-5.6805,-5.6598,-5.5081,-5.4529,-5.4494,0.0,0.0,0.0,0.0,0.0,0.0,-3.9978,-4.0606,-4.1265,-4.1923,-4.2581,-4.306,-4.326,-4.2355,-4.1942,-4.2327,-4.2567,0.0,0.0,0.0,0.0,0.0,0.0,0.0,0.0,-4.8646,-4.8646,-4.8646,-4.8646,-4.8781,-4.9018,-4.9018,-4.8477,-4.7534,-4.7072,-4.6352,0.0,0.0,0.0,0.0,0.0,0.0,0.0,0.0,0.0,0.0,0.0,0.0,0.0,0.0,0.0,0.0,0.0,0.0,0.0,-4.939,-5.4228,-5.9708,-6.2092,-6.4081,-6.5539,-6.538,-6.1254,-5.7055,-5.6542,-5.2832,-4.9474,-4.9233,-4.9168,-4.926,-4.9619,-4.9619,-4.982,-5.0607,-5.0976,-5.1632,-5.3049,-5.5736,-5.884,-6.2427,-6.7152,-7.0532,0.0,0.0,-7.1877,-7.0808,-7.0774,0.0,-7.0049,-6.9325,-6.8773,-6.8463,-6.7014,-6.6117,-6.5876,-6.46,-6.3841,-6.36,-6.36,-6.3186,-6.2461,-6.1668,-6.0909,0.0,0.0,0.0,0.0,-5.9012,-5.8702,-5.815,-5.7185,-5.646,-5.5874,-5.4874,-5.4494,-5.4494,0.0,0.0,0.0,0.0,0.0,0.0,-3.9373,-3.9978,-4.0457,-4.0606,-4.1205,-4.1863,-4.2521,-4.1633,-4.1414,-4.2491,-4.233,0.0,0.0,0.0,0.0,0.0,0.0,0.0,-4.7761,-4.8048,-4.8308,-4.8576,-4.8861,-4.9289,-4.983,-4.956,-4.8894,-4.7874,-4.6928,-4.5919,0.0,0.0,0.0,0.0,0.0,0.0,-4.3918,0.0,0.0,0.0,0.0,0.0,0.0,0.0,0.0,0.0,0.0,0.0,0.0,0.0,-5.0642,-5.389,-5.7137,-5.959,-6.1136,-6.0864,-5.7834,-5.4839,-5.4566,-5.1649,-4.9015,-4.9107,-4.9046,-4.9107,-4.953,-4.956,-4.9761,-5.0573,-5.07,-5.1045,-5.205,-5.4874,-5.8219,-6.2048,-6.7497,-7.0843,0.0,-7.1091,-7.1222,-7.0843,0.0,0.0,-6.998,-6.9532,-6.8773,-6.7704,-6.6497,-6.5876,-6.5876,-6.4358,-6.36,-6.36,-6.3324,-6.2772,-6.2013,-6.1254,-6.0461,0.0,0.0,0.0,0.0,-5.9012,-5.8737,-5.8219,-5.7219,-5.6495,-5.5943,-5.4874,-5.4494,-5.4494,0.0,0.0,0.0,0.0,0.0,0.0,0.0,-3.9948,-4.0098,-3.9463,-3.9948,-4.0576,-4.1175,-4.0311,-4.048,-4.2371,-4.1808,0.0,0.0,0.0,0.0,0.0,0.0,0.0,-4.5857,-4.6487,-4.7173,-4.7999,-4.8608,-4.9634,-5.1019,-5.0345,-4.9185,-4.7671,-4.6315,-4.4881,-4.3557,-4.491,-4.5125,-4.466,-4.5962,-4.4879,0.0,0.0,0.0,0.0,0.0,0.0,0.0,0.0,0.0,0.0,0.0,0.0,0.0,0.0,0.0,0.0,0.0,-5.6875,-5.9534,-5.8853,-5.654,-5.4295,-5.3614,-5.1174,0.0,-4.9018,-4.9018,-4.9111,-4.9411,-4.9471,-4.9624,-5.0021,-5.005,-5.0597,-5.205,-5.5184,-5.8668,-6.2358,-6.6117,-6.8083,-6.7256,-6.8601,-7.0084,-7.1394,0.0,0.0,-6.936,-6.94,-6.8635,-6.7118,-6.629,-6.5842,-6.5807,-6.4324,-6.36,-6.36,-6.2841,-6.2082,-6.1289,-6.053,-5.9771,0.0,0.0,0.0,0.0,-5.9012,-5.8978,-5.8806,-5.7357,-5.6771,-5.6529,-5.5046,-5.4494,-5.4494,0.0,0.0,0.0,0.0,0.0,0.0,0.0,0.0,0.0,0.0,-3.9559,-3.9709,-3.9858,-3.9625,-4.0154,0.0,0.0,0.0,0.0,0.0,0.0,0.0,0.0,0.0,-4.7143,-4.6912,-4.7461,-4.8736,-4.829,-4.8529,-4.946,-4.9214,-4.805,-4.6155,-4.5357,-4.3864,-4.2009,-4.2364,-4.2717,-4.3101,-4.339,-4.3136,0.0,0.0,0.0,0.0,-4.1981,-4.3101,0.0,0.0,0.0,0.0,0.0,0.0,0.0,0.0,-4.9018,-4.9187,-5.0067,0.0,-5.1654,-5.1485,-5.0909,-5.0333,0.0,-4.9523,-4.9018,-4.9018,-4.9018,-4.908,-4.9229,-4.9381,-4.9765,-5.0562,-5.075,-5.139,-5.2908,-5.8254,-6.2979,-6.5635,-6.9291,-7.0843,-6.8946,-7.0677,-7.1774,0.0,0.0,-7.136,-7.0187,-7.0118,-6.9428,-6.7876,-6.6566,-6.56,-6.4979,-6.4048,-6.36,-6.36,-6.2841,-6.2082,-6.1289,-6.053,-5.9771,0.0,0.0,0.0,-5.9012,-5.9012,-5.8668,-5.8081,-5.715,-5.6426,-5.577,-5.4839,-5.4494,-5.4494,0.0,0.0,0.0,0.0,0.0,0.0,0.0,0.0,0.0,0.0,-3.9373,-3.9373,-3.9373,-3.9373,-3.9865,0.0,0.0,0.0,0.0,0.0,0.0,0.0,0.0,-4.606,-4.6694,-4.6117,-4.6716,-4.8497,-4.8033,-4.8387,-4.937,-4.9332,-4.8357,-4.6557,-4.4602,-4.2921,-4.1492,-4.1873,-4.2252,-4.2633,-4.2945,0.0,0.0,0.0,0.0,0.0,-4.126,-4.2623,0.0,-4.4398,-4.5894,-4.7977,0.0,0.0,0.0,0.0,-4.8767,-4.8576,-4.8892,-4.9018,-4.9018,-4.9018,-4.9018,-4.9018,-4.9018,-4.9018,-4.9018,-4.9018,-4.9018,-4.9015,-4.9168,-4.929,-4.9684,-5.0587,-5.0905,-5.192,-5.4598,-5.9047,-6.3151,-6.6117,-6.8911,-7.0498,0.0,-7.1084,-7.1739,0.0,0.0,-7.1256,-7.0429,-6.9704,-6.8635,-6.7118,-6.5945,-6.5117,-6.4703,-6.3979,-6.3427,-6.3082,-6.2324,-6.153,-6.0771,-6.0013,-5.9426,0.0,0.0,0.0,-5.8495,-5.8495,-5.8081,-5.7322,-5.6564,-5.5977,-5.5529,-5.477,-5.4494,-5.4494,0.0,0.0,0.0,0.0,0.0,0.0,0.0,0.0,0.0,0.0,0.0,0.0,0.0,0.0,0.0,0.0,0.0,0.0,0.0,0.0,0.0,0.0,-4.461,-4.4918,-4.5624,-4.5033,-4.5713,-4.7737,-4.792,-4.8691,-4.9983,-5.0118,-4.9254,-4.7473,-4.4198,-4.2337,-4.1704,-4.2404,-4.2685,-4.2779,-4.3325,0.0,0.0,0.0,0.0,0.0,0.0,0.0,0.0,-4.3932,-4.5571,-4.7928,-4.7897,0.0,0.0,0.0,0.0,0.0,-4.8933,-4.9187,-4.9154,-4.9052,-4.9018,-4.9018,-4.9018,-4.9018,-4.9018,-4.9018,-4.9018,-4.9015,-4.9138,-4.9301,-4.9634,-5.0438,-5.1131,-5.3032,-5.722,-5.9702,-6.2358,-6.5807,-6.7738,0.0,-7.1015,-7.0912,0.0,0.0,0.0,-7.0394,-7.0049,-6.8808,-6.7359,-6.5773,-6.5048,-6.46,-6.4358,-6.3738,-6.3117,-6.2461,-6.1565,-6.0806,-6.0185,-5.9392,-5.9012,-5.9012,0.0,0.0,-5.7909,-5.7909,-5.746,-5.6736,-5.5908,-5.5598,-5.5529,-5.477,-5.4494,-5.4494,0.0,0.0,0.0,0.0,0.0,0.0,0.0,0.0,0.0,0.0,0.0,0.0,0.0,0.0,0.0,0.0,0.0,0.0,0.0,0.0,0.0,-4.4572,-4.461,-4.4843,-4.5442,-4.489,-4.5384,-4.6989,-4.8004,-4.8966,-4.9821,-5.0923,-4.977,-4.6678,-4.4432,-4.3075,-4.2438,-4.2566,-4.2937,-4.3437,-4.2922,0.0,0.0,0.0,0.0,0.0,0.0,0.0,0.0,-4.3922,-4.5566,-4.7898,-4.7901,0.0,0.0,0.0,0.0,0.0,-4.9571,-4.9932,-4.9763,-4.9154,-4.9018,-4.9018,-4.9018,-4.9018,-4.9018,-4.9018,-4.9018,-4.9018,-4.9049,-4.9681,-5.0249,-5.0416,-5.2848,-5.6537,-6.1841,-6.3979,-6.5704,-6.7532,0.0,-7.136,-6.9773,0.0,0.0,0.0,0.0,-7.0498,-6.8566,-6.8221,-6.7118,-6.4945,-6.4772,-6.4083,-6.2841,-6.2703,-6.2599,-6.2461,-6.1047,-6.0323,-6.0185,-5.9392,-5.9012,-5.9012,0.0,-5.8599,-5.7909,-5.7909,-5.746,-5.6736,-5.5908,-5.5598,-5.5529,-5.477,-5.4494,-5.4494,0.0,0.0,0.0,0.0,0.0,0.0,0.0,0.0,0.0,0.0,0.0,0.0,0.0,0.0,0.0,0.0,0.0,0.0,0.0,0.0,-4.4334,-4.4816,-4.4672,-4.488,-4.5551,-4.5315,-4.6033,-4.7855,-4.9094,-5.0092,-5.0818,-5.0283,-4.882,-4.6511,-4.4517,-4.3217,-4.2602,-4.2602,-4.2971,-4.3562,0.0,0.0,0.0,0.0,0.0,0.0,0.0,0.0,0.0,0.0,-4.5266,-4.7238,-4.683,0.0,0.0,0.0,0.0,0.0,-4.9108,-4.9492,-4.9526,-4.9593,-4.9593,-4.9492,-4.9086,-4.9018,-4.912,-4.9492,-4.9289,-4.912,-4.9526,-5.0265,-5.1547,-5.3683,-5.6406,-5.9317,-6.2383,-6.3724,-6.521,0.0,0.0,-7.0616,0.0,0.0,0.0,0.0,0.0,0.0,-6.8187,-6.7325,-6.6221,-6.4738,-6.391,-6.3186,-6.2496,-6.1668,-6.1254,-6.1254,-6.053,-5.9978,-5.953,-5.9185,-5.9012,-5.9012,0.0,-5.8357,-5.7322,-5.7322,-5.6598,-5.5529,-5.515,-5.5012,-5.4945,-5.4505,-5.4399,-5.4463,0.0,0.0,0.0,0.0,0.0,0.0,0.0,0.0,0.0,0.0,0.0,0.0,0.0,0.0,0.0,0.0,0.0,0.0,0.0,-4.3182,-4.4217,-4.466,-4.4788,-4.5246,-4.6127,-4.6083,-4.7105,-4.9157,-5.0843,-5.1898,-5.2359,-5.0143,-4.8296,-4.6757,-4.4726,-4.3525,-4.3063,-4.3063,-4.334,-4.3809,0.0,0.0,0.0,0.0,0.0,0.0,0.0,0.0,0.0,0.0,0.0,0.0,0.0,0.0,0.0,-4.7204,-4.7103,-4.6929,-4.8555,-4.9005,-4.9203,-4.9934,-4.9965,-4.983,-4.9796,-4.9661,-4.9796,-5.071,-5.0304,-4.9965,-5.0507,-5.1386,-5.3246,-5.698,-5.9607,-6.1732,-6.3395,-6.408,-6.5392,-6.789,-6.8904,-6.9935,0.0,0.0,0.0,0.0,0.0,0.0,-6.7556,-6.6286,-6.5152,-6.422,-6.3082,-6.2324,-6.1944,-6.0771,-6.0185,-6.0185,-6.0013,-5.9599,-5.9012,-5.9012,-5.9012,-5.9012,-5.884,-5.8012,-5.6771,-5.6598,-5.5736,-5.4494,-5.4494,-5.4463,-5.4399,-5.4271,-5.4271,-5.4335,0.0,0.0,0.0,0.0,0.0,0.0,0.0,0.0,0.0,0.0,0.0,0.0,0.0,0.0,0.0,0.0,0.0,0.0,0.0,-4.3229,-4.3907,-4.3703,-4.488,-4.615,-4.7423,-4.7475,-4.8492,-5.0568,-5.3129,-5.4406,-5.4406,-5.1775,-4.9466,-4.7434,-4.5403,-4.4517,-4.4486,-4.4486,-4.4486,-4.4548,-4.4486,0.0,0.0,0.0,0.0,0.0,0.0,0.0,0.0,0.0,0.0,0.0,0.0,0.0,-4.4955,-4.648,-4.6375,-4.6255,-4.8428,-4.9028,-4.916,-4.9909,-4.9593,-4.9593,-5.1623,-5.1522,-5.1488,-5.2942,-5.2638,-5.2097,-5.2131,-5.3348,-5.5414,-5.8647,-6.1061,-6.3859,-6.7612,0.0,-6.9054,-7.1345,-7.1276,0.0,0.0,0.0,0.0,0.0,0.0,0.0,-6.5774,-6.5107,-6.4117,-6.2703,-6.253,-6.1806,-6.0358,-6.0254,-6.0185,-6.0185,-5.9461,-5.9081,-5.9012,-5.9012,-5.9012,-5.8978,-5.8288,-5.7529,-5.6736,-5.6012,-5.5219,-5.4494,-5.4494,-5.4367,-5.4239,-5.4207,-5.4143,-5.4013,0.0,0.0,0.0,0.0,0.0,0.0,0.0,0.0,0.0,0.0,0.0,-3.9373,-3.9373,0.0,0.0,0.0,0.0,0.0,0.0,-4.3419,-4.4319,-4.4626,-4.4872,-4.5803,-4.7558,-4.9281,-5.1159,-5.3221,-5.4637,-5.4914,-5.3976,-5.0882,-4.8758,-4.7527,-4.5926,-4.5434,-4.5834,-4.5834,-4.5588,-4.5218,-4.5218,-4.5064,0.0,0.0,0.0,0.0,0.0,0.0,0.0,0.0,-4.4582,-4.503,-4.503,-4.4805,-4.4799,-4.5805,-4.6269,-4.6652,-4.7968,-4.8992,-4.9749,-5.0038,-4.9898,-5.0135,-5.1894,-5.2469,-5.3213,-5.5141,-5.531,-5.4972,-5.4499,-5.5649,-5.7647,-6.0736,-6.3634,-6.6337,-6.8769,-6.9484,-6.98,-6.9901,0.0,0.0,0.0,0.0,0.0,0.0,0.0,0.0,-6.4722,-6.4126,-6.338,-6.2348,-6.1385,-6.0665,-6.0185,-5.9633,-5.9392,-5.9461,-5.915,-5.9012,-5.8978,-5.853,-5.8323,-5.8288,-5.7529,-5.6771,-5.6046,-5.5736,-5.5184,-5.4463,-5.4367,-5.4271,-5.4175,-5.398,-5.3948,-5.398,0.0,0.0,0.0,0.0,0.0,0.0,0.0,0.0,-3.9373,0.0,0.0,0.0,0.0,-3.9553,0.0,0.0,0.0,0.0,-4.2585,-4.3655,-4.4427,-4.4749,-4.4834,-4.5702,-4.7476,-5.0254,-5.2606,-5.4375,-5.5499,-5.513,-5.3345,-5.0359,-4.8573,-4.7865,-4.6296,-4.608,-4.6911,-4.6696,-4.6326,-4.5895,-4.5895,-4.5895,0.0,0.0,0.0,0.0,0.0,0.0,0.0,0.0,-4.461,-4.461,-4.461,-4.461,-4.4685,-4.5216,-4.5697,-4.6308,-4.7272,-4.8299,-4.9187,-4.9634,-4.9932,-5.0744,-5.3179,-5.3991,-5.504,-5.7949,-5.8017,-5.734,-5.6833,-5.7374,-5.8863,-6.1907,-6.5006,-6.7709,-6.9406,-6.9916,-6.9823,0.0,0.0,0.0,0.0,0.0,0.0,0.0,0.0,0.0,0.0,-6.3144,-6.2401,-6.1444,-6.0381,-5.9731,-5.9666,-5.9045,-5.8771,-5.8944,-5.8944,-5.8944,-5.8978,-5.8186,-5.7808,-5.7773,-5.6775,-5.6052,-5.5501,-5.5324,-5.4977,-5.4463,-5.4271,-5.4175,-5.411,-5.3816,-5.375,-5.385,0.0,0.0,0.0,0.0,0.0,0.0,0.0,0.0,-3.9373,-3.9409,-3.9409,0.0,0.0,0.0,0.0,0.0,0.0,0.0,-4.3264,-4.3937,-4.4105,-4.3655,-4.4849,-4.6124,-4.7272,-5.0181,-5.2329,-5.3745,-5.5745,-5.5345,-5.2637,-5.0605,-4.9281,-4.8512,-4.6511,-4.6357,-4.7588,-4.6911,-4.6603,-4.6603,-4.6603,-4.6603,-4.6542,0.0,0.0,0.0,0.0,0.0,0.0,0.0,-4.461,-4.461,-4.461,-4.461,-4.4641,-4.461,-4.461,-4.4949,-4.6378,-4.6828,-4.7169,-4.8642,-4.956,-5.1285,-5.5818,-5.6258,-5.7002,-6.1501,-6.0622,-5.9066,-5.9066,-5.8457,-5.893,-6.1941,-6.4884,-6.7624,-6.9857,-6.9553,0.0,0.0,0.0,0.0,0.0,0.0,0.0,0.0,0.0,0.0,0.0,-6.2169,-6.1189,-5.9652,-5.9583,-5.9242,-5.849,-5.849,-5.8596,-5.8771,-5.8771,-5.8875,-5.8978,-5.8084,-5.7672,-5.7569,-5.6059,-5.5407,-5.5338,-5.4743,-5.4494,-5.4463,-5.4271,-5.411,-5.398,-5.3783,-5.3584,-5.3518,0.0,0.0,0.0,0.0,0.0,0.0,0.0,0.0,-3.9661,-3.9798,-3.9696,0.0,0.0,0.0,0.0,0.0,0.0,0.0,-4.3482,-4.4127,-4.4441,-4.4332,-4.4664,-4.5064,-4.5387,-4.764,-5.0667,-5.4375,-5.4083,-5.276,-5.0543,-4.8974,-4.8358,-4.8573,-4.7989,-4.8204,-4.9035,-4.8327,-4.8019,-4.7989,-4.7496,-4.7588,-4.7835,0.0,0.0,0.0,0.0,0.0,0.0,0.0,0.0,0.0,-4.461,-4.491,-4.5187,-4.4764,-4.5297,-4.607,-4.604,-4.7184,-4.8463,-4.8895,-5.0758,-5.3518,-5.7476,-5.7374,-5.7915,-6.2922,-6.3396,-6.2618,-6.1569,-6.2042,-6.2888,-6.3802,-6.6,-6.7996,-6.9248,-6.9248,0.0,0.0,0.0,0.0,0.0,0.0,0.0,0.0,0.0,0.0,0.0,-6.0649,-5.9842,-5.94,-5.8891,-5.8588,-5.849,-5.8384,-5.8111,-5.7843,-5.7843,-5.7947,-5.8219,-5.7259,-5.6574,-5.6024,-5.4898,-5.442,-5.442,-5.4342,-5.4367,-5.4463,-5.4175,-5.4045,-5.3948,-5.3685,-5.3517,-5.3518,0.0,0.0,0.0,0.0,0.0,0.0,-3.9696,-3.9661,-3.9625,-3.9762,-3.9732,-3.9768,0.0,0.0,0.0,0.0,0.0,0.0,-4.3925,-4.4394,-4.461,-4.461,-4.461,-4.4941,-4.5772,-4.7415,-4.9597,-5.2298,-5.1775,-5.0728,-4.9251,-4.8974,-4.9189,-4.9835,-5.0112,-5.0328,-5.0451,-5.002,-4.9374,-4.8604,-4.8481,-4.8512,-4.845,0.0,0.0,0.0,0.0,0.0,0.0,0.0,0.0,0.0,-4.461,-4.4887,-4.5095,-4.4733,-4.5191,-4.5828,-4.575,-4.7103,-4.8688,-4.9177,-5.166,-5.5006,-5.8998,-6.0825,-6.2651,-6.6102,-6.6102,-6.5121,-6.3937,-6.37,0.0,-6.414,-6.5527,-6.6948,-6.8064,0.0,0.0,0.0,0.0,0.0,0.0,0.0,0.0,0.0,0.0,0.0,0.0,-5.9617,-5.9044,-5.8776,-5.83,-5.8135,-5.8277,-5.7863,-5.7525,-5.7292,-5.6985,-5.6816,-5.6778,-5.6131,-5.5619,-5.5174,-5.4256,-5.3915,-5.4013,-5.4078,-5.4175,-5.4271,-5.398,-5.3882,-5.3849,-5.3584,-5.3518,-5.3518,0.0,0.0,-3.9732,-3.9768,0.0,0.0,-3.9481,-3.9481,-3.9481,-3.9481,-3.9721,-3.9899,0.0,0.0,0.0,-4.2473,0.0,0.0,0.0,-4.461,-4.4641,-4.4702,-4.4764,-4.5618,-4.7465,-4.8519,-4.8856,-4.8419,-4.922,-4.922,-4.8543,-5.0082,-5.1159,-5.1836,-5.2513,-5.2421,-5.1775,-5.159,-5.042,-4.8758,-4.9343,-4.922,-4.8635,-4.7804,0.0,0.0,0.0,0.0,0.0,0.0,0.0,0.0,-4.461,-4.4641,-4.4702,-4.4641,-4.4641,-4.4823,-4.5437,-4.6742,-4.8178,-4.9489,-5.2458,-5.6248,-6.0752,-6.5553,-6.9161,-6.9857,-6.8436,-6.6846,-6.5967,-6.4275,-6.3125,-6.3565,-6.4275,-6.5256,-6.6542,0.0,0.0,0.0,0.0,0.0,0.0,0.0,0.0,0.0,0.0,0.0,0.0,-5.893,-5.8524,-5.7712,-5.7746,-5.7746,-5.7679,-5.7036,-5.6735,-5.6844,-5.6199,-5.5553,-5.4972,-5.494,-5.4839,-5.4737,-5.399,-5.3783,-5.398,-5.398,-5.398,-5.398,-5.3783,-5.3717,-5.3684,-5.3551,-5.3518,-5.3518,0.0,0.0,-4.0011,-4.0121,0.0,0.0,-4.0226,-4.0156,-4.0121,-4.0261,-4.0685,-4.0807,-4.0427,-4.1626,0.0,-4.2596,-4.3407,0.0,0.0,-4.461,-4.4818,-4.5341,-4.5865,-4.6357,-4.6819,-4.7056,-4.7148,-4.7034,-4.8235,-4.8512,-4.7865,-5.0328,-5.1836,-5.2513,-5.3221,-5.3129,-5.239,-5.079,-4.9866,-4.9435,-4.9004,-4.9097,-4.9251,-4.7496,-4.7065,0.0,0.0,0.0,0.0,0.0,0.0,0.0,-4.461,-4.4941,-4.528,-4.4764,-4.4941,-4.5287,-4.4922,-4.6241,-4.8104,-4.9501,-5.4237,-5.9778,-6.4521,-6.6872,-6.8082,-6.834,-6.8977,-6.8876,-6.6914,-6.7151,-6.6948,-6.4715,-6.5493,-6.6237,0.0,0.0,0.0,0.0,0.0,0.0,0.0,0.0,0.0,0.0,0.0,0.0,-5.8186,-5.8118,-5.7543,-5.6224,-5.6731,-5.6765,-5.619,-5.6021,-5.5649,0.0,-5.4974,-5.4533,-5.3889,-5.4567,-5.45,-5.3788,-5.3619,-5.3651,-5.3783,-5.3783,-5.3849,-5.398,-5.3783,-5.3717,-5.3684,-5.3551,-5.3518,-5.3518,0.0,0.0,0.0,0.0,0.0,0.0,0.0,0.0,-4.0156,-4.0261,-4.0567,-4.0729,-4.0431,-4.1551,0.0,0.0,-4.3451,0.0,0.0,0.0,-4.4918,-4.5557,-4.6234,-4.6757,-4.7065,-4.6757,-4.6757,-4.7065,-4.7465,-4.7804,-4.8142,-5.0574,-5.2082,-5.276,-5.3775,-5.3468,-5.2144,-5.1097,-5.0082,-4.9158,-4.9127,-4.9158,-4.9066,-4.7989,-4.7373,-4.7034,-4.6296,0.0,0.0,0.0,0.0,0.0,0.0,0.0,-4.5033,-4.4702,-4.4856,-4.5033,-4.4664,-4.614,-4.8529,-5.1694,-5.6231,-6.089,-6.4314,-6.5857,-6.6746,-6.7285,-6.8605,-6.8876,-6.6237,-6.6406,-6.6203,-6.3903,-6.4174,-6.4444,0.0,0.0,0.0,0.0,0.0,0.0,0.0,0.0,0.0,0.0,0.0,-5.8152,-5.7408,-5.7036,-5.6664,-5.6258,-5.6258,-5.6089,-5.5681,-5.5344,-5.4972,-5.46,-5.4228,-5.3856,-5.3518,-5.3991,-5.3957,-5.3518,-5.3518,-5.3517,-5.3618,-5.3618,-5.3685,-5.3751,-5.3651,-5.3618,-5.3618,-5.3551,-5.3518,-5.3518,0.0,0.0,0.0,0.0,0.0,0.0,0.0,0.0,0.0,-4.0269,-4.0532,-4.0637,-4.0546,-4.1357,-4.2073,0.0,0.0,0.0,0.0,0.0,0.0,-4.5741,-4.6419,-4.7096,-4.7773,-4.7127,-4.7096,-4.7773,-4.7096,-4.7711,-4.9528,-5.1251,-5.2421,-5.3098,-5.4191,-5.3683,-5.1867,-5.1498,-5.0297,-4.8666,-4.9251,-4.9158,-4.8573,-4.8358,-4.765,-4.6788,-4.7004,-4.608,-4.4856,-4.5249,0.0,0.0,0.0,0.0,-4.461,-4.461,-4.4517,-4.4456,-4.4579,-4.622,-4.9085,-5.3873,-5.7292,-6.0024,-6.2235,-6.3661,-6.4807,-6.5816,-6.737,-6.7692,-6.5087,-6.4512,-6.3937,-6.2448,-6.2212,0.0,0.0,0.0,0.0,0.0,0.0,0.0,0.0,0.0,0.0,0.0,0.0,-5.7205,-5.6461,-5.5987,-5.5886,-5.6224,-5.5784,-5.548,-5.5309,-5.4735,-5.4397,-5.4397,-5.3788,-5.3518,-5.3518,-5.3518,-5.3518,-5.3518,-5.3518,-5.3518,-5.3518,-5.3518,-5.3518,-5.3518,-5.3518,-5.3518,-5.3518,-5.3518,-5.3518,-5.3518,0.0,0.0,0.0,0.0,0.0,0.0,0.0,0.0,0.0,0.0,-4.195,-4.2073,-4.1489,-4.2425,-4.2941,-4.2627,-4.3039,-4.3714,-4.4541,0.0,0.0,-4.6419,-4.7127,-4.7773,-4.845,-4.7804,-4.7804,-4.8481,-4.7804,-4.9374,-5.3037,-5.3268,-5.3806,-5.4406,-5.4591,-5.3929,-5.2452,-5.0697,-4.9435,-4.8635,-4.8727,-4.8696,-4.8481,-4.7311,-4.7127,-4.725,-4.5588,-4.5187,-4.5372,-4.4918,-4.4702,0.0,0.0,0.0,-4.461,-4.461,-4.4209,-4.387,-4.4456,-4.6498,-4.9419,-5.3292,-5.488,-5.6481,-6.0231,-6.1082,-6.1377,-6.26,-6.4598,-6.5831,-6.4783,-6.4106,-6.3159,-6.1704,-6.1467,0.0,0.0,0.0,0.0,0.0,0.0,0.0,0.0,0.0,0.0,0.0,-5.5953,-5.5683,-5.4938,-5.5412,-5.5175,-5.3991,-5.4465,-5.4431,-5.3822,-5.3687,-5.3653,-5.3653,-5.3551,-5.3518,-5.3518,-5.3518,-5.3518,-5.3518,-5.3518,-5.3518,-5.3518,-5.3518,-5.3518,-5.3518,-5.3518,-5.3518,-5.3518,-5.3518,-5.3518,-5.3518,0.0,0.0,0.0,0.0,0.0,0.0,0.0,0.0,0.0,0.0,0.0,-4.2509,-4.2202,-4.2928,-4.3389,-4.3187,-4.3666,-4.4188,-4.4541,-4.4887,-4.5495,-4.6542,-4.6511,-4.6973,-4.8019,-4.7004,-4.7004,-4.805,-4.7004,-4.9158,-5.4252,-5.4252,-5.5068,-5.6392,-5.5575,-5.4283,-5.2575,-5.0543,-4.9281,-4.8604,-4.8604,-4.885,-4.9097,-4.8112,-4.7896,-4.8019,-4.6726,-4.5988,-4.5526,-4.5249,-4.488,-4.461,-4.461,0.0,0.0,0.0,-4.4148,-4.3747,-4.4425,-4.5988,-4.8173,-5.0943,-5.2608,-5.4309,-5.7013,-5.7796,-5.83,-5.9337,-6.0763,-6.2032,-6.264,-6.211,-6.14,-6.0723,0.0,0.0,0.0,0.0,0.0,0.0,0.0,0.0,0.0,0.0,0.0,0.0,-5.5074,-5.4938,-5.46,-5.4532,-5.4363,-5.4126,-5.4025,-5.3822,-5.3518,-5.3044,-5.2841,-5.2841,-5.3281,-5.3518,-5.3518,-5.3518,-5.3518,-5.3518,-5.3518,-5.3518,-5.3518,-5.3518,-5.3518,-5.3518,-5.3518,-5.3518,-5.3518,-5.3518,-5.3518,-5.3518,0.0,0.0,0.0,0.0,0.0,0.0,0.0,0.0,0.0,0.0,0.0,-4.2848,-4.2848,0.0,0.0,0.0,-4.4086,-4.4425,-4.461,-4.461,-4.5095,-4.6296,-4.6018,-4.6388,-4.7507,-4.641,-4.6379,-4.7538,-4.6379,-4.9066,-5.5253,-5.5438,-5.7038,-5.9747,-5.7685,-5.5513,-5.3345,-5.1313,-5.0236,-4.9866,-4.9158,-4.922,-4.962,-4.8881,-4.8727,-4.8758,-4.7711,-4.6819,-4.608,-4.5895,-4.5403,-4.4856,-4.4856,-4.4764,0.0,0.0,0.0,-4.3901,-4.4018,-4.5187,-4.6757,-4.8481,-5.0451,-5.229,-5.3702,-5.4618,-5.5449,0.0,-5.6897,-5.7825,-5.9554,-5.9831,-5.9776,-5.9573,0.0,0.0,0.0,0.0,0.0,0.0,0.0,0.0,0.0,0.0,0.0,0.0,-5.4329,-5.4329,-5.4329,-5.3788,-5.3754,-5.4296,-5.3788,-5.3416,-5.3213,-5.2604,-5.23,-5.23,-5.3112,-5.3518,-5.3518,-5.3518,-5.3518,-5.3518,-5.3518,-5.3518,-5.3518,-5.3518,-5.3518,-5.3518,-5.3518,-5.3518,-5.3518,-5.3518,-5.3518,-5.3518,0.0,0.0,0.0,0.0,0.0,0.0,0.0,0.0,0.0,0.0,0.0,0.0,-4.3562,-4.3593,-4.3593,-4.3593,-4.3624,-4.3932,-4.4579,-4.461,-4.488,-4.5618,-4.6234,0.0,-4.7303,-4.6791,-4.68,-4.7334,-4.68,-5.002,-5.6717,-5.7364,-6.0424,-6.5319,-6.1348,-5.8085,-5.539,-5.3406,-5.2914,-5.3221,-5.0667,-4.9651,-4.962,-4.8881,-4.9035,-4.9374,-4.7373,-4.7004,-4.7404,-4.6757,-4.608,-4.5526,-4.5526,-4.5095,-4.461,0.0,0.0,0.0,-4.3033,-4.4141,-4.5803,-4.6573,-4.8296,-5.0063,-5.0784,-5.1955,-5.2962,-5.3281,-5.3333,-5.3839,-5.56,-5.7637,-5.8829,-5.8118,0.0,0.0,0.0,0.0,0.0,0.0,0.0,0.0,0.0,0.0,0.0,0.0,-5.3551,-5.3551,-5.3551,-5.3518,-5.3518,-5.3551,-5.3518,-5.3145,-5.2367,-5.2334,-5.23,-5.23,-5.3112,-5.3518,-5.3518,-5.3518,-5.3518,-5.3518,-5.3518,-5.3518,-5.3518,-5.3518,-5.3518,-5.3518,-5.3518,-5.3518,-5.3518,-5.3518,-5.3518,-5.3518,0.0,0.0,0.0,0.0,0.0,0.0,0.0,0.0,0.0,0.0,0.0,0.0,0.0,-4.424,-4.424,-4.424,-4.424,-4.4363,-4.461,-4.461,-4.5064,-4.6172,-4.6049,-4.6441,-4.7466,-4.6471,-4.6256,-4.6852,-4.6256,-4.8758,-5.4206,-5.6255,-5.8689,-6.1286,-6.024,-5.9008,-5.7438,-5.3683,-5.1959,-5.1652,-5.0266,-4.9959,-5.0205,-4.9066,-4.9343,-5.0051,-4.7989,-4.7404,-4.7496,-4.6819,-4.6142,-4.5588,-4.5588,-4.5126,-4.4517,-4.4086,-4.3963,-4.387,-4.334,-4.3433,-4.4048,-4.5557,-4.6511,-4.7342,-4.845,-4.9774,-5.0827,-5.0889,-5.2099,-5.3286,-5.3916,-5.518,-5.6188,0.0,0.0,0.0,0.0,0.0,0.0,0.0,0.0,0.0,0.0,0.0,0.0,0.0,0.0,-5.3078,-5.2097,-5.2469,-5.2503,-5.2063,-5.2029,-5.1657,-5.0879,-5.1352,-5.1352,-5.0879,-5.2131,-5.2503,-5.2063,-5.3044,-5.3213,-5.2773,-5.3281,-5.3518,-5.3518,-5.3518,-5.3518,-5.3518,-5.3518,-5.3518,-5.3518,-5.3518,-5.3518,-5.3518,0.0,0.0,0.0,-4.461,0.0,-4.294,-4.294,-4.254,-4.2417,-4.2879,0.0,0.0,0.0,0.0,-4.461,-4.461,-4.461,-4.461,-4.461,-4.461,-4.4972,-4.5865,-4.5926,-4.6318,-4.7129,-4.6348,-4.6102,-4.6524,-4.5887,-4.7927,-5.2421,-5.4668,-5.7069,-5.9439,-5.8731,-5.9039,-5.987,-5.6053,-5.4145,-5.356,-5.1528,-5.1251,-5.1929,-5.0759,-5.119,-5.2144,-5.0297,-4.9374,-4.885,-4.7927,-4.7034,-4.6234,-4.5988,-4.5311,-4.4517,-4.4086,-4.3963,-4.3901,-4.3655,-4.3248,-4.331,-4.4849,-4.5095,-4.5249,-4.6603,-4.765,-4.8296,-4.8296,-4.977,-5.1165,-5.1635,-5.224,-5.3202,0.0,0.0,0.0,0.0,0.0,0.0,0.0,0.0,0.0,0.0,0.0,0.0,0.0,0.0,0.0,-5.1219,-5.1657,-5.1725,-5.1219,-5.098,-5.0608,-5.0101,-5.0574,-5.0574,-5.0101,-5.1352,-5.1826,-5.1623,-5.2638,-5.2942,-5.2739,-5.3281,-5.3518,-5.3518,-5.3518,-5.3518,-5.3518,-5.3518,-5.3518,-5.3518,-5.3518,-5.3518,-5.3518,-4.461,-4.461,-4.461,-4.461,-4.4055,-4.3593,-4.3593,-4.3593,-4.3593,-4.3593,0.0,0.0,0.0,0.0,0.0,-4.4702,-4.4702,-4.4702,-4.4603,-4.4641,-4.4641,-4.4671,-4.5895,-4.6555,-4.6385,-4.6555,-4.6524,-4.6324,-4.5848,-4.765,-5.1621,-5.3006,-5.6146,-6.0455,-5.7192,-5.8331,-6.2517,-6.0393,-5.9593,-5.9285,-5.4576,-5.3529,-5.4621,-5.3929,-5.4483,-5.5468,-5.4145,-5.2821,-5.1528,-5.0174,-4.882,-4.7558,-4.6819,-4.568,-4.4641,-4.461,-4.461,-4.4486,0.0,0.0,0.0,-4.4425,-4.4055,-4.3901,-4.5187,-4.5526,-4.5526,-4.5557,-4.6119,-4.7092,-4.8574,-4.8864,-5.0118,0.0,0.0,0.0,0.0,0.0,0.0,0.0,0.0,0.0,0.0,0.0,0.0,0.0,-5.1217,-5.1151,-5.115,-5.115,-5.115,-5.115,-5.0439,-5.0067,-5.0067,-5.0067,-5.0067,-5.0067,-5.0845,-5.1555,-5.2232,-5.2266,-5.2739,-5.3484,-5.3484,-5.3518,-5.3518,-5.3518,-5.3518,-5.3518,-5.3518,-5.3518,-5.3518,-5.3518,-5.3518,-5.3518,-4.461,-4.461,-4.461,-4.461,-4.4055,-4.3593,-4.3593,-4.3187,-4.3033,0.0,0.0,0.0,-4.5249,-4.6172,-4.6757,-4.6757,-4.6757,-4.6357,-4.5372,-4.5311,-4.5526,-4.6018,-4.6388,-4.7025,-4.7968,-4.7548,-4.7056,-4.6524,-4.6379,-4.7157,-4.8789,-5.1159,-5.3468,-5.5715,-5.673,-5.7654,-5.8208,-5.4699,-5.4914,-5.7333,-5.3498,-5.3375,-5.5191,-5.3067,-5.3098,-5.4083,-5.2729,-5.2329,-5.2236,-5.0882,-5.0143,-4.9466,-4.7281,-4.5988,-4.5218,-4.4764,-4.461,-4.4579,-4.4394,0.0,0.0,0.0,0.0,0.0,-4.3217,-4.3802,-4.4302,-4.4795,-4.5877,-4.7,-4.7956,-4.8574,-4.9485,0.0,0.0,0.0,0.0,0.0,0.0,0.0,0.0,0.0,0.0,0.0,0.0,0.0,-5.0913,-5.0744,-4.9661,-4.9627,-4.9627,-4.9627,-4.9424,-4.9289,-4.9289,-4.9289,-4.9289,-4.9323,-5.0033,-5.0507,-5.0744,-5.1792,-5.2435,-5.2672,-5.3247,-5.3518,-5.3518,-5.3518,-5.3518,-5.3518,-5.3518,-5.3518,-5.3518,-5.3518,-5.3518,-5.3518,-4.4671,-4.4856,-4.5041,-4.5041,-4.4664,-4.4456,-4.4456,-4.4326,-4.4295,0.0,0.0,0.0,-4.6357,-4.7896,-4.8666,-4.8081,-4.7773,-4.7281,-4.648,-4.6172,-4.6172,-4.6573,-4.688,-4.7373,-4.8173,-4.7804,-4.7404,-4.7004,-4.6726,-4.6942,-4.765,-4.9528,-5.1159,-5.2513,-5.3498,-5.436,-5.4822,-5.1005,-5.2267,-5.6656,-5.4914,-5.5499,-5.7254,-5.5992,-5.6176,-5.6946,-5.5899,-5.5407,-5.4914,-5.2698,-5.1221,-4.9835,-4.7373,-4.6511,-4.6172,-4.4941,-4.4825,-4.4979,-4.4702,-4.3802,-4.3248,-4.4209,0.0,0.0,-4.2786,-4.2879,-4.2884,-4.3248,-4.4241,-4.5243,-4.595,-4.6446,-4.7109,0.0,0.0,0.0,0.0,0.0,0.0,0.0,0.0,0.0,0.0,-5.0304,-5.0101,-4.9661,-5.0033,-4.9932,-4.9052,-4.9018,-4.9018,-4.9018,-4.9018,-4.9018,-4.9018,-4.9018,-4.9018,-4.9018,-4.9729,-5.0236,-5.0608,-5.1758,-5.2469,-5.2841,-5.3315,-5.3518,-5.3518,-5.3518,-5.3518,-5.3518,-5.3518,-5.3518,-5.3518,-5.3518,-5.3518,-5.3518,0.0,-4.5126,-4.5618,-4.568,-4.5772,-4.5834,-4.5926,-4.6357,-4.6542,0.0,-4.6757,-4.7588,-4.8419,-5.002,-5.0543,-4.9281,-4.8419,-4.7896,-4.7742,-4.7096,-4.6696,-4.6696,-4.7342,-4.7711,-4.7711,-4.7804,-4.7773,-4.7619,-4.7004,-4.7004,-4.7619,-4.8235,-4.922,-5.042,-4.9251,-5.0051,-5.2082,-4.9404,-5.1344,-5.6317,-5.7148,-5.8423,-5.9963,-6.0486,-6.1101,-6.1594,-6.0917,-5.9901,-5.8393,-5.5068,-5.2082,-4.9466,-4.7558,-4.7188,-4.7127,-4.5341,-4.5187,-4.5464,-4.4941,-4.4332,-4.4086,-4.5187,-4.3679,0.0,-4.3162,-4.2509,-4.1709,-4.1709,-4.2202,-4.285,-4.3623,-4.3794,-4.4196,0.0,0.0,0.0,0.0,0.0,0.0,0.0,0.0,0.0,-4.9052,-4.9018,-4.9018,-4.9018,-4.9018,-4.9018,-4.9018,-4.9018,-4.9018,-4.9018,-4.9018,-4.9018,-4.9018,-4.9018,-4.9018,-4.9018,-4.9729,-5.0439,-5.1116,-5.1928,-5.2706,-5.3382,-5.345,-5.3518,-5.3518,-5.3518,-5.3518,-5.3518,-5.3518,-5.3518,-5.3518,-5.3518,-5.3518,-5.3518,-4.4641,-4.5126,-4.5772,-4.6296,-4.685,-4.7404,-4.7927,-4.7681,-4.7773,-4.8758,-5.042,-5.2175,-5.3929,-5.3529,-5.3006,-5.276,-5.1128,-4.962,-4.8481,-4.7773,-4.7404,-4.7404,-4.805,-4.8419,-4.8419,-4.8974,-4.8727,-4.7619,-4.7465,-4.7465,-4.7619,-4.7742,-4.8235,-4.9035,-4.9343,-4.9466,-4.9558,-5.1652,-5.2575,-5.2852,-5.4607,-5.7438,-6.0547,-6.0147,-6.0393,-6.0917,-6.024,-5.9809,-5.9162,-5.6269,-5.316,-5.0328,-4.9374,-4.8019,-4.6726,-4.6326,-4.5926,-4.568,-4.608,-4.5711,-4.5126,0.0,-4.4425,0.0,-4.2294,-4.2202,-4.2417,-4.2417,-4.2509,-4.2977,-4.4211,-4.4434,-4.4538,0.0,0.0,0.0,0.0,0.0,0.0,0.0,0.0,0.0,-4.9018,-4.9018,-4.9018,-4.9018,-4.9018,-4.9018,-4.9018,-4.9018,-4.9018,-4.9018,-4.9018,-4.9018,-4.9018,-4.9018,-4.9018,-4.9018,-4.9729,-5.0168,-5.0338,-5.1691,-5.2401,-5.257,-5.3213,-5.3518,-5.3518,-5.3518,-5.3518,-5.3518,-5.3518,-5.3518,-5.3518,-5.3518,-5.3518,-5.3518,-4.5157,-4.5895,-4.6819,-4.7496,-4.8173,-4.8974,-4.9989,-5.0143,-5.0513,-5.1559,-5.3775,-5.5345,-5.5653,-5.5407,-5.4822,-5.3806,-5.2175,-5.0759,-4.9712,-4.9035,-4.8481,-4.8112,-4.8419,-4.8789,-4.9127,-4.9158,-4.8974,-4.8635,-4.8296,-4.8112,-4.8112,-4.8112,-4.8296,-4.8604,-4.8635,-4.8635,-4.8727,-5.0451,-5.1374,-5.2052,-5.6115,-5.8762,-6.0455,-6.1809,-6.2548,-6.2764,-6.2056,-6.0732,-5.8916,-5.6515,-5.436,0.0,-4.9497,-4.8881,-4.882,0.0,-4.6603,-4.6603,0.0,0.0,0.0,-4.568,0.0,0.0,0.0,-4.2571,-4.2202,-4.254,-4.2048,-4.1894,-4.291,0.0,-4.3241,0.0,0.0,0.0,0.0,0.0,0.0,0.0,0.0,0.0,-4.8951,-4.9018,-4.9018,-4.9018,-4.9018,-4.9018,-4.9018,-4.9018,-4.9018,-4.9018,-4.9018,-4.9018,-4.9018,-4.9018,-4.9018,-4.9018,-4.9729,-5.027,-5.0676,-5.1792,-5.2536,-5.2909,-5.3315,-5.3518,-5.3518,-5.3518,-5.3518,-5.3518,-5.3518,-5.3518,-5.3518,-5.3518,-5.3518,-5.3518,-4.5526,-4.648,-4.7619,-4.8296,-4.922,-5.0297,-5.1498,-5.2175,-5.2914,-5.396,-5.6238,-5.7487,-5.6577,-5.6563,-5.6053,-5.4791,-5.2852,-5.1621,-5.1467,-5.0359,-4.9435,-4.885,-4.882,-4.9035,-4.9466,-4.9035,-4.9035,-4.9497,-4.8881,-4.8604,-4.8604,-4.8604,-4.8696,-4.8789,-4.8112,-4.8389,-4.9404,-4.9251,-5.0482,-5.2944,-5.827,-5.9932,-5.9562,-6.301,-6.4303,-6.4241,-6.3779,-6.1779,-5.9039,-5.6823,-5.5561,-5.4206,-5.0082,-4.9959,0.0,0.0,0.0,0.0,0.0,0.0,0.0,0.0,0.0,-4.5403,0.0,0.0,0.0,0.0,0.0,0.0,0.0,0.0,0.0,0.0,0.0,0.0,0.0,0.0,0.0,0.0,0.0,0.0,0.0,-4.9018,-4.9018,-4.9018,-4.9018,-4.9018,-4.9018,-4.9018,-4.9018,-4.9018,-4.9018,-4.9018,-4.9018,-4.9018,-4.9018,-4.9018,-4.9729,-5.0405,-5.1014,-5.1894,-5.2672,-5.3281,-5.345,-5.3518,-5.3518,-5.3518,-5.3518,-5.3518,-5.3518,-5.3518,-5.3518,-5.3518,-5.3518,-5.3518,-4.4856,-4.5772,-4.6942,-4.7619,-4.9312,-5.082,-5.159,-5.1775,-5.2698,-5.5161,-5.6823,-5.8177,-5.9224,-5.7223,-5.6453,-5.8054,-5.4206,-5.2421,-5.4099,-5.1374,-4.9651,-4.9558,-4.9558,-4.9312,-4.8758,-4.9281,-4.9281,-4.8727,-4.8666,-4.8604,-4.8604,-4.8604,-4.8943,-4.9528,-4.882,-4.9897,-5.2206,-5.1621,-5.2852,-5.5468,-5.7993,-5.8239,-5.7518,-6.0855,-6.2148,-6.224,-6.2733,-6.2302,-6.1071,0.0,-5.6669,-5.5284,0.0,-5.159,-5.0082,-5.0882,0.0,0.0,0.0,0.0,0.0,0.0,-4.8758,0.0,0.0,0.0,-4.4117,-4.3593,0.0,0.0,0.0,0.0,0.0,0.0,0.0,0.0,0.0,0.0,0.0,0.0,0.0,0.0,0.0,-4.9018,-4.9018,-4.9018,-4.9018,-4.9018,-4.9018,-4.9018,-4.9018,-4.9018,-4.9018,-4.9018,-4.9018,-4.9018,-4.9018,-4.9018,-4.9729,-5.0135,-5.027,-5.1657,-5.2367,-5.2469,-5.3179,-5.3518,-5.3518,-5.3518,-5.3518,-5.3518,-5.3518,-5.3518,-5.3518,-5.3518,-5.3518,-5.3518,-4.5218,-4.6265,-4.7404,-4.8081,-4.9251,-5.0605,-5.2082,-5.396,-5.5899,-5.7808,-5.8916,-6.0055,-6.1409,-5.9809,-5.8701,-5.8762,-5.6238,-5.4514,-5.4129,-5.2082,-5.1036,-5.1436,-5.0697,-5.0328,-5.042,-4.9928,-4.9528,-4.922,-4.882,-4.8604,-4.8604,-4.8604,-4.922,-5.0236,-4.9558,-5.0543,-5.2729,-5.2821,-5.3283,-5.4176,-5.6686,-5.7038,-5.6669,-6.1225,-6.2979,-6.2979,-6.2856,-6.2148,-6.0886,0.0,-5.7426,0.0,0.0,0.0,0.0,-5.0944,0.0,0.0,0.0,0.0,0.0,0.0,0.0,0.0,-4.6172,0.0,-4.4055,0.0,0.0,0.0,0.0,0.0,0.0,0.0,-4.3439,0.0,0.0,0.0,0.0,0.0,0.0,0.0,0.0,0.0,0.0,0.0,-4.9018,-4.9018,-4.9018,-4.9018,-4.9018,-4.9018,-4.9018,-4.9018,-4.9018,-4.9018,-4.9018,-4.9018,-4.9323,-4.9695,-5.0135,-5.1183,-5.1894,-5.2334,-5.3145,-5.3518,-5.3518,-5.3518,-5.3518,-5.3518,-5.3518,-5.3518,-5.3518,-5.3518,-5.3518,-5.3518,-4.5834,-4.6819,-4.7742,-4.8235,-4.9097,-5.0359,-5.239,-5.513,-5.75,-5.9039,-5.9655,-6.064,-6.2364,-6.1502,-6.0701,-6.0486,-5.9039,-5.7346,-5.5499,-5.3929,-5.2883,-5.2452,-5.1682,-5.1313,-5.1436,-5.0451,-4.9866,-4.9682,-4.8974,-4.882,-4.9189,-4.9004,-4.9743,-5.1221,-5.0944,-5.1929,-5.3868,-5.4545,-5.4976,-5.5345,-5.7161,-5.7808,-5.8035,-6.1656,-6.3225,-6.3472,-6.2794,-6.1902,-6.0794,-5.8947,-5.8258,0.0,-5.4145,0.0,-5.3883,0.0,0.0,0.0,-5.1097,0.0,0.0,0.0,0.0,0.0,0.0,0.0,0.0,0.0,0.0,0.0,0.0,0.0,0.0,0.0,0.0,-4.3593,0.0,0.0,0.0,0.0,0.0,0.0,0.0,0.0,0.0,0.0,0.0,-4.9018,-4.9018,-4.9018,-4.9018,-4.9018,-4.9018,-4.9018,-4.9018,-4.9018,-4.9018,-4.9018,-4.9018,-4.939,-5.0135,-5.0879,-5.1623,-5.2334,-5.3145,-5.3518,-5.3518,-5.3518,-5.3518,-5.3518,-5.3518,-5.3518,-5.3518,-5.3518,-5.3518,-5.3518,-4.6419,-4.7127,-4.7619,-4.7619,-4.8789,-5.0359,-5.239,-5.3899,-5.5561,-5.7611,-5.7919,-5.8885,-6.1563,-6.1225,-6.184,-6.4487,-6.2825,-6.1071,-5.9686,-5.7765,-5.5177,-5.1898,-5.2329,-5.2052,-5.0759,-5.0697,-5.0328,-4.9682,-4.8974,-4.9312,-5.0605,-4.9959,-5.0728,-5.2667,-5.3314,-5.473,-5.6717,-5.7395,-5.9131,-6.1471,-6.0886,-6.144,-6.2456,0.0,-6.1717,-6.2764,-6.2086,0.0,0.0,-6.0178,-5.9285,0.0,0.0,0.0,0.0,0.0,0.0,0.0,0.0,0.0,0.0,-5.1159,0.0,0.0,0.0,0.0,-4.7127,0.0,0.0,0.0,0.0,0.0,-4.5311,-4.4702,-4.4024,0.0,0.0,0.0,0.0,0.0,0.0,0.0,0.0,0.0,0.0,0.0,0.0,0.0,-4.9018,-4.9018,-4.9018,-4.9018,-4.9018,-4.9018,-4.9018,-4.9018,-4.9018,-4.9018,-4.9018,-4.939,-5.0135,-5.0879,-5.1623,-5.2334,-5.3145,-5.3518,-5.3518,-5.3518,-5.3518,-5.3518,-5.3518,-5.3518,-5.3518,-5.3518,-5.3518,-5.3518,-4.7896,-4.8512,-4.8696,-4.7773,-4.8758,-5.0667,-5.3591,-5.4791,-5.673,-6.0609,-6.1502,-6.3164,-6.6765,-6.695,-6.7196,-6.812,-6.5934,-6.3933,-6.2548,-6.0147,-5.8239,-5.71,-5.6854,-5.5869,-5.4052,-5.3991,-5.3037,-5.1005,-5.079,-5.0913,-5.1344,-5.0667,-5.1436,-5.3375,-5.3622,-5.4576,-5.6207,-5.8239,-5.8854,-5.8577,-5.9686,-6.1225,-6.2764,0.0,-6.2148,-6.2117,-6.1902,-6.1225,0.0,-5.9932,-5.9347,-5.8454,-5.6638,-5.5899,-5.5345,-5.3314,-5.2852,0.0,0.0,0.0,-5.279,-5.1652,0.0,0.0,0.0,0.0,0.0,0.0,0.0,0.0,0.0,0.0,-4.5526,-4.528,-4.4702,-4.3925,0.0,0.0,0.0,0.0,0.0,0.0,0.0,0.0,0.0,0.0,0.0,0.0,0.0,-4.8748,-4.9018,-4.9018,-4.9018,-4.9018,-4.9018,-4.9018,-4.9255,-4.9729,-4.9729,-5.0101,-5.0845,-5.1589,-5.2063,-5.2334,-5.3145,-5.3518,-5.3518,-5.3518,-5.3518,-5.3518,-5.3518,-5.3518,-5.3518,-5.3518,-5.3518,-5.3518,-4.9343,-4.9528,-4.9404,-4.8512,-4.9497,-5.1313,-5.3914,-5.5961,-5.8516,-6.2302,-6.4057,-6.6211,-6.9536,-7.012,-7.0244,-7.0244,-6.892,-6.6981,-6.4364,-6.3041,-6.1471,-5.9501,-5.9255,-5.8054,-5.5745,-5.593,-5.476,-5.2052,-5.2544,-5.279,-5.276,-5.1836,-5.2359,-5.4068,-5.4853,-5.5222,-5.5592,-5.9562,-6.0055,-5.8362,-6.0393,-6.1717,0.0,0.0,-6.2333,-6.2086,0.0,-6.0886,-6.0116,-5.987,-5.9347,-5.8516,-5.6915,-5.6392,-5.5961,-5.3714,-5.356,-5.3853,-5.2975,-5.2883,0.0,-5.2236,-5.1221,0.0,-4.8666,0.0,0.0,0.0,0.0,0.0,0.0,0.0,0.0,-4.5741,-4.5218,-4.4295,0.0,-4.1463,0.0,0.0,0.0,0.0,0.0,0.0,0.0,0.0,0.0,0.0,0.0,0.0,-4.9018,-4.9018,-4.9018,-4.912,-4.939,-4.912,-4.9492,-5.0473,-5.0236,-5.0473,-5.1251,-5.1961,-5.23,-5.2334,-5.3145,-5.3518,-5.3518,-5.3518,-5.3518,-5.3518,-5.3518,-5.3518,-5.3518,-5.3518,-5.3518,-5.3518,-5.0759,-5.0266,-4.9835,-4.9835,-5.0882,-5.2206,-5.3652,-5.7223,-6.0517,-6.2671,-6.538,-6.7873,-6.9936,-7.0705,-7.1136,-7.1167,-7.169,-7.012,-6.5596,-6.6396,-6.4703,-5.9408,-5.9747,-5.8762,-5.5992,0.0,0.0,0.0,-5.4237,-5.4775,-5.4745,-5.3437,-5.3468,-5.4714,-5.6854,-5.6638,-5.5021,-6.1101,-6.2579,-6.0978,-6.2887,-6.2948,-6.184,-6.1748,-6.2148,-6.2579,-6.1286,-6.0763,-6.0609,-5.9963,-5.9285,-5.8608,-5.798,-5.6823,-5.5499,-5.4206,-5.4191,-5.4345,-5.3129,-5.3221,-5.3529,-5.2883,0.0,0.0,0.0,0.0,-5.1128,0.0,0.0,0.0,0.0,0.0,0.0,-4.6049,-4.5557,-4.4603,0.0,0.0,0.0,0.0,0.0,0.0,0.0,0.0,0.0,0.0,0.0,0.0,0.0,0.0,-4.9018,-4.9018,-4.9052,-4.9357,-5.0033,-4.9424,-4.983,-5.1217,-5.0541,-5.0608,-5.132,-5.2063,-5.2367,-5.2401,-5.3179,-5.3518,-5.3518,-5.3518,-5.3518,-5.3518,-5.3518,-5.3518,-5.3518,-5.3518,-5.3518,-5.3518,-5.1436,-5.1713,-5.1929,-5.1929,-5.1805,-5.2667,-5.553,-5.7715,-6.0517,-6.458,-6.7904,-7.0859,-7.3414,-7.3845,-7.4153,-7.4645,-7.3506,-7.2214,-7.0982,-6.9782,-6.7843,-6.4949,-6.4026,-6.2302,-5.9562,-5.9686,-5.8916,-5.7223,0.0,-5.6238,-5.6207,-5.4853,-5.4068,-5.4083,-5.6638,-5.6361,-5.4299,-5.9408,-6.1286,-6.0855,-6.1379,-6.1963,-6.2394,0.0,-6.104,-6.1963,-6.1101,-6.0147,-5.9285,-5.9101,-5.8577,-5.7949,-5.7272,-5.684,-5.633,-5.5438,-5.4607,-5.3853,-5.356,-5.3221,-5.2944,-5.276,-5.2206,-5.1467,0.0,0.0,0.0,0.0,0.0,0.0,0.0,0.0,0.0,-4.6449,-4.5064,-4.387,0.0,0.0,0.0,-4.3693,0.0,0.0,0.0,0.0,0.0,0.0,0.0,0.0,0.0,0.0,0.0,-4.9018,-4.9526,-4.9627,-4.9289,-5.0202,-5.0845,-5.1185,-5.1555,-5.2164,-5.2942,-5.3112,-5.3179,-5.3213,-5.3416,-5.3518,-5.3518,-5.3518,-5.3518,-5.3518,-5.3518,-5.3518,-5.3518,-5.3518,-5.3518,-5.3518,-5.2575,-5.3345,-5.4114,-5.4422,-5.4668,-5.5438,-5.7395,-5.8793,-6.1071,-6.4949,-6.8397,-7.1044,-7.2614,-7.3845,-7.4584,-7.4676,-7.363,-7.2737,-7.2121,-7.0982,-6.9443,-6.7442,-6.578,-6.3749,-6.1286,-6.0671,0.0,-5.8331,0.0,-5.681,-5.6779,-5.5068,-5.4037,-5.3837,-5.6269,-5.6146,-5.4375,-5.827,-6.0609,-6.1594,-6.0701,-6.0824,0.0,-5.9901,-5.9809,-6.0424,-6.0055,-5.9439,-5.8731,-5.8423,-5.8085,-5.7765,-5.7364,-5.7056,-5.6656,-5.5899,-5.5161,-5.4453,-5.3868,-5.3437,-5.316,-5.316,-5.2637,-5.2052,-5.1652,-5.1867,-5.1775,0.0,0.0,0.0,0.0,0.0,0.0,0.0,0.0,0.0,0.0,0.0,0.0,0.0,-4.2978,0.0,0.0,0.0,0.0,0.0,0.0,0.0,0.0,0.0,0.0,-4.9018,-5.0033,-5.0371,-4.9965,-5.1116,-5.186,-5.2232,-5.2266,-5.2739,-5.3518,-5.3518,-5.3518,-5.3518,-5.3518,-5.3518,-5.3518,-5.3518,-5.3518,-5.3518,-5.3518,-5.3518,-5.3518,-5.3518,-5.3518,-5.3518,-5.3745,-5.4945,-5.6146,-5.6717,-5.8073,-5.9131,-5.9408,-6.0671,-6.2517,-6.5072,-6.8335,-7.0428,-7.0428,-7.2552,-7.3753,-7.3168,-7.3106,-7.2552,-7.1259,-7.1075,-7.0182,-6.8274,-6.6242,-6.418,-6.2117,-6.0671,-5.9347,0.0,0.0,-5.6717,-5.6779,-5.476,-5.3775,-5.3683,-5.5807,-5.6053,-5.5007,-5.7469,-5.987,-6.1902,-6.0301,-5.9716,-5.9716,-5.8947,-5.8639,-5.8639,-5.8547,-5.8577,-5.8547,-5.8011,-5.7765,-5.7703,-5.7703,-5.7303,-5.6686,-5.6023,-5.5776,-5.5438,-5.4176,-5.3775,-5.3714,-5.3622,-5.316,-5.2698,-5.2698,-5.2637,-5.2236,-5.1067,-5.1159,-5.0697,0.0,0.0,0.0,0.0,0.0,0.0,0.0,0.0,0.0,0.0,0.0,0.0,0.0,0.0,0.0,0.0,0.0,0.0,0.0,0.0,0.0,-4.9154,-5.0507,0.0,-5.132,0.0,-5.2807,-5.3484,-5.2807,-5.2841,-5.3518,-5.3518,-5.3518,-5.3518,-5.3518,-5.3518,-5.3518,-5.3518,-5.3518,-5.3518,-5.3518,-5.3518,-5.3518,-5.3518,-5.3551,-5.3653,-5.3791,-5.5715,-5.7333,-5.6871,-5.8793,-6.1009,-6.2702,-6.4611,-6.6396,-6.7966,-7.1167,-7.326,-7.326,-7.3691,-7.3937,-7.3845,-7.3814,0.0,0.0,0.0,0.0,-6.9628,-6.7627,-6.5596,-6.3502,-6.1594,-6.0517,0.0,0.0,-5.6176,-5.6779,-5.5253,-5.3914,-5.3006,-5.5639,-5.6347,-5.5592,-5.6717,0.0,-5.7949,-5.8639,-5.9285,-5.9655,-5.8423,-5.8011,-5.7919,-5.7364,-5.7518,-5.798,-5.7857,-5.7457,-5.6994,-5.6994,-5.6902,-5.6779,-5.6656,-5.6146,-5.553,-5.476,-5.4099,-5.3591,-5.3037,-5.279,-5.2698,-5.2698,-5.2267,-5.1805,-5.1559,-5.0728,-4.9897,-4.9404,0.0,0.0,0.0,0.0,0.0,0.0,0.0,0.0,0.0,0.0,-4.3753,0.0,0.0,0.0,0.0,0.0,0.0,0.0,0.0,0.0,0.0,-5.0744,0.0,0.0,0.0,-5.3382,-5.3518,-5.3382,-5.3382,-5.3518,-5.3518,-5.3518,-5.3518,-5.3518,-5.3518,-5.3518,-5.3518,-5.3518,-5.3518,-5.3518,-5.3518,-5.3518,-5.3518,-5.389,-5.4397,-5.633,-5.7408,-5.8516,-5.9255,-6.1348,-6.3595,0.0,-6.7997,-6.9135,-6.8027,-6.9905,-7.1352,-7.1352,-7.2614,-7.3476,-7.3476,-7.3476,-7.3199,-7.2521,-7.1813,-7.0952,-6.9936,-6.8304,-6.6488,-6.4426,-6.2025,-6.0794,-6.0794,0.0,-5.553,-5.6176,-5.4822,-5.3498,-5.2298,-5.4637,-5.6115,0.0,0.0,0.0,-5.7826,-5.7346,-5.8023,-5.9131,-5.7795,-5.7056,-5.6638,-5.633,-5.6423,-5.6761,-5.7179,-5.7087,-5.681,-5.681,-5.6563,-5.6146,-5.5807,-5.5222,-5.4514,-5.3868,-5.3437,-5.3129,-5.279,-5.2698,-5.2698,-5.2698,-5.2452,-5.2144,-5.1775,-5.119,-5.0513,-4.9805,-4.8543,0.0,0.0,0.0,0.0,0.0,0.0,-4.5095,0.0,0.0,0.0,0.0,0.0,0.0,0.0,0.0,-4.7133,0.0,0.0,0.0,0.0,0.0,0.0,0.0,0.0,0.0,-5.3518,-5.3518,-5.3518,-5.3518,-5.3518,-5.3518,-5.3518,-5.3518,-5.3518,-5.3518,-5.3518,-5.3518,-5.3518,-5.3518,-5.3518,-5.3518,-5.3518,-5.3957,-5.46,-5.907,-5.9439,-6.024,-6.2148,-6.418,-6.6119,-6.7873,-7.0336,-7.1075,-6.852,-6.9105,-6.9751,-6.9751,-7.169,-7.2922,-7.2768,-7.2768,-7.2429,-7.1598,-7.1013,-7.0398,-6.972,-6.8674,-6.7104,-6.4949,-6.2364,-6.0732,0.0,0.0,0.0,0.0,-5.4299,-5.3221,0.0,0.0,0.0,0.0,0.0,-5.6854,-5.8208,-5.673,-5.7192,-5.8639,-5.7333,-5.6471,-5.593,-5.593,-5.5807,-5.5807,-5.6563,-5.681,-5.681,-5.681,-5.6409,-5.5807,-5.5315,-5.4668,-5.3991,-5.3314,-5.3037,-5.2883,-5.276,-5.2698,-5.2698,-5.2698,-5.2698,-5.2575,-5.2021,-5.1682,-5.1067,-4.9712,-4.8573,0.0,0.0,0.0,0.0,0.0,0.0,0.0,0.0,0.0,0.0,-4.3963,0.0,0.0,0.0,0.0,-4.6971,-4.7861,-4.8464,0.0,0.0,0.0,-5.23,-5.2773,0.0,-5.416,0.0,-5.3585,-5.3518,-5.3518,-5.3518,-5.3518,-5.3518,-5.3518,-5.3518,-5.3518,-5.3518,-5.3518,-5.3518,-5.3518,-5.3518,-5.3518,-5.3687,-5.4194,-5.4871,-6.0486,-6.1594,-6.2887,-6.4364,-6.6304,-6.7904,-6.8674,-7.0613,-7.2091,-7.2368,-7.2521,-7.2614,-7.2614,-7.2829,-7.2737,-7.2121,-7.206,-7.1506,-7.0182,-7.0028,-6.969,-6.9012,-6.8858,-6.7566,-6.4949,-6.2794,-6.0517,0.0,0.0,0.0,0.0,0.0,0.0,0.0,0.0,0.0,0.0,-5.5684,-5.681,-5.7025,-5.7457,-5.8054,-5.8639,-5.7333,-5.6779,-5.6717,-5.6717,-5.6286,-5.5807,-5.6563,-5.681,-5.681,-5.681,-5.6779,-5.6686,-5.6625,-5.6084,-5.5376,-5.4683,-5.4037,-5.3468,-5.2852,-5.2698,-5.2698,-5.2698,-5.2698,-5.2698,-5.2637,-5.1652,-5.0359,-4.8974,-4.8604,-4.8512,0.0,0.0,0.0,0.0,0.0,-4.6942,-4.5649,0.0,0.0,0.0,-4.4617,0.0,0.0,-4.6117,-4.642,-4.7801,-4.7966,-4.8924,-5.1016,0.0,-5.23,-5.4363,-5.3856,-5.389,-5.4465,-5.3822,-5.3518,-5.3518,-5.3518,-5.3518,-5.3518,-5.3518,-5.3518,-5.3518,-5.3518,-5.3518,-5.3518,-5.3518,-5.3518,-5.3585,-5.4262,-5.4972,-5.5716,0.0,0.0,0.0,0.0,0.0,0.0,0.0,-7.1167,-7.2214,-7.2891,-7.2983,-7.2829,-7.2429,-7.2368,-7.2091,-7.1383,-7.1321,-7.0921,-6.9967,-6.9905,-6.9413,-6.8366,-6.8674,-6.7627,-6.4949,-6.4087,-6.2117,0.0,0.0,0.0,0.0,0.0,0.0,0.0,0.0,-5.3683,-5.4022,-5.5499,-5.6656,-5.7426,-5.7703,-5.8177,-5.867,-5.7795,-5.6607,-5.553,-5.553,-5.5099,-5.4607,-5.5315,-5.5807,-5.6115,-5.6115,-5.6115,-5.6053,-5.5653,-5.5345,-5.4976,-5.4252,-5.3883,-5.356,-5.2883,-5.2698,-5.2698,-5.2698,-5.2698,-5.2698,-5.2698,-5.1621,-5.0513,-4.9959,-4.9189,-4.8604,0.0,0.0,0.0,0.0,0.0,0.0,-4.5711,0.0,-4.5187,0.0,0.0,0.0,0.0,0.0,-4.6538,-4.8482,-4.7737,0.0,-5.1119,0.0,-5.1631,-5.3923,-5.3653,-5.3415,-5.3233,-5.3415,-5.3246,-5.2799,-5.328,-5.3518,-5.3518,-5.3518,-5.3518,-5.3518,-5.3518,-5.3518,-5.3518,-5.3518,-5.3518,-5.3551,-5.3822,-5.4702,-5.575,-6.5411,0.0,-6.538,0.0,-6.7781,-6.8581,-7.0859,-7.166,-7.2152,-7.2614,-7.2675,-7.2521,-7.2029,-7.1783,-7.1383,-7.0675,-7.0613,-7.0305,-6.9628,-6.9597,-6.9166,-6.8243,-6.8643,0.0,-6.5257,-6.5011,-6.3318,-6.0086,-6.0086,0.0,0.0,0.0,0.0,0.0,-5.3314,-5.4022,-5.4775,-5.6084,-5.7285,-5.8362,-5.8362,-5.8516,-5.8701,-5.8073,-5.6638,-5.5007,-5.5007,-5.4453,-5.3837,-5.473,-5.5191,-5.5438,-5.5622,-5.5684,-5.5561,-5.4914,-5.4683,-5.4591,-5.4099,-5.3822,-5.3622,-5.3129,-5.2852,-5.2698,-5.2698,-5.2698,-5.2606,-5.2206,-5.1374,-5.0574,-5.0174,-4.9281,-4.8696,-4.8881,0.0,0.0,0.0,0.0,0.0,0.0,-4.5926,-4.5526,-4.4941,-4.488,0.0,0.0,0.0,0.0,0.0,0.0,0.0,0.0,0.0,0.0,0.0,-5.2765,-5.252,-5.1951,-5.2764,-5.2834,-5.2307,-5.3144,-5.3518,-5.3518,-5.3518,-5.3518,-5.3518,-5.3518,-5.3518,-5.3518,-5.3518,-5.3518,-5.3551,-5.3991,-5.4837,-5.5784,-6.6642,-6.6888,-6.7504,-6.9505,-6.9843,-7.0336,-7.1752,-7.1967,-7.1967,-7.1998,-7.1998,-7.1998,-7.1967,-7.1352,-7.0644,-6.9967,-6.9905,-6.9628,-6.8951,-6.8889,-6.8889,0.0,0.0,-6.7935,-6.5934,-6.5226,-6.3564,-6.0794,0.0,0.0,-5.4652,0.0,-5.2729,-5.279,-5.476,-5.5315,-5.4868,-5.7592,-5.9131,-5.9778,-5.9778,-5.9378,-5.8701,-5.8073,-5.6915,-5.5684,-5.5684,-5.4822,-5.3929,-5.5222,-5.5253,-5.4806,-5.5499,-5.5684,-5.5561,-5.4914,-5.4683,-5.4683,-5.4683,-5.4191,-5.3714,-5.3714,-5.3221,-5.2698,-5.2698,-5.2698,-5.2329,-5.1005,-5.0697,-5.0266,-4.8881,-4.8635,-4.885,-4.9558,0.0,0.0,0.0,0.0,0.0,-4.7742,-4.8173,-4.7773,-4.5772,-4.5588,0.0,0.0,0.0,0.0,0.0,0.0,0.0,-4.89,-4.9544,0.0,-5.1145,-5.1145,-5.1107,-5.1107,-5.1915,-5.2307,-5.2307,-5.3144,-5.3518,-5.3518,-5.3518,-5.3518,-5.3518,-5.3518,-5.3518,-5.3518,-5.3518,-5.3518,-5.3687,-5.5141,-5.5647,-5.5919,-6.8181,-6.8243,-6.8458,-6.9105,-6.9597,-7.0059,-7.049,-7.0952,-7.1229,-7.1229,-7.0828,-7.0551,-7.0551,-7.0367,-6.9936,0.0,-6.9197,-6.9105,0.0,-6.8889,-6.8705,-6.8243,-6.8643,-6.7966,-6.5934,-6.615,-6.4703,-6.1502,0.0,0.0,0.0,-5.6577,-5.5653,-5.4791,-5.593,-5.6823,-5.7562,-5.8916,-5.987,-6.0424,-5.9963,-5.9378,-5.8701,-5.8073,-5.6915,-5.5684,-5.5684,-5.513,-5.4437,-5.4884,-5.4914,-5.4714,-5.4929,-5.5345,-5.5561,-5.4914,-5.4683,-5.4591,-5.4129,-5.3853,-5.3622,-5.316,-5.2883,-5.2698,-5.2698,-5.2698,-5.2575,-5.2144,-5.1713,-5.1097,-5.0205,-4.9651,-4.9251,-4.9004,-4.8758,0.0,0.0,0.0,0.0,-4.765,-4.7373,-4.7004,0.0,-4.5865,0.0,0.0,0.0,0.0,0.0,0.0,0.0,0.0,-4.9064,0.0,-5.1107,-5.1107,-5.0805,-5.0267,-5.107,-5.1769,-5.2307,-5.3144,-5.3518,-5.3518,-5.3518,-5.3518,-5.3518,-5.3518,-5.3788,-5.4194,-5.3687,-5.4126,-5.5006,-5.4972,-5.5581,-5.6528,-6.8889,-6.8889,-6.8951,-6.9228,-6.9628,-6.9967,-7.0244,-7.0644,-7.0828,-7.0551,-7.0151,-6.9782,-6.9536,-6.9505,0.0,-6.892,-6.8889,-6.8889,-6.8889,-6.8889,-6.8705,-6.8304,-6.8674,-6.8058,-6.6334,0.0,0.0,-6.2979,-6.3041,-6.1994,-5.9901,-5.8701,-5.7808,-5.7254,-5.7685,-5.8362,-5.9193,-5.987,-6.0424,-6.0732,-6.0055,-5.9378,-5.8701,-5.8073,-5.6915,-5.5684,-5.5684,-5.5284,-5.4714,-5.5007,-5.5099,-5.513,-5.5407,-5.5592,-5.5561,-5.4914,-5.4683,-5.4591,-5.416,-5.3899,-5.3622,-5.3191,-5.2914,-5.2698,-5.2698,-5.2698,-5.2637,-5.239,-5.199,-5.1498,-5.082,-5.0143,-4.9528,-4.9097,-4.8789,-4.8604,-4.8604,0.0,0.0,0.0,0.0,0.0,0.0,-4.6603,-4.648,0.0,0.0,0.0,0.0,0.0,0.0,-4.8396,-4.8631,0.0,-5.0151,-5.0151,-4.9915,-4.943,-5.0229,-5.107,-5.1878,-5.2661,-5.3041,-5.3075,-5.3348,-5.3518,-5.3484,-5.3178,-5.3684,-5.4498,-5.375,-5.4391,-5.5683,-5.548,-5.6021,-5.6833,-6.8889,-6.892,-6.9135,0.0,-6.9905,0.0,-7.0675,-7.0798,-7.0582,-6.9905,-6.9813,-6.9566,-6.8951,-6.8889,-6.8858,-6.8828,0.0,0.0,0.0,-6.8828,-6.8828,-6.8828,-6.8828,-6.8212,-6.695,-6.6858,-6.6211,-6.4888,-6.2918,-6.1963,-6.1902,-5.9963,-5.9408,-5.9993,-5.9963,-5.9901,-5.9901,-6.0486,-6.0701,-6.0609,-5.9932,-5.9285,-5.8639,-5.8011,-5.6933,-5.5776,-5.5776,-5.5376,-5.4898,-5.5499,-5.5684,-5.5807,-5.6532,-5.6238,-5.5561,-5.4914,-5.4683,-5.4652,-5.456,-5.4129,-5.3714,-5.3652,-5.3191,-5.2698,-5.2698,-5.2698,-5.2544,-5.1898,-5.1775,-5.1559,-5.0882,-5.0174,-4.9682,-4.9682,-4.9035,-4.8573,-4.8604,0.0,0.0,0.0,0.0,0.0,0.0,-4.7619,-4.7096,0.0,0.0,0.0,0.0,0.0,-4.765,-4.7619,-4.8266,-4.8604,-4.8604,-4.8604,-4.8635,-4.8696,-4.9595,-5.0427,-5.1194,-5.2006,-5.2332,-5.2338,-5.3108,-5.345,-5.345,-5.269,-5.3298,-5.4563,-5.3756,-5.4436,-5.5813,-5.6491,-5.6797,-5.6968,0.0,0.0,-6.9536,-6.9197,-6.9967,-7.0367,-6.9505,-6.9813,-6.9905,-6.9197,-6.9135,-6.9074,-6.8889,-6.8889,-6.8674,-6.8181,-6.815,-6.815,-6.815,-6.815,-6.815,-6.815,-6.815,-6.775,-6.6919,-6.6396,-6.5719,-6.4888,-6.3841,-6.3349,-6.3318,-6.2333,-6.1963,-6.2086,-6.1563,-6.104,-6.0547,-6.0178,-5.9716,-5.9193,-5.8516,-5.8196,-5.798,-5.7303,-5.684,-5.6563,-5.6563,-5.6471,-5.6207,-5.5838,-5.5684,-5.5715,-5.5899,-5.5838,-5.5561,-5.4914,-5.4683,-5.4468,-5.3468,-5.3437,-5.3591,-5.3067,-5.2821,-5.2698,-5.2698,-5.2698,-5.2667,-5.2513,-5.2483,-5.2267,-5.159,-5.0482,-4.9682,-4.9682,-4.8635,-4.8019,-4.8543,-4.8604,0.0,0.0,-4.8604,-4.8543,-4.8389,-4.7896,-4.7465,0.0,0.0,0.0,0.0,-4.7927,-4.8142,-4.7619,-4.8266,-4.8604,-4.8604,-4.8604,-4.8881,-4.9435,-5.0777,-5.153,-5.1732,-5.2534,-5.2628,-5.2145,-5.2333,-5.2811,-5.3423,-5.3244,-5.3974,-5.5218,-5.4431,-5.5065,-5.635,-5.595,-5.6593,-5.7645,-6.8889,-6.9166,-6.9413,-6.9351,-6.9967,-7.0182,-6.9443,-6.9659,-6.9659,-6.8982,-6.8889,-6.8889,-6.8889,-6.8889,-6.8735,-6.8397,-6.8366,-6.8243,-6.7935,-6.8212,-6.8243,-6.7935,-6.7935,-6.7473,-6.6457,-6.6088,-6.5565,-6.4888,-6.4518,-6.4303,-6.4303,-6.3933,-6.3779,-6.3749,-6.3041,-6.2517,-6.2117,-6.1132,-6.0486,-6.0055,-5.8762,-5.8239,-5.8165,-5.7179,-5.681,-5.681,-5.681,-5.681,-5.6748,-5.6347,-5.6176,-5.6176,-5.6176,-5.6176,-5.6053,-5.5376,-5.4976,-5.4529,-5.3791,-5.3437,-5.316,-5.279,-5.2698,-5.2698,-5.2698,-5.2698,-5.2698,-5.2698,-5.2698,-5.2606,-5.2236,-5.1067,-5.0143,-5.0143,-4.8974,-4.8204,-4.8573,-4.8604,0.0,-4.8604,-4.8604,-4.8604,-4.8604,-4.8296,-4.7927,-4.7619,0.0,0.0,-4.7619,-4.8235,-4.845,-4.8081,-4.8758,-4.9097,-4.9097,-4.9404,-4.9774,-5.0143,-5.0994,-5.1361,-5.1403,-5.2168,-5.2349,-5.2037,-5.2391,-5.2856,-5.3236,-5.2856,-5.3584,-5.4841,-5.4059,-5.4658,-5.6001,-5.5996,-5.6549,-5.7368,-6.8889,-6.8982,-6.9197,-6.9659,-6.9813,-6.9874,-6.9751,-6.9751,-6.9536,-6.8951,-6.8889,-6.8889,-6.8889,-6.8889,-6.8858,-6.8735,-6.8828,-6.8612,-6.7966,-6.8427,-6.8458,-6.7812,-6.7781,-6.7196,-6.5934,-6.5688,-6.5319,-6.4734,-6.4734,-6.4795,-6.4888,-6.4888,-6.4888,-6.4857,-6.4149,-6.3718,-6.3441,-6.2179,-6.1532,-6.1194,-5.947,-5.8793,-5.8639,-5.7426,-5.6964,-5.6964,-5.684,-5.681,-5.681,-5.681,-5.681,-5.681,-5.681,-5.681,-5.6686,-5.6023,-5.5376,-5.4822,-5.4591,-5.3745,-5.2883,-5.3006,-5.3006,-5.3006,-5.3006,-5.3006,-5.2975,-5.2883,-5.2852,-5.2821,-5.2729,-5.1528,-5.0605,-5.082,-4.9497,-4.8543,-4.8758,0.0,-4.8604,-4.8604,-4.8696,-4.8789,-4.8789,-4.8881,-4.8635,-4.7958,-4.7927,-4.7927,0.0,-4.845,-4.882,-4.8912,-4.9528,-4.9835,-4.9835,-5.0513,-5.0851,-5.0851,-5.0944,-5.1005,-5.1049,-5.1715,-5.1957,-5.1905,-5.2612,-5.2941,-5.3021,-5.2368,-5.2904,-5.4083,-5.3426,-5.3943,-5.519,-5.5915,-5.627,-5.6536,-6.8889,-6.9351,-6.9597,-6.9135,-6.9505,-6.969,-6.9135,-6.9043,-6.9012,-6.8889,-6.8889,-6.8889,-6.8889,-6.8889,-6.8674,-6.812,-6.8581,-6.8612,-6.7966,-6.8027,-6.7781,-6.7104,-6.7073,-6.6704,-6.5934,-6.4734,-6.4087,-6.3995,-6.3995,-6.4303,-6.4888,-6.4888,-6.4888,-6.4857,-6.4149,-6.3195,-6.2086,-6.1286,-6.0301,-5.9224,-5.8916,-5.8793,-5.8701,-5.7949,-5.7672,-5.758,-5.7025,-5.681,-5.681,-5.681,-5.681,-5.681,-5.681,-5.681,-5.6779,-5.6686,-5.6084,-5.5315,-5.4176,-5.3714,-5.3714,-5.4222,-5.4375,-5.4375,-5.4375,-5.4375,-5.4222,-5.3683,-5.3514,-5.3375,-5.2821,-5.1128,-5.0205,-5.1374,-4.9404,-4.8173,-4.9343,0.0,-4.8604,-4.8604,-4.9158,-4.9528,-4.9528,-5.0051,-5.0082,-4.9404,-4.9374,-4.9374,-4.9374,-4.9466,-4.9774,-5.0359,-5.0482,-5.0543,-5.0543,-5.1221,-5.1559,-5.1559,-5.2144,-5.239,-5.239,-5.2524,-5.226,-5.1747,-5.1878,-5.2332,-5.2984,-5.2859,-5.3271,-5.4031,-5.3904,-5.3967,-5.4232,-5.4359,-5.4902,-5.5636,-6.8889,-6.9135,-6.9259,-6.8951,-6.9135,-6.9259,-6.8951,-6.8889,-6.8889,-6.8889,-6.8889,-6.8735,-6.8397,-6.8366,-6.8089,-6.7442,-6.7997,-6.8243,-6.7935,-6.7935,-6.7627,-6.695,-6.655,-6.5873,-6.4795,-6.4149,-6.3841,-6.3841,-6.3841,-6.418,-6.4888,-6.4888,-6.4888,-6.4888,-6.4549,-6.3841,-6.2856,-6.2179,-6.1317,-6.0332,-5.9624,-5.9316,-5.9255,-5.8577,-5.8085,-5.7795,-5.7457,-5.7118,-5.681,-5.681,-5.7056,-5.7364,-5.7364,-5.7364,-5.7364,-5.7364,-5.6546,-5.5468,-5.4468,-5.4222,-5.4283,-5.4591,-5.4683,-5.4683,-5.4683,-5.4683,-5.4591,-5.4283,-5.4222,-5.4006,-5.3375,-5.159,-5.0543,-5.1528,-4.9404,0.0,0.0,-4.9066,-4.8758,-4.9158,-4.9497,-4.9835,-5.0205,-5.0513,-5.0574,-5.0266,-5.0236,-5.0236,-5.0236,-5.0574,-5.0913,-5.1221,-5.1251,-5.1405,-5.1775,-5.2082,-5.2236,-5.2236,-5.2575,-5.2698,-5.2698,-5.2698,-5.2544,-5.2236,-5.2236,-5.2502,-5.2835,-5.2835,-5.3022,-5.3302,-5.3302,-5.3302,-5.3346,-5.3836,-5.4274,-5.4736,-6.8889,-6.8889,-6.8889,-6.8889,-6.8889,-6.8828,-6.8674,-6.8674,-6.8612,-6.8458,-6.8427,-6.8304,-6.7966,-6.7781,-6.7535,-6.7165,-6.7473,-6.7689,-6.7689,-6.7535,-6.7289,-6.6919,-6.6119,-6.5103,-6.3841,-6.3687,-6.3602,-6.3841,-6.3602,-6.4026,-6.4888,-6.4888,-6.4888,-6.4888,-6.4888,-6.4395,-6.3564,-6.3041,-6.2333,-6.1471,-6.0455,-6.0024,-5.9963,-5.9285,-5.8701,-5.8208,-5.8104,-5.7734,-5.7272,-5.7272,-5.7641,-5.7993,-5.7993,-5.7993,-5.8011,-5.7857,-5.6915,-5.5838,-5.5345,-5.5068,-5.4976,-5.5161,-5.5191,-5.5191,-5.5191,-5.5191,-5.5161,-5.4976,-5.4945,-5.476,-5.4083,-5.2421,-5.1344,-5.1867,0.0,0.0,0.0,-4.9312,-4.9127,-4.9835,-5.0051,-5.0359,-5.0882,-5.1067,-5.1097,-5.0944,-5.1067,-5.1097,-5.0944,-5.1559,-5.1929,-5.1929,-5.2082,-5.2421,-5.2944,-5.3098,-5.3191,-5.3191,-5.3191,-5.3191,-5.3191,-5.3006,-5.2944,-5.2944,-5.279,-5.2698,-5.2698,-5.2698,-5.2698,-5.2698,-5.2698,-5.2698,-5.2788,-5.3477,-5.3707,-5.3836,-6.8889,-6.8889,-6.8889,-6.8889,-6.8889,-6.8674,-6.8089,-6.7997,-6.7781,-6.7135,-6.7073,-6.7289,-6.7873,-6.7381,-6.7227,-6.7812,-6.7319,-6.6981,-6.6981,-6.6396,-6.6304,-6.6888,-6.5657,-6.4611,-6.3841,-6.3195,-6.3195,-6.3841,-6.3195,-6.3595,-6.4888,-6.4888,-6.4888,-6.4888,-6.4888,-6.4149,-6.2887,-6.2825,-6.2056,-6.0855,-6.0763,-6.0732,-6.064,-5.9963,-5.9686,-5.9562,-5.8947,-5.867,-5.8639,-5.8639,-5.867,-5.8701,-5.8701,-5.8701,-5.8577,-5.7962,-5.7303,-5.6717,-5.6686,-5.6146,-5.5776,-5.6453,-5.6656,-5.6656,-5.6656,-5.6656,-5.6471,-5.5745,-5.5622,-5.5407,-5.4745,-5.3498,-5.2575,-5.2637,0.0,0.0,-5.0513,-5.002,-4.9866,-5.0543,-5.1159,-5.1559,-5.1621,-5.2206,-5.2298,-5.1682,-5.2206,-5.2298,-5.1652,-5.2267,-5.2637,-5.2637,-5.3252,-5.3591,-5.3652,-5.4222,-5.4529,-5.4529,-5.4529,-5.4529,-5.4529,-5.3883,-5.3652,-5.3622,-5.2975,-5.2698,-5.2698,-5.2698,-5.2698,-5.2698,-5.2698,-5.2698,-5.2729,-5.2743,-5.2788,-5.2922,-6.8889,-6.8889,-6.8889,-6.8889,-6.8551,-6.8212,-6.7966,-6.7566,-6.7196,-6.695,-6.6919,-6.6858,-6.6704,-6.6457,-6.6211,-6.6057,-6.6211,-6.6273,-6.6273,-6.6057,-6.5842,-6.5657,-6.5165,-6.4549,-6.3841,-6.3564,-6.351,-6.3841,-6.351,-6.3933,-6.4888,-6.4888,-6.4888,-6.4888,-6.4888,-6.4118,-6.2856,-6.3256,-6.2425,-6.0824,-6.1255,-6.1163,-6.0763,-6.0517,-6.0147,-5.9747,-5.9501,-5.9131,-5.8793,-5.8793,-5.907,-5.9408,-5.9408,-5.9408,-5.9285,-5.8608,-5.8258,-5.8073,-5.8073,-5.75,-5.7038,-5.7364,-5.7426,-5.7333,-5.6902,-5.681,-5.6717,-5.6471,-5.6361,-5.6146,-5.5468,-5.4237,-5.3345,-5.3345,0.0,-5.1159,-5.1867,-5.1713,-5.1805,-5.2483,-5.279,-5.3129,-5.3529,-5.3806,-5.3822,-5.3591,-5.3837,-5.3837,-5.3591,-5.3837,-5.3914,-5.3914,-5.4607,-5.4545,-5.3745,-5.4345,-5.4683,-5.4683,-5.4683,-5.4683,-5.4683,-5.4406,-5.4068,-5.3714,-5.3437,-5.3098,-5.2698,-5.2698,-5.2698,-5.2698,-5.2698,-5.2698,-5.276,-5.3191,-5.3545,-5.3944,-6.8889,-6.8889,-6.8828,-6.8612,-6.8397,-6.8089,-6.7658,-6.7227,-6.6827,-6.6611,-6.6396,-6.618,-6.5934,-6.5719,-6.5503,-6.5226,-6.5442,-6.5596,-6.5596,-6.5596,-6.538,-6.4918,-6.4888,-6.4672,-6.418,-6.3933,-6.3933,-6.418,-6.3933,-6.418,-6.4888,-6.4888,-6.4764,-6.458,-6.4795,-6.3995,-6.2548,-6.3225,-6.2456,-6.0824,-6.1317,-6.1348,-6.1101,-6.0886,-6.064,-6.0393,-6.0178,-5.9809,-5.9408,-5.9408,-5.9716,-6.0116,-6.0116,-5.9963,-5.9686,-5.9224,-5.8947,-5.8824,-5.9039,-5.8762,-5.8412,-5.8196,-5.8085,-5.8011,-5.7549,-5.7457,-5.7457,-5.7457,-5.7272,-5.6964,-5.6423,-5.5253,-5.4268,-5.4037,-5.3098,-5.2513,-5.2975,-5.3037,-5.3283,-5.3914,-5.3976,-5.416,-5.4652,-5.4683,-5.4683,-5.4683,-5.4914,-5.5037,-5.5037,-5.4806,-5.4683,-5.4683,-5.5345,-5.5253,-5.436,-5.5007,-5.5376,-5.5376,-5.5376,-5.5376,-5.5376,-5.513,-5.4791,-5.4299,-5.3899,-5.3468,-5.3006,-5.279,-5.2698,-5.2698,-5.2698,-5.2852,-5.3098,-5.356,-5.4099,-5.4591,-6.8889,-6.8889,-6.8674,-6.8027,-6.8458,-6.8427,-6.7104,-6.6919,-6.6673,-6.5996,-6.5319,-6.5165,-6.5842,-6.5288,-6.5165,-6.5842,-6.5288,-6.4918,-6.4918,-6.4888,-6.4888,-6.4888,-6.4888,-6.4888,-6.4888,-6.421,-6.418,-6.4888,-6.418,-6.421,-6.4888,-6.4888,-6.4518,-6.3841,-6.458,-6.3749,-6.1871,-6.2517,-6.2025,-6.0824,-6.0824,-6.1194,-6.1717,-6.104,-6.1225,-6.1717,-6.104,-6.0794,-6.0794,-6.0794,-6.0794,-6.0794,-6.0794,-6.0332,-5.9809,-5.9809,-5.9316,-5.8947,-5.9624,-5.9809,-5.9624,-5.8947,-5.8793,-5.8793,-5.8793,-5.8793,-5.8793,-5.8793,-5.8239,-5.7826,-5.7826,-5.6638,-5.5499,-5.4806,-5.4129,-5.3745,-5.3745,-5.3699,-5.3945,-5.4621,-5.4714,-5.4714,-5.4714,-5.4714,-5.4714,-5.4714,-5.5345,-5.5715,-5.5715,-5.5099,-5.4714,-5.4714,-5.5376,-5.5715,-5.5715,-5.644,-5.681,-5.681,-5.681,-5.681,-5.6779,-5.6023,-5.5684,-5.5622,-5.4299,-5.3745,-5.3683,-5.3006,-5.2698,-5.2698,-5.2729,-5.3129,-5.3714,-5.3745,-5.4129,-5.4591,-6.8797,-6.815,-6.7596,-6.7873,-6.7289,-6.6673,-6.6273,-6.5811,-6.5411,-6.5226,-6.5011,-6.498,-6.5165,-6.5442,-6.5503,-6.5226,-6.5873,-6.6119,-6.5626,-6.5165,-6.4888,-6.4888,-6.4888,-6.4888,-6.4888,-6.4672,-6.4672,-6.4888,-6.4672,-6.4672,-6.4888,-6.4888,-6.4518,-6.3787,-6.4057,-6.3533,-6.2517,-6.2733,-6.2302,-6.1502,-6.1502,-6.1348,-6.1071,-6.0886,-6.0917,-6.1071,-6.0886,-6.0794,-6.0794,-6.0794,-6.0794,-6.0794,-6.0794,-6.0671,-6.0486,-6.0486,-6.0363,-6.024,-6.0455,-6.0486,-6.0332,-5.9655,-5.9501,-5.9378,-5.8885,-5.8793,-5.8793,-5.8793,-5.8608,-5.8485,-5.8485,-5.8146,-5.7469,-5.633,-5.6392,-5.6207,-5.5253,-5.553,-5.593,-5.6146,-5.6146,-5.6146,-5.6146,-5.6146,-5.6146,-5.6146,-5.6378,-5.6502,-5.6502,-5.6269,-5.6146,-5.6146,-5.6378,-5.6502,-5.6502,-5.6717,-5.681,-5.681,-5.681,-5.681,-5.681,-5.6594,-5.6176,-5.5684,-5.5284,-5.4576,-5.3668,-5.3498,-5.3129,-5.276,-5.3221,-5.3529,-5.3791,-5.476,-5.5561,-5.5992,-6.8427,-6.7873,-6.7289,-6.7135,-6.6888,-6.6519,-6.5996,-6.5565,-6.5288,-6.5288,-6.5072,-6.4888,-6.4888,-6.5257,-6.5442,-6.5319,-6.6273,-6.6642,-6.5965,-6.5534,-6.5165,-6.4918,-6.4888,-6.4888,-6.4888,-6.4888,-6.4888,-6.4888,-6.4888,-6.4888,-6.4888,-6.4888,-6.4364,-6.3441,-6.3664,-6.3164,-6.2025,-6.2302,-6.2025,-6.1409,-6.1409,-6.1317,-6.1163,-6.0886,-6.0948,-6.1163,-6.0886,-6.0794,-6.0794,-6.0794,-6.0794,-6.0794,-6.0794,-6.0794,-6.0794,-6.0794,-6.0794,-6.0794,-6.0794,-6.0794,-6.0701,-6.0301,-6.0178,-6.0086,-5.9686,-5.9562,-5.9562,-5.9562,-5.9378,-5.9193,-5.9193,-5.8947,-5.8423,-5.7395,-5.7549,-5.7426,-5.6269,-5.6532,-5.681,-5.681,-5.681,-5.681,-5.681,-5.681,-5.681,-5.681,-5.681,-5.681,-5.681,-5.681,-5.681,-5.681,-5.681,-5.681,-5.681,-5.681,-5.681,-5.681,-5.681,-5.681,-5.681,-5.681,-5.6563,-5.6084,-5.5807,-5.5253,-5.4483,-5.4206,-5.3853,-5.3514,-5.3914,-5.4268,-5.4607,-5.5407,-5.5961,-5.6176,-6.7997,-6.7904,-6.7442,-6.6211,-6.6981,-6.7319,-6.6027,-6.5811,-6.5811,-6.5811,-6.5288,-6.4918,-6.498,-6.5042,-6.5288,-6.5842,-6.6457,-6.6611,-6.6119,-6.5965,-6.5626,-6.5011,-6.4918,-6.4888,-6.4888,-6.4888,-6.4888,-6.4888,-6.4888,-6.4888,-6.4888,-6.4888,-6.4149,-6.2856,-6.3472,-6.2671,-6.0917,-6.1471,-6.1379,-6.0886,-6.0824,-6.1163,-6.1656,-6.104,-6.1194,-6.1625,-6.1009,-6.0794,-6.0794,-6.0794,-6.0794,-6.0794,-6.0794,-6.0794,-6.0794,-6.0794,-6.0794,-6.0794,-6.0794,-6.0794,-6.0794,-6.0794,-6.0794,-6.0794,-6.0794,-6.0794,-6.0794,-6.0794,-6.0301,-5.987,-5.987,-5.9378,-5.8731,-5.8104,-5.8011,-5.7765,-5.7087,-5.6933,-5.6902,-5.6902,-5.684,-5.681,-5.681,-5.681,-5.681,-5.681,-5.681,-5.684,-5.6902,-5.684,-5.6871,-5.6994,-5.6871,-5.684,-5.6902,-5.684,-5.681,-5.681,-5.681,-5.681,-5.681,-5.681,-5.681,-5.6779,-5.6084,-5.5745,-5.5653,-5.5068,-5.4745,-5.4683,-5.4745,-5.5161,-5.5715,-5.5745,-5.5776,-5.5684,-6.8581,-6.7843,-6.7042,-6.6735,-6.6488,-6.6057,-6.5226,-6.5103,-6.5103,-6.5103,-6.498,-6.5103,-6.5626,-6.615,-6.6334,-6.5934,-6.6027,-6.6519,-6.7442,-6.6488,-6.5842,-6.5688,-6.5165,-6.4888,-6.4888,-6.4888,-6.4888,-6.4888,-6.4888,-6.4888,-6.4888,-6.4888,-6.4149,-6.2825,-6.2979,-6.2487,-6.1563,-6.1194,-6.1255,-6.1532,-6.1009,-6.0886,-6.1009,-6.0855,-6.0886,-6.1009,-6.0855,-6.0794,-6.0794,-6.0794,-6.0794,-6.0794,-6.0794,-6.0794,-6.0794,-6.0794,-6.0794,-6.0794,-6.0794,-6.0794,-6.0794,-6.0794,-6.0794,-6.0794,-6.0794,-6.0794,-6.0794,-6.0794,-6.0671,-6.0578,-6.0578,-6.0455,-6.0147,-5.947,-5.9347,-5.9131,-5.8423,-5.7919,-5.7611,-5.7611,-5.7148,-5.681,-5.681,-5.681,-5.681,-5.681,-5.681,-5.7056,-5.758,-5.7118,-5.7303,-5.83,-5.7364,-5.7056,-5.7611,-5.7087,-5.681,-5.681,-5.681,-5.681,-5.681,-5.681,-5.681,-5.681,-5.6656,-5.6207,-5.5684,-5.553,-5.5191,-5.4745,-5.5284,-5.5561,-5.5745,-5.6378,-5.6594,-5.6471,-6.7935,-6.7381,-6.6704,-6.6057,-6.5934,-6.5688,-6.5011,-6.5165,-6.5257,-6.4949,-6.5165,-6.538,-6.5411,-6.575,-6.5934,-6.5903,-6.6211,-6.655,-6.695,-6.6611,-6.6242,-6.5903,-6.5565,-6.538,-6.538,-6.5072,-6.4888,-6.4888,-6.4888,-6.4888,-6.4888,-6.4888,-6.4334,-6.3287,-6.2948,-6.2456,-6.1779,-6.1071,-6.1009,-6.1286,-6.0948,-6.0794,-6.0794,-6.0794,-6.0794,-6.0794,-6.0794,-6.0794,-6.0794,-6.0794,-6.0794,-6.0794,-6.0794,-6.0794,-6.0794,-6.0794,-6.0794,-6.0794,-6.0794,-6.0794,-6.0794,-6.0794,-6.0794,-6.0794,-6.0794,-6.0794,-6.0794,-6.0794,-6.0794,-6.0794,-6.0794,-6.0794,-6.0578,-5.9901,-5.9778,-5.9562,-5.8885,-5.8485,-5.8288,-5.8288,-5.798,-5.7765,-5.7765,-5.7765,-5.7765,-5.7765,-5.7765,-5.7919,-5.8239,-5.7931,-5.8104,-5.8762,-5.8085,-5.7949,-5.8239,-5.7949,-5.7611,-5.7303,-5.6964,-5.681,-5.681,-5.681,-5.681,-5.681,-5.681,-5.6594,-5.6207,-5.6207,-5.5992,-5.5745,-5.6084,-5.6207,-5.6238,-5.6686,-5.6594,-5.6207,-6.735,-6.7165,-6.6704,-6.5472,-6.5626,-6.5688,-6.5011,-6.538,-6.5534,-6.498,-6.538,-6.5565,-6.5134,-6.5072,-6.5349,-6.6027,-6.6488,-6.655,-6.6119,-6.6488,-6.6488,-6.5934,-6.578,-6.5719,-6.5719,-6.5195,-6.4888,-6.4888,-6.4888,-6.4888,-6.4888,-6.4888,-6.4518,-6.3756,-6.3133,-6.2456,-6.1779,-6.1071,-6.0794,-6.0794,-6.0794,-6.0794,-6.0794,-6.0794,-6.0794,-6.0794,-6.0794,-6.0794,-6.0794,-6.0794,-6.0794,-6.0794,-6.0794,-6.0794,-6.0794,-6.0794,-6.0794,-6.0794,-6.0794,-6.0794,-6.0794,-6.0794,-6.0794,-6.0794,-6.0794,-6.0794,-6.0794,-6.0794,-6.0794,-6.0794,-6.0794,-6.0794,-6.0609,-6.0055,-5.9963,-5.9778,-5.9193,-5.9008,-5.8947,-5.8947,-5.8854,-5.8793,-5.8793,-5.8793,-5.8793,-5.8793,-5.8793,-5.8824,-5.8947,-5.8854,-5.8885,-5.9131,-5.8916,-5.8824,-5.8947,-5.8854,-5.8485,-5.798,-5.7303,-5.6933,-5.681,-5.681,-5.681,-5.681,-5.681,-5.681,-5.681,-5.681,-5.681,-5.681,-5.681,-5.681,-5.681,-5.681,-5.6347,-5.5715,-6.8643,-6.8181,-6.7535,-6.6765,-6.6242,-6.5688,-6.5011,-6.498,-6.5011,-6.4918,-6.498,-6.5226,-6.5719,-6.578,-6.6027,-6.6735,-6.6334,-6.6242,-6.6735,-6.6334,-6.5996,-6.5903,-6.5349,-6.5042,-6.5042,-6.4949,-6.4888,-6.4888,-6.4888,-6.4888,-6.4888,-6.4888,-6.4518,-6.3756,-6.3133,-6.2456,-6.1779,-6.1071,-6.0794,-6.0794,-6.0794,-6.0794,-6.0794,-6.0794,-6.0794,-6.0794,-6.0794,-6.0794,-6.0794,-6.0794,-6.0794,-6.0794,-6.0794,-6.0794,-6.0794,-6.0794,-6.0794,-6.0794,-6.0794,-6.0794,-6.0794,-6.0794,-6.0794,-6.0794,-6.0794,-6.0794,-6.0794,-6.0794,-6.0794,-6.0794,-6.0794,-6.0794,-6.0763,-6.0671,-6.0671,-6.064,-6.0547,-6.0024,-5.9655,-5.9655,-5.9131,-5.8793,-5.8793,-5.8793,-5.8793,-5.8793,-5.8793,-5.9039,-5.9624,-5.9101,-5.9316,-6.0486,-5.9378,-5.907,-5.9655,-5.907,-5.8731,-5.8639,-5.8011,-5.7364,-5.681,-5.681,-5.681,-5.681,-5.681,-5.681,-5.681,-5.681,-5.681,-5.681,-5.681,-5.681,-5.681,-5.681,-5.6347,-5.5776,-6.8427,-6.812,-6.7596,-6.6519,-6.6119,-6.5688,-6.5011,-6.5226,-6.5319,-6.4949,-6.5226,-6.5442,-6.5349,-6.5349,-6.5472,-6.578,-6.5503,-6.5472,-6.578,-6.6211,-6.6457,-6.6457,-6.618,-6.6027,-6.6027,-6.5288,-6.4888,-6.4888,-6.4888,-6.4888,-6.4888,-6.4888,-6.4734,-6.4364,-6.3287,-6.2856,-6.2825,-6.1409,-6.1009,-6.1317,-6.0948,-6.0794,-6.0794,-6.0794,-6.0794,-6.0794,-6.0794,-6.0794,-6.0794,-6.0794,-6.0794,-6.0794,-6.0794,-6.0794,-6.0794,-6.0794,-6.0794,-6.0794,-6.0794,-6.0794,-6.0794,-6.0794,-6.0794,-6.0794,-6.0794,-6.0794,-6.0794,-6.0794,-6.0794,-6.0794,-6.0794,-6.0794,-6.0794,-6.0794,-6.0794,-6.0794,-6.0794,-6.0547,-6.0363,-6.0363,-6.0086,-5.9901,-5.9901,-5.9901,-5.9901,-5.9901,-5.9901,-6.0055,-6.0332,-6.0086,-6.0178,-6.0794,-6.0209,-6.0055,-6.0363,-6.0055,-5.9716,-5.9347,-5.9039,-5.8362,-5.7364,-5.6994,-5.681,-5.681,-5.681,-5.681,-5.681,-5.681,-5.681,-5.681,-5.681,-5.681,-5.681,-5.681,-5.6594,-5.6378]},{"header":{"parameterUnit":"m.s-1","parameterCategory":1,"la1":30.6,"la2":28.766,"lo1":-90.7593,"lo2":-88.6598,"dy":0.0162,"dx":0.0183,"nx":116,"ny":114,"refTime":"2024-04-13T06:00:00:Z","depth":0,"parameterNumber":3,"parameterNumberName":"V-component_of_WINDS"},"data":[0.0,0.0,0.0,0.0,0.0,0.0,0.0,0.0,0.0,0.0,0.0,0.0,0.0,0.0,0.0,0.0,0.0,0.0,0.0,0.0,0.0,0.0,0.0,0.0,0.0,0.0,0.0,0.0,0.0,0.0,0.0,0.0,0.0,0.0,0.0,0.0,0.0,0.0,0.0,0.0,0.0,0.0,0.0,0.0,0.0,0.0,0.0,0.0,0.0,0.0,0.0,0.0,0.0,0.0,0.0,0.0,0.0,0.0,0.0,0.0,0.0,0.0,0.0,0.0,0.0,0.0,0.0,0.0,0.0,0.0,0.0,0.0,0.0,0.0,0.0,0.0,0.0,0.0,0.0,0.0,0.0,0.0,0.0,0.0,0.0,0.0,0.0,0.0,0.0,0.0,0.0,0.0,0.0,0.0,0.0,0.0,0.0,0.0,0.0,0.0,0.0,0.0,0.0,0.0,0.0,0.0,0.0,0.0,0.0,0.0,0.0,0.0,0.0,0.0,0.0,0.0,0.0,0.0,0.0,0.0,0.0,0.0,0.0,0.0,0.0,0.0,0.0,0.0,0.0,0.0,0.0,0.0,0.0,0.0,0.0,0.0,0.0,0.0,0.0,0.0,0.0,0.0,0.0,0.0,0.0,0.0,0.0,0.0,0.0,0.0,0.0,0.0,0.0,0.0,0.0,0.0,0.0,0.0,0.0,0.0,0.0,0.0,0.0,0.0,0.0,0.0,0.0,0.0,0.0,0.0,0.0,0.0,0.0,0.0,0.0,0.0,0.0,0.0,0.0,0.0,0.0,0.0,0.0,0.0,0.0,0.0,0.0,0.0,0.0,0.0,0.0,0.0,0.0,0.0,0.0,0.0,0.0,0.0,0.0,0.0,0.0,0.0,0.0,0.0,0.0,0.0,0.0,0.0,0.0,0.0,0.0,0.0,0.0,0.0,0.0,0.0,0.0,0.0,0.0,0.0,0.0,0.0,0.0,0.0,0.0,0.0,0.0,0.0,0.0,0.0,0.0,0.0,0.0,0.0,0.0,0.0,0.0,0.0,0.0,0.0,0.0,0.0,0.0,0.0,0.0,0.0,0.0,0.0,0.0,0.0,0.0,0.0,0.0,0.0,0.0,0.0,0.0,0.0,0.0,0.0,0.0,0.0,0.0,0.0,0.0,0.0,0.0,0.0,0.0,0.0,0.0,0.0,0.0,0.0,0.0,0.0,0.0,0.0,0.0,0.0,0.0,0.0,0.0,0.0,0.0,0.0,0.0,0.0,0.0,0.0,0.0,0.0,0.0,0.0,0.0,0.0,0.0,0.0,0.0,0.0,0.0,0.0,0.0,0.0,0.0,0.0,0.0,0.0,0.0,0.0,0.0,0.0,0.0,0.0,0.0,0.0,0.0,0.0,0.0,0.0,0.0,0.0,0.0,0.0,0.0,0.0,0.0,0.0,0.0,0.0,0.0,0.0,0.0,0.0,0.0,0.0,0.0,0.0,0.0,0.0,0.0,0.0,0.0,0.0,0.0,0.0,0.0,0.0,0.0,0.0,0.0,0.0,0.0,0.0,0.0,0.0,0.0,0.0,0.0,0.0,0.0,0.0,0.0,0.0,0.0,0.0,0.0,0.0,0.0,0.0,0.0,0.0,0.0,0.0,0.0,0.0,0.0,0.0,0.0,0.0,0.0,0.0,0.0,0.0,0.0,0.0,0.0,0.0,0.0,0.0,0.0,0.0,0.0,0.0,0.0,0.0,0.0,0.0,0.0,0.0,0.0,0.0,0.0,0.0,0.0,0.0,0.0,0.0,0.0,0.0,0.0,0.0,0.0,0.0,0.0,0.0,0.0,0.0,0.0,0.0,0.0,0.0,0.0,0.0,0.0,0.0,0.0,0.0,0.0,0.0,0.0,0.0,0.0,0.0,0.0,0.0,0.0,0.0,0.0,0.0,0.0,0.0,0.0,0.0,0.0,0.0,0.0,0.0,0.0,0.0,0.0,0.0,0.0,0.0,0.0,0.0,0.0,0.0,0.0,0.0,0.0,0.0,0.0,0.0,0.0,0.0,0.0,0.0,0.0,0.0,0.0,0.0,0.0,0.0,0.0,0.0,0.0,0.0,0.0,0.0,0.0,0.0,0.0,0.0,0.0,0.0,0.0,0.0,0.0,0.0,0.0,0.0,0.0,0.0,0.0,0.0,0.0,0.0,0.0,0.0,0.0,0.0,0.0,0.0,0.0,0.0,0.0,0.0,0.0,0.0,0.0,0.0,0.0,0.0,0.0,0.0,0.0,0.0,0.0,0.0,0.0,0.0,0.0,0.0,0.0,0.0,0.0,0.0,0.0,0.0,0.0,0.0,0.0,0.0,0.0,0.0,0.0,0.0,0.0,0.0,0.0,0.0,0.0,0.0,0.0,0.0,0.0,0.0,0.0,0.0,0.0,0.0,0.0,0.0,0.0,0.0,0.0,0.0,0.0,0.0,0.0,0.0,0.0,0.0,0.0,0.0,0.0,0.0,0.0,0.0,0.0,0.0,0.0,0.0,0.0,0.0,0.0,0.0,0.0,0.0,0.0,0.0,0.0,0.0,0.0,0.0,0.0,0.0,0.0,0.0,0.0,0.0,0.0,0.0,0.0,0.0,0.0,0.0,0.0,0.0,0.0,0.0,0.0,0.0,0.0,0.0,0.0,0.0,0.0,0.0,0.0,0.0,0.0,0.0,0.0,0.0,0.0,0.0,0.0,0.0,0.0,0.0,0.0,0.0,0.0,0.0,0.0,0.0,0.0,0.0,0.0,0.0,0.0,0.0,0.0,0.0,0.0,0.0,0.0,0.0,0.0,0.0,0.0,0.0,0.0,0.0,0.0,0.0,0.0,0.0,0.0,0.0,0.0,0.0,0.0,0.0,0.0,0.0,0.0,0.0,0.0,0.0,0.0,0.0,0.0,0.0,0.0,0.0,0.0,0.0,0.0,0.0,0.0,0.0,0.0,0.0,0.0,0.0,0.0,0.0,0.0,0.0,0.0,0.0,0.0,0.0,0.0,0.0,0.0,0.0,0.0,0.0,0.0,0.0,0.0,0.0,0.0,0.0,0.0,0.0,0.0,0.0,0.0,0.0,0.0,0.0,0.0,0.0,0.0,0.0,0.0,0.0,0.0,0.0,0.0,0.0,0.0,0.0,0.0,0.0,0.0,0.0,0.0,0.0,0.0,0.0,0.0,0.0,0.0,0.0,0.0,0.0,0.0,0.0,0.0,0.0,0.0,0.0,0.0,0.0,0.0,0.0,0.0,0.0,0.0,0.0,0.0,0.0,0.0,0.0,0.0,0.0,0.0,0.0,0.0,0.0,0.0,0.0,0.0,0.0,0.0,0.0,0.0,0.0,0.0,0.0,0.0,0.0,0.0,0.0,0.0,0.0,0.0,0.0,0.0,0.0,0.0,0.0,0.0,0.0,0.0,0.0,0.0,0.0,0.0,0.0,0.0,0.0,0.0,0.0,0.0,0.0,0.0,0.0,0.0,0.0,0.0,0.0,0.0,0.0,0.0,0.0,0.0,0.0,0.0,0.0,0.0,0.0,0.0,0.0,0.0,0.0,0.0,0.0,0.0,0.0,0.0,0.0,0.0,0.0,0.0,0.0,0.0,0.0,0.0,0.0,0.0,0.0,0.0,0.0,0.0,0.0,0.0,0.0,0.0,0.0,0.0,0.0,0.0,0.0,0.0,0.0,0.0,0.0,0.0,0.0,0.0,0.0,0.0,0.0,0.0,0.0,0.0,0.0,0.0,0.0,0.0,0.0,0.0,0.0,0.0,0.0,0.0,0.0,0.0,0.0,0.0,0.0,0.0,0.0,0.0,0.0,0.0,0.0,0.0,0.0,0.0,0.0,0.0,0.0,0.0,0.0,0.0,0.0,0.0,0.0,0.0,0.0,0.0,0.0,0.0,0.0,0.0,0.0,0.0,0.0,0.0,0.0,0.0,0.0,0.0,0.0,0.0,0.0,0.0,0.0,0.0,0.0,0.0,0.0,0.0,0.0,0.0,0.0,0.0,0.0,0.0,0.0,0.0,0.0,0.0,0.0,0.0,0.0,0.0,0.0,0.0,0.0,0.0,0.0,0.0,0.0,0.0,0.0,0.0,0.0,0.0,0.0,0.0,0.0,0.0,0.0,0.0,0.0,0.0,0.0,0.0,0.0,0.0,0.0,0.0,0.0,0.0,0.0,0.0,0.0,0.0,0.0,0.0,0.0,0.0,0.0,0.0,0.0,0.0,0.0,0.0,0.0,0.0,0.0,0.0,0.0,0.0,0.0,0.0,0.0,0.0,0.0,0.0,0.0,0.0,0.0,0.0,0.0,0.0,0.0,0.0,0.0,0.0,0.0,0.0,0.0,0.0,0.0,0.0,0.0,0.0,0.0,0.0,0.0,0.0,0.0,0.0,0.0,0.0,0.0,0.0,0.0,0.0,0.0,0.0,0.0,0.0,0.0,0.0,0.0,0.0,0.0,0.0,0.0,0.0,0.0,0.0,0.0,0.0,0.0,0.0,0.0,0.0,0.0,0.0,0.0,0.0,0.0,0.0,0.0,0.0,0.0,0.0,0.0,0.0,0.0,0.0,0.0,0.0,0.0,0.0,0.0,0.0,0.0,0.0,0.0,0.0,0.0,0.0,0.0,0.0,0.0,0.0,0.0,0.0,0.0,0.0,0.0,0.0,0.0,0.0,0.0,0.0,0.0,0.0,0.0,0.0,0.0,0.0,0.0,0.0,0.0,0.0,0.0,0.0,0.0,0.0,0.0,0.0,0.0,0.0,0.0,0.0,0.0,0.0,0.0,0.0,0.0,0.0,0.0,0.0,0.0,0.0,0.0,0.0,0.0,0.0,0.0,0.0,0.0,0.0,0.0,0.0,0.0,0.0,0.0,0.0,0.0,0.0,0.0,0.0,0.0,0.0,0.0,0.0,0.0,0.0,0.0,0.0,0.0,0.0,0.0,0.0,0.0,0.0,0.0,0.0,0.0,0.0,0.0,0.0,0.0,0.0,0.0,0.0,0.0,0.0,0.0,0.0,0.0,0.0,0.0,0.0,0.0,0.0,0.0,0.0,0.0,0.0,0.0,0.0,0.0,0.0,0.0,0.0,0.0,0.0,0.0,0.0,0.0,0.0,0.0,0.0,0.0,0.0,0.0,0.0,0.0,0.0,0.0,0.0,0.0,0.0,0.0,0.0,0.0,0.0,0.0,0.0,0.0,0.0,0.0,0.0,0.0,0.0,0.0,0.0,0.0,0.0,0.0,0.0,0.0,0.0,0.0,0.0,0.0,0.0,0.0,0.0,0.0,0.0,0.0,0.0,0.0,0.0,0.0,0.0,0.0,0.0,0.0,0.0,0.0,0.0,0.0,0.0,0.0,0.0,0.0,0.0,0.0,0.0,0.0,0.0,0.0,0.0,0.0,0.0,0.0,0.0,0.0,0.0,0.0,0.0,0.0,0.0,0.0,0.0,0.0,0.0,0.0,0.0,0.0,0.0,0.0,0.0,0.0,0.0,0.0,0.0,0.0,0.0,0.0,0.0,0.0,0.0,0.0,0.0,0.0,0.0,0.0,0.0,0.0,0.0,0.0,0.0,0.0,0.0,0.0,0.0,0.0,0.0,0.0,0.0,0.0,0.0,0.0,0.0,0.0,0.0,0.0,0.0,0.0,0.0,0.0,0.0,0.0,0.0,0.0,0.0,0.0,0.0,0.0,0.0,0.0,0.0,0.0,0.0,0.0,0.0,0.0,0.0,0.0,0.0,0.0,0.0,0.0,0.0,0.0,0.0,0.0,0.0,0.0,0.0,0.0,0.0,0.0,0.0,0.0,0.0,0.0,0.0,0.0,0.0,0.0,0.0,0.0,0.0,0.0,0.0,0.0,0.0,0.0,0.0,0.0,0.0,0.0,0.0,0.0,0.0,0.0,0.0,0.0,0.0,0.0,0.0,0.0,0.0,0.0,0.0,0.0,0.0,0.0,0.0,0.0,0.0,0.0,0.0,0.0,0.0,0.0,0.0,0.0,0.0,0.0,0.0,0.0,0.0,0.0,0.0,0.0,0.0,0.0,0.0,0.0,2.1415,0.0,0.0,0.0,0.0,0.0,0.0,0.0,0.0,0.0,0.0,0.0,0.0,0.0,0.0,0.0,0.0,0.0,0.0,0.0,0.0,0.0,0.0,0.0,0.0,2.8301,2.8301,2.8301,2.8301,2.8301,2.8301,2.8301,0.0,0.0,0.0,0.0,2.7969,2.7969,2.8066,2.8262,2.8262,2.8476,2.8887,2.8457,2.8144,2.7949,0.0,0.0,0.0,0.0,0.0,0.0,0.0,0.0,0.0,0.0,0.0,0.0,0.0,0.0,0.0,0.0,0.0,0.0,0.0,0.0,0.0,0.0,0.0,0.0,0.0,0.0,0.0,0.0,0.0,0.0,0.0,0.0,0.0,0.0,0.0,0.0,0.0,0.0,0.0,0.0,0.0,0.0,0.0,0.0,0.0,0.0,0.0,0.0,0.0,0.0,0.0,0.0,0.0,0.0,0.0,0.0,0.0,0.0,0.0,0.0,0.0,0.0,0.0,0.0,0.0,0.0,0.0,0.0,0.0,0.0,0.0,2.229,0.0,0.0,0.0,0.0,0.0,0.0,0.0,0.0,0.0,0.0,0.0,0.0,0.0,0.0,0.0,0.0,0.0,0.0,0.0,0.0,0.0,2.8301,2.8301,2.8359,2.8398,2.8398,2.8476,2.8516,2.8516,2.8516,2.8476,2.8398,2.8398,2.8398,2.8398,2.8398,2.8613,2.9023,2.9336,2.9746,3.0254,3.0391,3.0078,2.9375,2.8711,0.0,0.0,0.0,0.0,0.0,0.0,0.0,0.0,0.0,0.0,0.0,0.0,0.0,0.0,0.0,0.0,0.0,0.0,0.0,0.0,0.0,0.0,0.0,0.0,0.0,0.0,0.0,0.0,0.0,0.0,0.0,0.0,0.0,0.0,0.0,0.0,0.0,0.0,0.0,0.0,0.0,0.0,0.0,0.0,0.0,0.0,0.0,0.0,0.0,0.0,0.0,0.0,0.0,0.0,0.0,0.0,0.0,0.0,0.0,0.0,0.0,0.0,0.0,2.6208,2.6829,2.6903,2.683,2.6756,2.6554,2.4042,2.3023,2.3224,2.3224,0.0,0.0,0.0,0.0,0.0,0.0,0.0,0.0,0.0,0.0,0.0,0.0,0.0,0.0,0.0,0.0,0.0,0.0,0.0,2.8301,2.8301,2.8613,2.8828,2.8848,2.918,2.945,2.945,2.945,2.9238,2.8848,2.8828,2.8848,2.8828,2.8828,2.9043,2.9492,3.0996,3.2148,3.293,3.3672,3.3965,3.3711,3.0332,2.9473,3.0449,0.0,0.0,0.0,0.0,0.0,0.0,0.0,0.0,0.0,0.0,0.0,0.0,0.0,0.0,0.0,0.0,0.0,0.0,0.0,0.0,0.0,0.0,0.0,0.0,0.0,0.0,0.0,0.0,0.0,0.0,0.0,0.0,0.0,0.0,0.0,0.0,0.0,0.0,0.0,0.0,0.0,2.4702,2.4702,0.0,0.0,0.0,0.0,0.0,0.0,0.0,0.0,0.0,0.0,0.0,0.0,0.0,2.6409,2.7022,2.7843,2.8177,2.7846,2.908,2.9122,2.815,2.7783,2.7416,2.7031,2.6002,0.0,2.4537,2.4537,0.0,0.0,0.0,0.0,0.0,0.0,0.0,0.0,0.0,0.0,0.0,0.0,0.0,0.0,0.0,0.0,0.0,0.0,0.0,0.0,0.0,2.9238,2.9629,2.9629,3.1152,3.1484,3.0019,3.084,3.0762,2.9336,2.9277,2.9277,2.9277,2.9277,3.0098,3.1738,3.373,3.5137,3.5957,3.6328,3.6387,3.6055,3.3887,3.2285,3.1152,2.9902,0.0,0.0,0.0,0.0,0.0,0.0,0.0,0.0,0.0,0.0,0.0,0.0,0.0,0.0,0.0,0.0,0.0,0.0,0.0,0.0,0.0,0.0,0.0,0.0,0.0,0.0,0.0,0.0,0.0,0.0,0.0,0.0,0.0,0.0,0.0,0.0,0.0,0.0,0.0,2.49,2.5106,2.5106,2.5506,2.5598,0.0,0.0,0.0,0.0,0.0,0.0,0.0,0.0,0.0,2.7911,2.8388,2.8883,2.9452,3.0057,3.0369,3.0424,3.0956,3.0937,3.0406,2.9984,2.958,2.914,2.8113,2.7196,2.6443,2.5491,2.4666,2.3969,0.0,0.0,0.0,0.0,2.362,2.3602,0.0,0.0,0.0,0.0,0.0,0.0,0.0,0.0,0.0,0.0,0.0,0.0,2.9336,3.0273,3.1035,3.1484,3.3086,3.334,3.1641,3.2012,3.1641,3.0137,2.9844,2.9726,2.9726,3.0273,3.1777,3.4258,3.6426,3.7988,3.8926,3.9238,3.9238,3.8887,3.793,3.5762,3.2734,3.1191,3.0117,2.9355,0.0,0.0,0.0,0.0,0.0,0.0,0.0,0.0,0.0,0.0,0.0,0.0,0.0,0.0,0.0,0.0,0.0,0.0,0.0,0.0,0.0,0.0,0.0,0.0,0.0,0.0,0.0,0.0,0.0,0.0,0.0,0.0,0.0,0.0,0.0,0.0,0.0,2.5472,2.5911,2.5617,2.6388,2.6627,0.0,0.0,0.0,0.0,0.0,0.0,2.7636,2.8425,2.9269,3.0185,3.0809,3.1359,3.1873,3.2294,3.2588,3.279,3.2881,3.2771,3.2459,3.2038,3.1579,3.1047,2.9929,2.8975,2.8171,2.6554,2.5527,2.5102,2.479,2.4661,2.4661,2.4551,2.4514,2.4477,0.0,0.0,0.0,0.0,0.0,0.0,0.0,0.0,0.0,0.0,0.0,2.8926,3.0605,3.1914,3.334,3.498,3.4473,3.4375,3.5078,3.2539,3.1113,3.1406,3.0605,3.0156,3.0156,3.2187,3.4297,3.6504,3.8672,4.0371,4.1641,4.2851,4.3398,4.332,4.207,3.9609,3.6191,3.2871,3.1894,3.2324,2.9434,0.0,0.0,0.0,0.0,0.0,0.0,0.0,0.0,0.0,0.0,0.0,0.0,0.0,0.0,0.0,0.0,0.0,0.0,0.0,0.0,0.0,0.0,0.0,0.0,0.0,0.0,0.0,0.0,0.0,0.0,0.0,0.0,0.0,0.0,0.0,0.0,0.0,0.0,2.6113,2.8042,0.0,0.0,0.0,0.0,2.7675,2.8447,2.9342,3.0516,3.1341,3.2349,3.3523,3.3615,3.4018,3.4807,3.521,3.5229,3.488,3.5265,3.4825,3.3707,3.3303,3.2698,3.1891,3.1066,3.0241,2.936,2.7746,2.6664,2.5947,2.5929,2.5929,2.5874,2.5506,2.5359,2.5359,0.0,0.0,0.0,0.0,0.0,2.8301,2.8301,2.8301,2.8301,2.8301,2.9004,3.0176,3.1914,3.4258,3.6152,3.7344,3.8418,3.8359,3.6719,3.5098,3.3769,3.2793,3.166,3.1562,3.2676,3.4805,3.7109,3.957,4.2012,4.3848,4.5098,4.5293,4.5234,4.4922,4.3926,4.2324,4.0117,3.6113,3.3633,3.2226,3.0293,2.9199,0.0,0.0,0.0,0.0,0.0,0.0,0.0,0.0,0.0,0.0,0.0,0.0,0.0,0.0,0.0,0.0,0.0,0.0,0.0,0.0,0.0,0.0,0.0,0.0,0.0,0.0,0.0,0.0,0.0,0.0,0.0,0.0,0.0,0.0,0.0,0.0,0.0,2.9048,3.0516,0.0,3.0167,3.0204,3.0351,3.0479,3.1249,3.2019,3.2698,3.3505,3.4385,3.532,3.5614,3.6017,3.6567,3.6714,3.6586,3.6201,3.6329,3.5779,3.4587,3.4165,3.3541,3.2735,3.1634,3.1011,3.0626,2.9269,2.8005,2.6774,2.6463,2.6371,2.6316,2.5947,2.58,2.5764,0.0,0.0,0.0,0.0,0.0,2.8172,2.8139,2.8086,2.8086,2.8086,2.957,3.1465,3.3652,3.6582,3.8965,4.041,4.1172,4.0684,3.8516,3.6348,3.4629,3.3476,3.2617,3.2969,3.4687,3.7129,3.959,4.2031,4.4336,4.5957,4.6933,4.6797,4.6582,4.6289,4.543,4.4394,4.3086,3.9648,3.6523,3.373,3.168,3.0684,3.0273,0.0,0.0,0.0,0.0,0.0,0.0,0.0,0.0,0.0,0.0,0.0,0.0,0.0,0.0,0.0,0.0,0.0,0.0,0.0,0.0,0.0,0.0,0.0,0.0,0.0,0.0,0.0,0.0,0.0,0.0,0.0,0.0,0.0,0.0,2.936,3.1011,3.1543,3.3046,3.3707,3.29,3.2808,3.2918,3.3211,3.3725,3.433,3.499,3.5669,3.6347,3.7007,3.7301,3.7576,3.7833,3.7833,3.7558,3.7026,3.7026,3.6329,3.5027,3.4733,3.4183,3.3358,3.2258,3.1708,3.1506,3.0277,2.9067,2.793,2.7398,2.7105,2.694,2.6572,2.6333,2.6186,0.0,0.0,0.0,0.0,0.0,2.8001,2.7689,2.7708,2.7728,2.7728,2.9961,3.2734,3.5742,3.8789,4.1641,4.4219,4.2461,4.1016,4.0527,3.6074,3.3437,3.3437,3.3476,3.4336,3.6133,3.9101,4.166,4.3808,4.5527,4.6582,4.6992,4.7402,4.7598,4.7558,4.6719,4.5859,4.4961,4.3242,4.0566,3.7168,3.3711,3.2754,3.3105,0.0,0.0,0.0,0.0,0.0,0.0,0.0,0.0,0.0,0.0,0.0,0.0,0.0,0.0,0.0,0.0,0.0,0.0,0.0,0.0,0.0,0.0,0.0,0.0,0.0,0.0,0.0,0.0,0.0,0.0,0.0,0.0,0.0,2.9048,3.1524,3.3321,3.3358,3.5467,3.6292,3.4697,3.455,3.488,3.5669,3.5742,3.6256,3.7411,3.7851,3.8236,3.856,3.856,3.856,3.856,3.856,3.8218,3.7429,3.7411,3.6567,3.5027,3.5027,3.4587,3.3762,3.2955,3.2368,3.1928,3.0699,2.9965,2.9507,2.8718,2.815,2.7803,2.7325,2.6921,2.6591,0.0,0.0,0.0,2.8344,2.8185,2.7902,2.7297,2.7461,2.7826,2.8086,3.0918,3.4043,3.707,4.0371,4.3164,4.5156,4.334,4.1504,4.0156,3.6191,3.3887,3.3887,3.4805,3.6699,3.9687,4.1777,4.3887,4.6035,4.7148,4.791,4.832,4.8125,4.8027,4.8008,4.7461,4.6758,4.5879,4.4785,4.3223,4.1133,3.707,3.4629,3.3223,0.0,0.0,0.0,0.0,0.0,0.0,0.0,0.0,0.0,0.0,0.0,0.0,0.0,0.0,0.0,0.0,0.0,0.0,0.0,0.0,0.0,0.0,0.0,0.0,0.0,0.0,0.0,0.0,0.0,0.0,0.0,2.9672,3.0717,3.0717,3.3413,3.5614,3.6201,3.7631,3.8401,3.7943,3.7906,3.7998,3.8218,3.8511,3.8695,3.8731,3.8841,3.8823,3.8658,3.856,3.856,3.856,3.8346,3.7924,3.7429,3.7136,3.6311,3.5027,3.5027,3.4587,3.3762,3.2955,3.2533,3.2313,3.0827,3.013,2.9929,2.8828,2.8315,2.8132,2.7435,2.6921,2.6591,0.0,0.0,0.0,2.8061,2.8001,2.7759,2.6867,2.7109,2.7539,2.7969,3.1484,3.4961,3.7637,4.1016,4.3555,4.4746,4.3047,4.0937,3.8691,3.5742,3.4238,3.4609,3.6738,3.918,4.1914,4.4004,4.584,4.7461,4.8144,4.8613,4.8848,4.8594,4.8476,4.8457,4.8027,4.7461,4.6777,4.5918,4.4922,4.3633,4.0586,3.8164,3.6152,3.3965,3.3047,3.2754,3.1523,3.1113,3.0976,2.9785,0.0,0.0,0.0,0.0,0.0,0.0,0.0,0.0,0.0,0.0,0.0,0.0,0.0,0.0,0.0,0.0,0.0,0.0,0.0,0.0,0.0,0.0,0.0,0.0,3.1763,3.3321,3.3835,3.5669,3.7393,3.8566,3.963,4.0272,4.0272,4.0272,4.018,4.0015,4.007,3.985,3.9263,3.9226,3.9043,3.8579,3.856,3.8566,3.8383,3.8126,3.7723,3.7173,3.6952,3.6201,3.5027,3.5027,3.4587,0.0,3.2955,3.2588,3.2478,3.1047,3.0351,0.0,0.0,0.0,0.0,0.0,2.6793,2.6591,0.0,0.0,0.0,2.7925,2.7764,2.7472,2.6486,2.6719,2.7168,2.7669,3.168,3.5351,3.7402,4.0625,4.2851,4.3379,4.1777,3.9531,3.6719,3.5117,3.4805,3.5918,3.9121,4.1699,4.3476,4.5859,4.7461,4.8281,4.8672,4.8867,4.8867,4.8867,4.8867,4.8848,4.8457,4.8047,4.7598,4.6797,4.5957,4.5058,4.375,4.2148,4.0176,3.6973,3.6133,3.6465,3.4805,3.3301,3.2012,3.1387,0.0,0.0,0.0,0.0,0.0,0.0,0.0,0.0,0.0,0.0,0.0,0.0,0.0,0.0,0.0,0.0,0.0,0.0,0.0,0.0,0.0,0.0,0.0,0.0,3.4055,3.6237,3.7631,3.8126,3.8896,4.0363,4.1262,4.1757,4.1757,4.1757,4.1592,4.1225,4.0785,4.0198,3.941,0.0,0.0,0.0,0.0,3.8438,3.8016,3.7979,3.7576,3.6842,3.6712,3.6164,3.5027,3.5027,3.4587,3.3762,3.2955,3.2588,3.2496,3.1286,3.0534,3.0039,2.9232,2.8425,2.7675,2.6921,2.6628,2.6591,0.0,0.0,0.0,2.7411,2.7351,2.7012,2.5967,2.6523,2.7168,2.7669,3.1172,3.4238,3.5723,3.832,4.041,4.1562,3.9453,3.7363,3.5742,3.5644,3.6797,3.9414,4.1816,4.4062,4.6133,4.7344,4.8223,4.873,4.8808,4.8867,4.8867,4.8867,4.8867,4.894,4.8769,4.8496,4.8047,4.7539,4.6836,4.5937,4.4668,4.2695,4.0332,3.8613,3.7422,3.6543,3.5508,3.5371,3.5391,3.3555,3.2988,3.2754,3.0957,2.9902,0.0,0.0,0.0,0.0,0.0,0.0,0.0,0.0,0.0,0.0,0.0,0.0,0.0,0.0,0.0,0.0,0.0,0.0,0.0,3.4367,3.5815,3.7484,3.9997,4.0418,4.0584,4.0914,4.1666,4.2161,4.2161,4.2161,4.2124,4.2051,4.1354,4.073,4.0253,3.9593,3.9043,3.8579,3.856,3.8438,3.8016,3.7704,3.7301,3.6824,0.0,0.0,3.5027,3.5027,3.4587,3.3762,3.2955,3.2588,3.2496,3.1286,3.0351,2.9617,2.881,2.8003,2.727,2.7123,2.6866,2.6591,0.0,0.0,0.0,2.7203,2.7117,2.6921,2.6024,2.6369,2.6934,2.763,3.0293,3.2656,3.3945,3.5801,3.7129,3.7578,3.584,3.4824,3.5039,3.6465,3.8652,4.166,4.4062,4.6035,4.7539,4.8203,4.8633,4.8867,4.8867,4.8867,4.8867,4.8867,4.8867,4.8867,4.8867,4.873,4.8496,4.8066,4.7519,4.6836,4.5547,4.3867,4.1973,4.0684,3.9531,3.8535,3.8105,3.7539,3.6797,3.5488,3.4609,3.3809,3.2324,3.125,3.041,0.0,0.0,0.0,0.0,0.0,0.0,0.0,0.0,0.0,0.0,0.0,0.0,0.0,0.0,2.9837,3.0644,0.0,3.4165,3.6201,3.7723,3.9226,4.084,4.1409,4.1666,4.1666,4.2197,4.2564,4.2564,4.2564,4.2491,4.2289,4.1519,4.0887,4.0262,3.9575,3.9043,3.8579,3.856,3.8346,3.7723,3.7521,3.7118,3.6512,3.6311,3.5889,3.532,3.5119,3.4587,3.3762,3.2955,3.2478,3.2203,3.0992,3.0259,2.98,2.8993,2.8187,2.7509,2.7251,2.6921,2.6591,0.0,0.0,0.0,2.7091,2.6992,2.687,2.6198,2.6291,2.666,2.7441,2.9355,3.1035,3.2051,3.332,3.3906,3.3496,3.2891,3.334,3.5215,3.7754,4.0586,4.3691,4.6055,4.7637,4.832,4.8672,4.8867,4.8867,4.8867,4.8867,4.8867,4.8867,4.8867,4.8867,4.8867,4.8867,4.8828,4.8476,4.8047,4.748,4.6289,4.4961,4.3574,4.2383,4.1387,4.0625,4.0469,3.9062,3.7226,3.6816,3.5508,3.3945,3.3262,3.2461,3.1582,3.0605,2.9726,0.0,0.0,0.0,0.0,0.0,0.0,0.0,0.0,2.7893,2.8741,2.9415,3.0662,3.1928,3.2991,3.4844,3.6604,3.7814,3.9465,4.0749,4.1225,4.1721,4.2069,4.2161,4.2509,4.2747,4.2747,4.2674,4.2546,4.2289,4.1372,4.0648,4.0079,3.9428,3.897,3.8579,3.8487,3.8163,3.7429,3.7356,3.6934,3.6201,3.6127,3.5889,3.5485,3.51,3.4458,3.3651,3.2845,3.2258,3.1799,3.0662,3.0204,3.0112,2.9305,2.848,2.7785,2.7473,2.6995,2.6591,0.0,0.0,0.0,0.0,0.0,2.646,2.6159,2.6291,2.6562,2.7031,2.8633,2.9822,2.9922,3.1094,3.1699,3.1289,3.2851,3.4922,3.7402,4.0,4.2949,4.6348,4.7871,4.8691,4.8789,4.8828,4.8867,4.8867,4.8867,4.8867,4.8867,4.8867,4.8867,4.8867,4.8867,4.8867,4.894,4.8808,4.832,4.75,4.6601,4.5215,4.3613,4.2695,4.1836,4.0996,4.0234,3.8809,3.7226,3.6816,3.5508,3.4062,3.3965,3.334,3.2402,3.1172,3.0195,2.9316,2.8516,2.8121,2.7991,2.8071,2.8126,2.8422,0.0,3.0406,3.1102,3.1579,3.3211,3.4697,3.5192,3.6934,3.8713,3.9923,4.062,4.1262,4.2032,4.1592,4.1335,4.1702,4.2106,4.2344,4.2344,4.2032,4.1941,4.2252,4.0924,4.0189,4.0382,3.9318,3.8615,3.856,3.8273,3.7869,3.7429,3.7081,3.6677,3.6201,3.5852,3.5485,3.5082,3.466,3.4037,3.3248,3.2423,3.1836,3.1377,3.0552,3.0204,3.0112,2.9305,2.848,2.7822,2.7767,2.7233,2.6591,0.0,0.0,0.0,0.0,0.0,2.6688,2.6592,2.6366,2.6399,2.6833,2.7584,2.8184,2.8491,2.916,2.957,2.9394,3.1348,3.3906,3.6992,4.0078,4.334,4.6777,4.8164,4.8867,4.8867,4.9121,4.9121,4.8867,4.9121,4.9121,4.8867,4.8867,4.8867,4.8867,4.8867,4.8867,4.8848,4.8594,4.8125,4.748,4.6387,4.5039,4.3555,4.2207,4.0684,3.9238,3.8867,3.7793,0.0,3.5469,3.4668,3.4023,3.3769,3.3105,3.2226,3.1191,3.0078,2.9008,2.8296,2.8164,2.8463,2.9079,2.9476,3.0015,3.1286,3.2221,3.2973,3.3633,3.5174,3.6622,3.7264,3.8841,4.029,4.106,4.1702,4.2069,4.1959,4.1427,4.0767,4.0015,4.0052,4.0529,4.1482,4.1207,4.1042,4.1207,4.0143,3.9557,3.974,3.9043,3.8451,3.8291,3.8108,3.7704,3.7081,3.6916,3.6622,3.6201,3.5797,3.554,3.5357,3.4697,3.3835,3.2808,3.2001,3.1543,3.1341,3.0772,3.0406,3.0149,2.9544,2.8828,2.8095,2.7914,2.727,2.6591,0.0,0.0,0.0,0.0,0.0,2.7262,2.6853,2.64,2.6249,2.6656,2.6839,2.7226,2.7773,2.8008,2.8125,2.8125,2.9883,3.25,3.6094,3.9316,4.2773,4.6582,4.7871,4.8613,4.8848,4.9297,4.9316,4.8867,4.9316,4.9297,4.8867,4.8867,4.8867,4.8867,4.8867,4.8867,4.8828,4.8398,4.7891,4.7285,4.6016,4.457,4.2969,4.1152,3.9023,3.7031,3.7031,3.5996,3.4453,3.3516,3.3027,3.2832,3.2891,3.248,3.1816,3.0957,2.9785,2.8622,2.8218,2.8595,2.9331,3.019,3.0991,3.1946,3.3156,3.4055,3.488,3.5687,3.6952,3.8108,3.8695,4.0033,4.1189,4.1629,4.2179,4.2344,4.1776,4.095,3.9868,3.8475,3.8016,3.831,3.9593,3.9868,4.0052,4.029,3.9538,3.9116,3.9226,3.886,3.8456,3.8034,3.7906,3.7521,3.6842,3.6714,3.6512,3.6201,3.5705,3.5449,3.543,3.4385,3.3431,3.2551,3.1726,3.1322,3.1176,3.0791,3.0387,2.9984,2.9562,2.892,2.8187,2.7932,2.7343,2.6738,0.0,0.0,0.0,0.0,0.0,2.8164,2.6736,2.6304,2.6172,2.6378,2.6758,2.7344,2.8184,2.793,2.7728,2.7728,2.8941,3.1289,3.5176,3.7851,4.1387,4.6113,4.7148,4.8008,4.8848,4.9297,4.9316,4.8867,4.9316,4.9297,4.8867,4.8867,4.8867,4.8867,4.8867,4.8867,4.8828,4.8398,4.7715,4.6836,4.5547,4.3769,4.1621,3.9473,3.7051,3.4805,3.4805,0.0,3.1035,3.0996,3.041,2.9922,3.1172,3.1562,3.1367,3.045,2.9336,2.8388,2.8537,2.9504,3.0569,3.122,3.2533,3.4037,3.5247,3.6164,3.6971,3.7759,3.8585,3.919,3.9208,4.0217,4.1189,4.1629,4.1702,4.1721,4.1702,3.9978,3.8401,3.7558,3.6421,3.587,0.0,3.7778,3.9025,3.9877,3.9116,3.8743,3.9208,3.886,3.8456,3.8034,3.7649,3.7246,3.6767,3.6439,3.6219,3.6201,3.543,3.5045,3.499,3.3376,3.2625,3.2551,3.1726,3.1157,3.0772,3.0387,2.9965,2.9544,2.9159,2.8498,2.784,2.7822,2.7564,2.7105,0.0,0.0,0.0,0.0,0.0,0.0,2.7767,2.6955,2.6412,2.6475,2.6763,0.0,0.0,0.0,0.0,0.0,2.8144,3.0019,3.3047,3.5937,3.9004,4.2324,4.4668,4.6152,4.6738,4.7715,4.8164,4.8008,4.8437,4.8437,4.8008,4.8008,4.8008,4.8008,4.8008,4.8008,4.7969,4.7246,4.6445,4.5508,4.3633,4.1953,4.0234,3.75,3.5039,3.2832,0.0,3.0312,2.9492,2.8945,2.873,2.8848,2.957,2.9785,2.9687,2.9121,2.9238,2.9577,2.9753,3.0978,3.2512,3.3826,3.4807,3.5797,3.7283,3.7833,3.803,3.8383,3.8016,3.7649,3.7649,3.8199,3.8786,3.919,4.0162,4.0785,4.0492,3.9648,3.8328,3.6457,3.6091,3.5742,3.5082,0.0,0.0,3.8181,3.8236,3.8291,3.842,3.8291,3.8034,3.7631,3.7246,3.6842,3.6421,3.6017,3.5815,3.5797,3.5009,3.433,3.3798,3.2973,3.2441,3.2166,3.1616,3.1304,3.1157,3.0754,3.0351,2.9947,2.9544,2.9048,2.8498,2.8024,2.773,2.7528,0.0,0.0,0.0,0.0,0.0,0.0,0.0,0.0,0.0,0.0,0.0,0.0,0.0,0.0,0.0,0.0,0.0,2.873,3.0859,3.3398,3.5976,3.8574,4.0996,4.2539,4.3125,4.4101,4.4512,4.4355,4.5098,4.5312,4.5058,4.5371,4.5586,4.5742,4.5898,4.5976,4.5918,4.5215,4.4336,4.3242,4.123,3.9375,3.7519,3.4805,3.2539,0.0,0.0,2.791,2.7715,2.7344,2.748,2.791,2.834,2.8574,2.8711,2.873,2.9536,3.0567,3.1134,3.2682,3.4433,3.5741,3.6567,3.7356,3.8322,3.853,3.8291,3.7851,3.6934,3.6054,3.5632,3.576,3.6091,3.6641,3.7741,3.864,3.8933,3.8383,3.7411,3.5999,3.5797,3.5485,3.4697,3.532,0.0,3.7136,3.7704,3.8016,3.8016,3.8016,3.7833,3.7429,3.7044,3.6641,3.6219,3.5962,3.5687,3.5394,3.488,3.4202,3.3413,3.2845,3.2459,3.2184,3.1616,3.1304,3.1139,3.0736,3.0351,2.9929,2.9525,2.9122,2.87,2.8022,2.773,2.7509,0.0,0.0,0.0,0.0,0.0,0.0,0.0,0.0,0.0,0.0,0.0,0.0,0.0,0.0,0.0,0.0,0.0,0.0,2.8711,3.041,3.25,3.5019,3.6406,3.7539,3.8398,3.8828,3.8848,3.8476,3.9687,4.0293,4.0312,4.1133,4.1719,4.2109,4.2539,4.2715,4.2695,4.2266,4.1367,4.0039,3.834,3.6152,3.3672,3.1562,0.0,0.0,2.6836,2.6113,2.5752,2.6269,2.6738,2.7187,2.7637,2.8047,2.8535,2.9473,3.0355,3.1344,3.2698,3.4621,3.6293,3.6808,3.7718,3.856,3.8505,3.8236,3.7576,3.6366,3.543,3.4458,3.3285,3.3083,3.3376,3.4202,3.477,3.565,3.7264,3.6494,3.5889,3.6201,3.5595,3.5119,3.5064,3.51,3.5595,3.6675,0.0,3.7961,3.7961,3.7979,3.7796,3.7411,3.7007,3.6604,3.6219,3.6182,3.5779,3.499,3.499,3.4568,3.3762,3.2955,3.2588,3.2514,3.1726,3.1157,3.0791,3.0369,2.9965,2.9562,2.914,2.8755,2.837,2.7948,2.762,2.7178,0.0,0.0,0.0,0.0,0.0,0.0,0.0,0.0,0.0,0.0,0.0,0.0,0.0,0.0,0.0,0.0,0.0,0.0,2.6992,2.8633,3.0156,3.1465,3.3691,3.5312,3.6191,3.6621,3.6934,3.7148,3.7168,3.7168,3.7168,3.7383,3.7559,3.7656,3.7773,3.7812,3.7812,3.7695,3.6894,3.5625,0.0,3.3144,3.1504,0.0,0.0,0.0,2.6738,2.6113,2.581,2.6602,2.7559,2.8516,2.8945,2.9215,2.9609,3.1445,3.2428,3.3237,3.5205,3.6621,3.7629,3.8057,3.8341,3.8396,3.7869,3.7173,3.6329,3.5119,3.3266,3.1689,3.1084,3.1212,3.1873,3.3303,3.4862,3.6476,3.8108,3.8071,3.7576,3.6769,3.6751,3.6457,3.5559,3.6017,3.6494,0.0,3.7026,3.7136,3.7136,3.7411,3.7393,3.7007,3.6586,3.6311,3.6201,3.5925,3.5357,3.4568,3.4568,3.4147,3.3358,3.2826,3.2441,3.2129,3.1598,3.1322,3.1176,3.0479,3.013,2.9965,2.925,2.892,2.8792,2.8388,2.8168,2.7985,0.0,0.0,0.0,0.0,0.0,0.0,0.0,0.0,0.0,0.0,0.0,0.0,0.0,0.0,0.0,0.0,0.0,0.0,0.0,2.7168,2.8105,2.8769,3.0371,3.1582,3.2266,3.2519,3.2754,3.2988,3.293,3.3008,3.3203,3.3379,3.3574,3.3769,3.3965,3.416,3.4316,3.4121,3.3516,0.0,0.0,0.0,0.0,0.0,0.0,2.6777,2.6484,2.6348,2.6415,2.75,2.8574,2.9629,3.0449,3.1094,3.1894,3.3691,3.4564,3.5211,3.6853,3.7783,3.8305,3.853,3.8511,3.8053,3.6897,3.5999,3.488,3.2955,3.1194,2.9764,2.9012,2.9195,2.9929,3.1396,3.3175,3.5064,3.7044,3.7466,3.7521,3.7374,3.7558,3.7356,3.6494,3.6824,3.7099,3.7099,3.7246,3.7283,3.7099,3.7301,3.7246,3.6842,3.6421,3.6201,3.6201,3.5981,3.5467,3.4678,3.4678,3.4257,3.3468,3.2863,3.2478,3.2239,0.0,3.1377,3.1322,3.0534,3.0204,3.0112,2.9305,2.8975,2.8938,2.8535,2.8388,2.8297,0.0,0.0,0.0,0.0,0.0,0.0,0.0,0.0,0.0,0.0,2.7218,2.6764,0.0,0.0,0.0,0.0,0.0,0.0,0.0,0.0,0.0,2.6992,2.7441,2.7871,2.8281,2.8242,2.8184,2.8125,2.8437,2.875,2.9062,2.9434,2.9824,3.0234,3.0586,3.0996,3.1367,3.0996,3.0625,0.0,0.0,0.0,0.0,0.0,0.0,2.583,2.625,2.666,2.7207,2.8555,2.9648,3.0703,3.207,3.334,3.4629,3.6094,3.672,3.7175,3.816,3.862,3.8786,3.8731,3.8328,3.7503,3.5834,3.4697,3.323,3.0578,2.9365,2.8407,2.7306,2.7471,2.8223,2.9654,3.1176,3.3046,3.5577,3.6237,3.6861,3.7961,3.8089,3.7961,3.7613,3.7594,3.7594,3.7594,3.7851,3.7814,3.7374,3.7393,3.7209,3.6769,3.6402,3.6201,3.6201,3.6164,3.576,3.5027,3.4972,3.455,3.378,3.3028,3.2643,3.2551,3.1799,0.0,3.1322,3.0589,3.0241,3.013,2.936,2.903,2.8938,2.859,2.848,2.8407,0.0,0.0,0.0,0.0,0.0,0.0,0.0,0.0,0.0,0.0,2.8668,2.7058,0.0,0.0,0.0,0.0,0.0,0.0,0.0,0.0,0.0,0.0,2.7441,2.7871,2.8281,2.7949,2.7598,2.7246,2.6953,2.668,2.6356,2.6434,2.6512,2.659,2.6649,2.6973,2.7383,2.7305,2.7226,0.0,0.0,0.0,0.0,0.0,0.0,0.0,2.6367,2.666,2.7266,2.8906,3.0508,3.2109,3.375,3.4922,3.6152,3.8516,3.8751,3.8592,4.0151,4.0353,3.9962,3.9289,3.8328,3.7007,3.5351,3.3348,3.135,2.942,2.8212,2.7325,2.6793,2.727,2.8608,3.1176,3.2386,3.4092,3.7173,3.7649,3.7906,3.8475,3.853,3.8511,3.8438,3.8359,3.8359,0.0,3.8163,3.7704,3.6971,3.7246,3.7081,3.6347,3.6237,3.6201,3.6201,3.5889,3.5485,3.5027,3.4678,3.4275,3.3798,3.3321,3.2918,3.257,3.2093,0.0,3.1341,3.0882,3.0497,3.0149,2.9654,2.9269,2.8975,2.8902,2.8883,2.8828,0.0,0.0,0.0,0.0,0.0,0.0,0.0,3.3428,3.3317,3.251,3.1702,3.0211,2.7594,2.6786,2.6383,0.0,0.0,0.0,0.0,0.0,0.0,0.0,0.0,0.0,2.8281,2.8086,2.7891,2.7676,0.0,2.6953,2.6738,2.6289,2.6074,2.6074,2.6074,2.6191,2.6387,2.6387,2.6387,2.6367,2.6133,2.6055,0.0,0.0,0.0,0.0,0.0,2.6465,2.7246,2.873,3.0391,3.2324,3.5156,3.6973,3.8379,4.0059,4.0414,4.0431,4.0948,4.0978,4.0644,3.9811,3.8163,3.6275,3.433,3.2087,2.9978,2.8237,2.7345,2.6811,2.6628,2.7233,2.841,3.0149,3.1286,3.301,3.6036,3.6641,3.7228,3.8414,3.856,3.856,3.856,3.8743,3.886,3.8579,3.8456,3.7998,3.7191,3.6916,3.6604,3.6219,3.6201,3.6201,3.6201,3.5815,3.543,3.5027,3.4605,3.4202,3.3798,3.3175,3.279,3.257,3.1946,0.0,3.1341,3.0956,3.0552,3.0185,2.9984,2.9525,2.9012,2.9214,2.9159,2.8957,0.0,0.0,0.0,0.0,0.0,0.0,3.455,3.4781,3.4785,3.4558,3.4824,3.3709,3.0339,2.8758,2.76,0.0,0.0,0.0,0.0,0.0,0.0,0.0,0.0,0.0,0.0,0.0,0.0,2.8164,2.7832,0.0,0.0,0.0,0.0,0.0,2.6387,2.6387,2.6387,2.6387,2.6445,0.0,0.0,2.6152,0.0,0.0,0.0,0.0,0.0,2.6309,2.707,2.8359,2.9883,3.1836,3.5254,3.7773,3.9629,4.0391,4.1249,4.1837,4.1461,4.1417,4.1238,4.0253,3.7943,3.543,3.3508,3.1154,2.891,2.7381,2.6845,2.6591,2.6591,2.7105,2.7838,2.8828,2.9855,3.1561,3.4477,3.532,3.6329,3.8273,3.8505,3.856,3.856,3.8915,3.897,3.8579,3.8475,3.8071,3.7338,3.6604,3.6201,3.6201,3.6201,3.6164,3.6091,3.5687,3.5302,3.4899,3.4477,3.411,3.378,3.3065,3.268,3.2551,3.1818,0.0,0.0,3.1047,3.0681,3.0314,3.0241,2.9745,2.914,2.936,2.925,2.8975,0.0,0.0,0.0,0.0,0.0,0.0,3.455,3.5107,3.5843,3.7097,3.6924,3.5893,3.385,3.1663,2.9498,0.0,0.0,0.0,0.0,0.0,0.0,0.0,0.0,0.0,0.0,0.0,0.0,2.7787,2.7728,0.0,0.0,0.0,0.0,0.0,0.0,2.6387,2.6387,2.6387,0.0,0.0,0.0,0.0,0.0,0.0,0.0,0.0,0.0,2.6387,2.6641,2.793,2.9219,3.0664,3.2598,3.5469,3.8203,3.8672,4.0527,4.2356,4.2328,4.2326,4.2001,4.0759,3.7759,3.4839,3.3715,3.0916,2.8305,2.7542,2.6954,2.6591,2.6591,2.6646,2.7196,2.8737,2.9379,3.0809,3.4,3.5119,3.6237,3.7869,3.842,3.856,3.856,3.8597,3.8597,3.856,3.7961,3.7356,3.6916,3.6457,3.6201,3.6201,3.6201,3.6036,3.5669,3.5284,3.488,3.4458,3.4055,3.3853,3.3798,3.3358,3.2955,3.257,3.2129,0.0,0.0,3.1341,3.1084,3.0699,3.0332,2.9929,2.9489,2.9159,2.9012,2.8975,0.0,0.0,0.0,0.0,0.0,0.0,3.455,3.5157,3.5937,3.7216,3.7766,3.7518,3.5966,3.4534,3.2365,2.899,0.0,0.0,0.0,0.0,0.0,0.0,0.0,0.0,0.0,0.0,2.8203,2.8047,2.8047,0.0,0.0,0.0,0.0,0.0,0.0,2.7012,2.6777,2.7051,0.0,0.0,0.0,0.0,0.0,0.0,0.0,0.0,0.0,0.0,2.6543,2.7578,2.8086,2.8457,2.9394,3.1543,3.4238,3.6992,3.9277,4.1055,4.1771,4.2169,4.2141,4.1128,3.7662,3.4348,3.365,3.0696,2.7996,2.7484,2.7225,2.6954,2.6646,2.6736,2.6994,2.7491,2.7673,2.8645,3.1139,3.2001,3.3413,3.6237,3.6934,3.7558,3.8548,3.886,3.8786,3.831,3.7741,3.7246,3.6785,3.6439,3.6201,3.6201,3.5981,3.5779,3.5614,3.4972,3.4568,3.4403,3.4,3.3817,3.3798,3.3138,3.2753,3.2551,3.1909,0.0,0.0,3.1377,3.1139,3.0772,3.0626,3.0149,2.9544,2.9397,2.9195,2.8975,0.0,0.0,0.0,0.0,0.0,3.3445,3.455,3.5157,3.5834,3.681,3.7764,3.7965,3.6868,3.5833,3.4074,3.1226,2.9843,0.0,0.0,0.0,0.0,0.0,0.0,0.0,0.0,0.0,2.8105,2.8105,2.8105,2.8164,0.0,0.0,2.7715,2.748,0.0,0.0,0.0,0.0,0.0,0.0,0.0,0.0,0.0,0.0,0.0,0.0,0.0,0.0,0.0,0.0,0.0,2.7246,2.7422,2.8691,3.082,3.4375,3.7344,3.971,4.049,4.1418,4.1846,4.0939,3.737,3.3892,3.3406,3.054,2.7914,2.7625,2.7476,2.726,2.6791,2.6899,2.6881,2.6646,2.6683,2.7416,2.9305,3.0149,3.1689,3.4733,3.543,3.6311,3.7883,3.8566,3.864,3.8053,3.7539,0.0,3.6861,3.6439,3.6256,3.6384,3.5889,3.5559,3.5449,3.4752,3.4348,3.422,3.3945,3.3762,3.3615,3.2918,3.2533,3.2386,3.1671,0.0,0.0,3.1377,3.1212,3.0937,3.0717,3.0259,2.9727,2.9489,2.9214,2.8975,0.0,0.0,0.0,0.0,0.0,3.3445,3.455,3.5157,3.5708,3.6355,3.6908,3.6985,3.648,3.5009,3.4019,3.3949,3.2018,0.0,0.0,0.0,0.0,0.0,0.0,0.0,0.0,0.0,2.7728,2.7728,2.7728,2.7943,2.8301,2.8281,2.7832,2.7031,0.0,0.0,0.0,0.0,0.0,0.0,0.0,0.0,0.0,0.0,0.0,0.0,0.0,0.0,0.0,0.0,0.0,0.0,0.0,2.7617,2.8672,3.0449,3.459,3.8618,3.8528,3.9872,4.0976,4.0098,3.6719,3.3464,3.304,3.0332,2.7969,2.7895,2.7638,2.7314,2.7043,2.6989,2.6881,2.6646,2.6921,2.7785,2.9342,3.0626,3.2001,3.3633,3.4183,3.5064,3.662,3.7558,3.8016,3.8016,3.7283,0.0,3.6842,3.6439,3.6402,3.6824,3.6036,3.543,3.5045,3.4623,3.4202,3.3817,3.3817,3.3615,3.3211,3.279,3.2386,0.0,0.0,0.0,0.0,3.1377,3.1377,3.1286,3.0516,3.0204,3.0094,2.9287,2.8993,2.8975,0.0,0.0,0.0,0.0,0.0,0.0,3.3545,3.4073,3.4625,3.5177,3.573,3.6132,3.638,3.5148,3.4421,3.4814,3.2369,0.0,0.0,0.0,0.0,0.0,0.0,0.0,0.0,2.8086,2.8086,2.8086,2.8086,2.8164,2.8301,2.8301,2.7988,2.7513,2.8144,2.8127,0.0,0.0,0.0,0.0,0.0,0.0,0.0,0.0,0.0,0.0,0.0,0.0,0.0,0.0,0.0,0.0,0.0,0.0,0.0,2.8516,3.1309,3.4473,3.5578,3.6348,3.6704,3.6428,3.4041,3.1707,3.1584,2.9815,2.8134,2.7926,2.796,2.7799,2.7152,2.7152,2.7191,2.705,2.7105,2.7453,2.8281,2.9635,3.1286,3.3193,3.5705,3.7503,0.0,0.0,3.8218,3.7649,3.7631,0.0,3.7246,3.6861,3.6567,3.6402,3.5632,3.5155,3.5027,3.4348,3.3945,3.3817,3.3817,3.3596,3.3211,3.279,3.2386,0.0,0.0,0.0,0.0,3.1377,3.1212,3.0919,3.0406,3.002,2.9709,2.9177,2.8975,2.8975,0.0,0.0,0.0,0.0,0.0,0.0,3.3111,3.3545,3.3947,3.4073,3.4575,3.5127,3.568,3.4549,3.4139,3.5105,3.2997,0.0,0.0,0.0,0.0,0.0,0.0,0.0,2.9268,2.887,2.874,2.89,2.8495,2.8457,2.8769,2.8613,2.8514,2.8553,2.8758,2.8903,0.0,0.0,0.0,0.0,0.0,0.0,2.8046,0.0,0.0,0.0,0.0,0.0,0.0,0.0,0.0,0.0,0.0,0.0,0.0,0.0,2.9238,3.1113,3.2988,3.3972,3.4413,3.426,3.2555,3.0868,3.0715,2.9445,2.8228,2.8067,2.8174,2.8067,2.7314,2.726,2.73,2.7032,2.6958,2.7141,2.7748,2.9177,3.0956,3.2991,3.5889,3.7668,0.0,3.77,3.7869,3.7668,0.0,0.0,3.7209,3.6971,3.6567,3.5999,3.5357,3.5027,3.5027,3.422,3.3817,3.3817,3.367,3.3376,3.2973,3.257,3.2148,0.0,0.0,0.0,0.0,3.1377,3.1231,3.0956,3.0424,3.0039,2.9745,2.9177,2.8975,2.8975,0.0,0.0,0.0,0.0,0.0,0.0,0.0,3.352,3.3646,3.3187,3.352,3.4048,3.455,3.3452,3.3369,3.5006,3.378,0.0,0.0,0.0,0.0,0.0,0.0,0.0,3.0858,2.983,2.9477,2.9775,2.8847,2.8873,2.9679,2.9361,2.9481,2.9933,2.9152,2.9076,2.9518,2.8887,2.8403,2.8042,2.7412,2.784,0.0,0.0,0.0,0.0,0.0,0.0,0.0,0.0,0.0,0.0,0.0,0.0,0.0,0.0,0.0,0.0,0.0,3.2425,3.3597,3.3213,3.1907,3.064,3.0256,2.9174,0.0,2.8301,2.8301,2.814,2.753,2.7422,2.7225,2.6737,2.6682,2.6903,2.7748,2.9342,3.1194,3.3156,3.5155,3.6201,3.576,3.6476,3.7264,3.7961,0.0,0.0,3.6879,3.6803,3.6494,3.5687,3.5247,3.5009,3.499,3.4202,3.3817,3.3817,3.3413,3.301,3.2588,3.2184,3.1781,0.0,0.0,0.0,0.0,3.1377,3.1359,3.1267,3.0497,3.0185,3.0057,2.9269,2.8975,2.8975,0.0,0.0,0.0,0.0,0.0,0.0,0.0,0.0,0.0,0.0,3.3194,3.3319,3.3445,3.3176,3.3396,0.0,0.0,0.0,0.0,0.0,0.0,0.0,0.0,0.0,3.0469,2.9671,2.9084,2.8708,2.9375,2.9958,3.0458,3.1655,3.1653,3.0694,3.1246,3.0929,3.0034,2.9871,2.998,3.018,2.8856,2.9164,0.0,0.0,0.0,0.0,2.9464,2.8867,0.0,0.0,0.0,0.0,0.0,0.0,0.0,0.0,2.8301,2.8398,2.8906,0.0,2.9672,2.9575,2.9244,2.8914,0.0,2.852,2.8301,2.8301,2.8301,2.8194,2.7853,2.7584,2.7373,2.7381,2.7197,2.7325,2.8132,3.0974,3.3486,3.4899,3.6842,3.7668,3.6659,3.7481,3.8163,0.0,0.0,3.7943,3.7319,3.7283,3.6916,3.6091,3.5394,3.488,3.455,3.4055,3.3817,3.3817,3.3413,3.301,3.2588,3.2184,3.1781,0.0,0.0,0.0,3.1377,3.1377,3.1194,3.0882,3.0387,3.0002,2.9654,2.9159,2.8975,2.8975,0.0,0.0,0.0,0.0,0.0,0.0,0.0,0.0,0.0,0.0,3.3111,3.3111,3.3111,3.3111,3.3376,0.0,0.0,0.0,0.0,0.0,0.0,0.0,0.0,3.2627,3.1644,3.1033,3.0483,3.0084,3.0748,3.1423,3.2061,3.3041,3.3157,3.26,3.2779,3.1833,3.0215,3.0422,3.0698,3.0904,2.9515,0.0,0.0,0.0,0.0,0.0,3.0531,2.9569,0.0,3.0088,2.9379,2.7839,0.0,0.0,0.0,0.0,2.8654,2.89,2.8441,2.8301,2.8301,2.8301,2.8301,2.8301,2.8301,2.8301,2.8301,2.8301,2.8301,2.8228,2.796,2.7745,2.7682,2.7825,2.7567,2.7825,2.903,3.1396,3.3578,3.5155,3.6641,3.7484,0.0,3.7796,3.8144,0.0,0.0,3.7888,3.7448,3.7062,3.6494,3.5687,3.5064,3.4623,3.4403,3.4018,3.3725,3.3541,3.3138,3.2716,3.2313,3.1909,3.1598,0.0,0.0,0.0,3.1102,3.1102,3.0882,3.0479,3.0075,2.9764,2.9525,2.9122,2.8975,2.8975,0.0,0.0,0.0,0.0,0.0,0.0,0.0,0.0,0.0,0.0,0.0,0.0,0.0,0.0,0.0,0.0,0.0,0.0,0.0,0.0,0.0,0.0,3.4775,3.4311,3.33,3.2718,3.2307,3.2123,3.2551,3.3153,3.4032,3.4526,3.4809,3.4809,3.3838,3.2413,3.0719,3.1021,3.1298,3.1367,3.0337,0.0,0.0,0.0,0.0,0.0,0.0,0.0,0.0,3.0833,3.002,2.8232,2.9495,0.0,0.0,0.0,0.0,0.0,2.868,2.8398,2.8379,2.832,2.8301,2.8301,2.8301,2.8301,2.8301,2.8301,2.8301,2.8228,2.8014,2.7964,2.801,2.8174,2.8051,2.8644,3.0505,3.1744,3.3156,3.499,3.6017,0.0,3.7759,3.7704,0.0,0.0,0.0,3.7429,3.7246,3.6586,3.5815,3.4972,3.4587,3.4348,3.422,3.389,3.356,3.3211,3.2735,3.2331,3.2001,3.1579,3.1377,3.1377,0.0,0.0,3.0791,3.0791,3.0552,3.0167,2.9727,2.9562,2.9525,2.9122,2.8975,2.8975,0.0,0.0,0.0,0.0,0.0,0.0,0.0,0.0,0.0,0.0,0.0,0.0,0.0,0.0,0.0,0.0,0.0,0.0,0.0,0.0,0.0,3.4823,3.4775,3.4409,3.3549,3.2915,3.2297,3.1695,3.4005,3.5413,3.6031,3.8287,3.819,3.606,3.4558,3.3503,3.2859,3.2884,3.3171,3.3482,3.2935,0.0,0.0,0.0,0.0,0.0,0.0,0.0,0.0,3.1185,3.0662,2.9568,2.9859,0.0,0.0,0.0,0.0,0.0,2.8982,2.8828,2.873,2.8379,2.8301,2.8301,2.8301,2.8301,2.8301,2.8301,2.8301,2.8301,2.8247,2.8323,2.843,2.8452,2.9144,3.0538,3.2881,3.4018,3.4935,3.5907,0.0,3.7943,3.7099,0.0,0.0,0.0,0.0,3.7484,3.6457,3.6274,3.5687,3.4532,3.444,3.4073,3.3413,3.334,3.3285,3.3211,3.2459,3.2074,3.2001,3.1579,3.1377,3.1377,0.0,3.1157,3.0791,3.0791,3.0552,3.0167,2.9727,2.9562,2.9525,2.9122,2.8975,2.8975,0.0,0.0,0.0,0.0,0.0,0.0,0.0,0.0,0.0,0.0,0.0,0.0,0.0,0.0,0.0,0.0,0.0,0.0,0.0,0.0,3.5502,3.5649,3.5138,3.436,3.34,3.3915,3.4063,3.3742,3.6494,3.8091,3.8556,3.8933,3.8142,3.6338,3.4703,3.3765,3.3284,3.3284,3.3573,3.3958,0.0,0.0,0.0,0.0,0.0,0.0,0.0,0.0,0.0,0.0,3.1991,3.0897,3.1513,0.0,0.0,0.0,0.0,0.0,2.8999,2.8574,2.8594,2.8633,2.8633,2.8574,2.834,2.8301,2.8359,2.8574,2.8457,2.8359,2.8594,2.8875,2.9387,3.0372,3.1427,3.2458,3.3607,3.433,3.4947,0.0,0.0,3.7844,0.0,0.0,0.0,0.0,0.0,0.0,3.6256,3.5797,3.521,3.4422,3.3982,3.3596,3.323,3.279,3.257,3.257,3.2184,3.1891,3.1653,3.1469,3.1377,3.1377,0.0,3.1029,3.0479,3.0479,3.0094,2.9525,2.9324,2.925,2.9292,2.9287,2.9153,2.9035,0.0,0.0,0.0,0.0,0.0,0.0,0.0,0.0,0.0,0.0,0.0,0.0,0.0,0.0,0.0,0.0,0.0,0.0,0.0,3.5125,3.5647,3.5844,3.5308,3.4718,3.4133,3.536,3.6145,3.654,3.9102,4.0547,4.0908,3.9176,3.7733,3.6531,3.4944,3.4006,3.3645,3.3645,3.3861,3.415,0.0,0.0,0.0,0.0,0.0,0.0,0.0,0.0,0.0,0.0,0.0,0.0,0.0,0.0,0.0,3.0949,3.1103,3.1505,2.9391,2.8866,2.8838,2.8902,2.8848,2.8769,2.875,2.8672,2.875,2.9277,2.9043,2.8848,2.916,2.9668,3.0587,3.232,3.3467,3.4307,3.469,3.5065,3.5597,3.6479,3.7315,3.7873,0.0,0.0,0.0,0.0,0.0,0.0,3.611,3.5338,3.4642,3.4147,3.3541,3.3138,3.2936,3.2313,3.2001,3.2001,3.1909,3.1689,3.1377,3.1377,3.1377,3.1377,3.1286,3.0846,3.0185,3.0094,2.9635,2.8975,2.8975,2.9035,2.9153,2.939,2.939,2.9272,0.0,0.0,0.0,0.0,0.0,0.0,0.0,0.0,0.0,0.0,0.0,0.0,0.0,0.0,0.0,0.0,0.0,0.0,0.0,3.5006,3.516,3.4222,3.5064,3.5975,3.6884,3.7008,3.7801,3.933,4.1509,4.2602,4.2602,4.0451,3.8647,3.706,3.5473,3.4703,3.4679,3.4679,3.4679,3.4727,3.4679,0.0,0.0,0.0,0.0,0.0,0.0,0.0,0.0,0.0,0.0,0.0,0.0,0.0,3.4262,3.2095,3.2246,3.269,3.0927,3.0414,3.0199,2.9179,2.8633,2.8633,2.9805,2.9746,2.9726,3.0566,3.0391,3.0078,3.0098,3.0801,3.1832,3.3181,3.4547,3.5946,3.7478,0.0,3.8179,3.9445,3.9003,0.0,0.0,0.0,0.0,0.0,0.0,0.0,3.5712,3.4892,3.4092,3.334,3.3248,3.2863,3.2093,3.2038,3.2001,3.2001,3.1616,3.1414,3.1377,3.1377,3.1377,3.1359,3.0992,3.0589,3.0167,2.9782,2.936,2.8975,2.8975,2.9213,2.945,2.9509,2.9627,2.9863,0.0,0.0,0.0,0.0,0.0,0.0,0.0,0.0,0.0,0.0,0.0,3.3111,3.3111,0.0,0.0,0.0,0.0,0.0,0.0,3.477,3.5332,3.526,3.5137,3.5785,3.7156,3.8503,3.997,4.1581,4.2687,4.2904,4.2265,3.9753,3.8094,3.7132,3.5881,3.5497,3.5809,3.5809,3.5617,3.5328,3.5328,3.5208,0.0,0.0,0.0,0.0,0.0,0.0,0.0,0.0,3.4364,3.4164,3.4164,3.4458,3.4531,3.3051,3.2398,3.1913,3.0559,2.9876,2.9451,2.9035,2.8809,2.8945,2.9961,3.0293,3.0723,3.1836,3.1934,3.1738,3.1465,3.2129,3.3199,3.4801,3.6186,3.7436,3.8611,3.9013,3.909,3.8747,0.0,0.0,0.0,0.0,0.0,0.0,0.0,0.0,3.56,3.4818,3.4144,3.3589,3.307,3.2511,3.2001,3.1958,3.1829,3.1616,3.1451,3.1377,3.1359,3.1121,3.1011,3.0992,3.0589,3.0185,2.98,2.9635,2.9342,2.9035,2.9213,2.939,2.9568,2.9922,2.9981,2.9922,0.0,0.0,0.0,0.0,0.0,0.0,0.0,0.0,3.3111,0.0,0.0,0.0,0.0,3.2896,0.0,0.0,0.0,0.0,3.3873,3.4725,3.526,3.5356,3.5186,3.5787,3.726,3.9351,4.11,4.2578,4.3361,4.3072,4.1677,3.9345,3.795,3.7397,3.617,3.6002,3.6651,3.6483,3.6194,3.5857,3.5857,3.5857,0.0,0.0,0.0,0.0,0.0,0.0,0.0,0.0,3.4775,3.4775,3.4775,3.4775,3.4677,3.3918,3.3201,3.2275,3.0845,3.0107,2.9554,2.8873,2.8828,2.9297,3.0703,3.1172,3.1777,3.3457,3.3496,3.3105,3.2812,3.3125,3.3984,3.5742,3.7248,3.8503,3.9468,3.9758,3.9605,0.0,0.0,0.0,0.0,0.0,0.0,0.0,0.0,0.0,0.0,3.4822,3.4146,3.3535,3.2955,3.2516,3.2144,3.2059,3.191,3.1589,3.1589,3.1506,3.1359,3.1101,3.098,3.0962,3.0426,3.0039,2.9744,2.9494,2.9232,2.9035,2.939,2.9568,2.9686,3.0216,3.0333,3.0235,0.0,0.0,0.0,0.0,0.0,0.0,0.0,0.0,3.3111,3.3068,3.3068,0.0,0.0,0.0,0.0,0.0,0.0,0.0,3.4337,3.4871,3.4848,3.403,3.504,3.6199,3.7518,3.9382,4.0884,4.199,4.3553,4.3241,4.1124,3.9537,3.8503,3.7902,3.6338,3.6218,3.718,3.6651,3.6411,3.6411,3.6411,3.6411,3.6362,0.0,0.0,0.0,0.0,0.0,0.0,0.0,3.4775,3.4775,3.4775,3.4775,3.4799,3.4775,3.4775,3.4335,3.2174,3.1586,3.1073,2.8867,2.8613,2.9609,3.2226,3.248,3.291,3.5508,3.5,3.4101,3.4101,3.375,3.4023,3.5762,3.7461,3.9043,4.0332,4.0156,0.0,0.0,0.0,0.0,0.0,0.0,0.0,0.0,0.0,0.0,0.0,3.4727,3.3918,3.3065,3.3028,3.2838,3.2422,3.2422,3.223,3.191,3.191,3.1717,3.1359,3.1291,3.1313,3.1258,3.0437,3.0083,3.0046,2.9338,2.8975,2.9035,2.939,2.9686,2.9922,3.0274,3.0626,3.0898,0.0,0.0,0.0,0.0,0.0,0.0,0.0,0.0,3.2766,3.2661,3.2723,0.0,0.0,0.0,0.0,0.0,0.0,0.0,3.4125,3.4631,3.48,3.4558,3.4895,3.5208,3.562,3.7304,3.9585,4.2578,4.2254,4.122,3.9489,3.8262,3.7781,3.795,3.7493,3.7661,3.831,3.7757,3.7517,3.7493,3.7108,3.718,3.7372,0.0,0.0,0.0,0.0,0.0,0.0,0.0,0.0,0.0,3.4775,3.5088,3.5304,3.4895,3.4523,3.4013,3.2992,3.1826,3.0726,3.011,3.0123,3.0898,3.3184,3.3125,3.3437,3.6328,3.6601,3.6152,3.5547,3.582,3.6309,3.6836,3.8105,3.9258,3.998,3.998,0.0,0.0,0.0,0.0,0.0,0.0,0.0,0.0,0.0,0.0,0.0,3.4401,3.3685,3.3436,3.3065,3.2727,3.2422,3.2613,3.246,3.1816,3.1816,3.1544,3.0956,3.0928,3.0717,3.0419,3.0118,2.9933,2.9933,2.9505,2.9213,2.9035,2.9568,2.9804,2.9981,3.0528,3.082,3.0898,0.0,0.0,0.0,0.0,0.0,0.0,3.2723,3.2766,3.281,3.2705,3.268,3.2636,0.0,0.0,0.0,0.0,0.0,0.0,3.4318,3.4607,3.4775,3.4775,3.4775,3.5112,3.5761,3.7211,3.8924,4.086,4.0451,3.9633,3.8479,3.8262,3.8431,3.8936,3.9152,3.932,3.9417,3.908,3.8575,3.7974,3.7878,3.7902,3.7853,0.0,0.0,0.0,0.0,0.0,0.0,0.0,0.0,0.0,3.4775,3.4991,3.5232,3.4871,3.4598,3.4143,3.3392,3.2222,3.1317,3.1784,3.1503,3.1758,3.4062,3.5117,3.6172,3.8164,3.8164,3.7598,3.6914,3.6777,0.0,3.7031,3.7832,3.8652,3.9297,0.0,0.0,0.0,0.0,0.0,0.0,0.0,0.0,0.0,0.0,0.0,0.0,3.416,3.3747,3.3508,3.3237,3.2975,3.2804,3.2821,3.2546,3.2003,3.1832,3.1332,3.0668,3.0794,3.0672,3.0426,3.023,3.0039,2.9863,2.9745,2.9568,2.939,2.9922,3.0098,3.0157,3.0704,3.0898,3.0898,0.0,0.0,3.268,3.2636,0.0,0.0,3.2982,3.2982,3.2982,3.2982,3.2816,3.2599,0.0,0.0,0.0,3.3258,0.0,0.0,0.0,3.4775,3.4799,3.4847,3.4895,3.5641,3.7084,3.8335,3.8602,3.7829,3.8455,3.8455,3.7926,3.9128,3.997,4.0499,4.1028,4.0956,4.0451,4.0306,3.9393,3.8094,3.8551,3.8455,3.7998,3.7348,0.0,0.0,0.0,0.0,0.0,0.0,0.0,0.0,3.4775,3.4799,3.4847,3.4799,3.4799,3.4627,3.3621,3.2881,3.2726,3.3854,3.3179,3.2885,3.5164,3.7943,4.0131,4.0332,3.9512,3.8594,3.8086,3.7109,3.6445,3.6699,3.7109,3.7676,3.8418,0.0,0.0,0.0,0.0,0.0,0.0,0.0,0.0,0.0,0.0,0.0,0.0,3.4023,3.3789,3.332,3.334,3.334,3.3301,3.293,3.2591,3.2243,3.1796,3.1191,3.055,3.0847,3.1026,3.0969,3.0624,3.0274,2.9922,2.9922,2.9922,2.9922,3.0274,3.0392,3.045,3.0762,3.0898,3.0898,0.0,0.0,3.24,3.2201,0.0,0.0,3.2069,3.2157,3.2201,3.2025,3.2435,3.2532,3.1942,3.3259,0.0,3.3355,3.4219,0.0,0.0,3.4775,3.5016,3.5425,3.5833,3.6218,3.6579,3.6847,3.6919,3.6747,3.7685,3.7902,3.7397,3.932,4.0499,4.1028,4.1581,4.1509,4.0932,3.9681,3.896,3.8623,3.8286,3.8359,3.8479,3.7108,3.6771,0.0,0.0,0.0,0.0,0.0,0.0,0.0,3.4775,3.5112,3.5376,3.4895,3.5112,3.5303,3.4626,3.4373,3.4471,3.5472,3.7015,3.8266,3.8006,3.9785,4.111,3.9755,3.9824,3.9766,3.8633,3.8769,3.8652,3.7363,3.7812,3.8242,0.0,0.0,0.0,0.0,0.0,0.0,0.0,0.0,0.0,0.0,0.0,0.0,3.3594,3.3555,3.3223,3.2461,3.2754,3.2773,3.2441,3.2344,3.2129,0.0,3.1579,3.1247,3.08,3.0951,3.0992,3.0898,3.0801,3.0587,3.0274,3.0274,3.0157,2.9922,3.0274,3.0392,3.045,3.0762,3.0898,3.0898,0.0,0.0,0.0,0.0,0.0,0.0,0.0,0.0,3.2157,3.2025,3.2269,3.2253,3.1874,3.2977,0.0,0.0,3.41,0.0,0.0,0.0,3.5015,3.5593,3.6122,3.6531,3.6771,3.6531,3.6531,3.6771,3.7084,3.7348,3.7613,3.9513,4.0691,4.122,4.2014,4.1774,4.0739,3.9922,3.9128,3.8407,3.8383,3.8407,3.8334,3.7493,3.7012,3.6747,3.617,0.0,0.0,0.0,0.0,0.0,0.0,0.0,3.5184,3.4847,3.4967,3.5184,3.4895,3.4769,3.5017,3.6365,3.9282,4.1264,3.9412,4.0258,4.0902,3.9239,3.9609,3.9766,3.8242,3.834,3.8223,3.6894,3.7051,3.7207,0.0,0.0,0.0,0.0,0.0,0.0,0.0,0.0,0.0,0.0,0.0,3.3574,3.3144,3.293,3.2715,3.248,3.248,3.2383,3.2229,3.1953,3.1738,3.1523,3.1309,3.1094,3.0898,3.0937,3.0917,3.0898,3.0898,3.082,3.0645,3.0645,3.0528,3.0411,3.0587,3.0645,3.0645,3.084,3.0898,3.0898,0.0,0.0,0.0,0.0,0.0,0.0,0.0,0.0,0.0,3.2391,3.2313,3.218,3.2107,3.253,3.2945,0.0,0.0,0.0,0.0,0.0,0.0,3.5737,3.6266,3.6795,3.7324,3.6819,3.6795,3.7324,3.6795,3.7276,3.8695,4.0042,4.0956,4.1485,4.2434,4.1942,4.0523,4.0234,3.9296,3.8022,3.8479,3.8407,3.795,3.7781,3.7228,3.6555,3.6723,3.6002,3.4967,3.5352,0.0,0.0,0.0,0.0,3.4775,3.4775,3.4703,3.4655,3.4751,3.4987,3.5581,3.7199,4.049,4.2716,4.0223,4.0459,4.0693,3.8962,3.9092,3.9082,3.7578,3.7246,3.6914,3.6055,3.5918,0.0,0.0,0.0,0.0,0.0,0.0,0.0,0.0,0.0,0.0,0.0,0.0,3.3027,3.2598,3.2324,3.2266,3.2461,3.2207,3.2031,3.2013,3.1601,3.1406,3.1406,3.1055,3.0898,3.0898,3.0898,3.0898,3.0898,3.0898,3.0898,3.0898,3.0898,3.0898,3.0898,3.0898,3.0898,3.0898,3.0898,3.0898,3.0898,0.0,0.0,0.0,0.0,0.0,0.0,0.0,0.0,0.0,0.0,3.2849,3.2945,3.2488,3.3446,3.3928,3.3379,3.3929,3.4461,3.4799,0.0,0.0,3.6266,3.6819,3.7324,3.7853,3.7348,3.7348,3.7878,3.7348,3.8575,4.1437,4.1711,4.2038,4.2602,4.2747,4.2134,4.098,3.9609,3.8623,3.7998,3.807,3.8046,3.7878,3.6964,3.6819,3.6916,3.5617,3.5304,3.5449,3.5015,3.4847,0.0,0.0,0.0,3.4775,3.4775,3.4462,3.4198,3.4655,3.6165,3.775,3.863,4.0888,4.2465,4.0913,4.1883,4.2282,3.9212,3.8336,3.8008,3.7402,3.7012,3.6465,3.5625,3.5488,0.0,0.0,0.0,0.0,0.0,0.0,0.0,0.0,0.0,0.0,0.0,3.2305,3.2148,3.1719,3.1992,3.1855,3.1172,3.1445,3.1426,3.1074,3.0996,3.0976,3.0976,3.0918,3.0898,3.0898,3.0898,3.0898,3.0898,3.0898,3.0898,3.0898,3.0898,3.0898,3.0898,3.0898,3.0898,3.0898,3.0898,3.0898,3.0898,0.0,0.0,0.0,0.0,0.0,0.0,0.0,0.0,0.0,0.0,0.0,3.3212,3.2971,3.369,3.4052,3.3741,3.4269,3.4679,3.4799,3.4991,3.5545,3.6362,3.6338,3.6699,3.7517,3.6723,3.6723,3.7541,3.6723,3.8407,4.2482,4.2482,4.3024,4.4058,4.3518,4.2506,4.1076,3.9489,3.8503,3.7974,3.7974,3.8166,3.8359,3.7589,3.7421,3.7517,3.6507,3.593,3.5569,3.5352,3.5064,3.4775,3.4775,0.0,0.0,0.0,3.4414,3.4102,3.4631,3.593,3.7383,3.865,4.0459,4.1579,4.0479,4.113,4.1298,3.9088,3.7877,3.6997,3.6348,3.5859,3.5449,3.5059,0.0,0.0,0.0,0.0,0.0,0.0,0.0,0.0,0.0,0.0,0.0,0.0,3.1797,3.1719,3.1523,3.1484,3.1387,3.125,3.1191,3.1074,3.0898,3.0625,3.0508,3.0508,3.0762,3.0898,3.0898,3.0898,3.0898,3.0898,3.0898,3.0898,3.0898,3.0898,3.0898,3.0898,3.0898,3.0898,3.0898,3.0898,3.0898,3.0898,0.0,0.0,0.0,0.0,0.0,0.0,0.0,0.0,0.0,0.0,0.0,3.3477,3.3477,0.0,0.0,0.0,3.4366,3.4631,3.4775,3.4775,3.5232,3.617,3.5954,3.6242,3.7284,3.6341,3.6317,3.7308,3.6317,3.8334,4.3168,4.3313,4.4563,4.668,4.5068,4.3469,4.1677,4.009,3.9248,3.896,3.8407,3.8455,3.8767,3.819,3.807,3.8094,3.7276,3.6579,3.6002,3.5857,3.5473,3.4967,3.4967,3.4895,0.0,0.0,0.0,3.4222,3.439,3.5304,3.6531,3.7878,3.9417,4.0488,3.9919,4.0323,4.0379,0.0,3.7749,3.675,3.5431,3.4805,3.4512,3.4394,0.0,0.0,0.0,0.0,0.0,0.0,0.0,0.0,0.0,0.0,0.0,0.0,3.1367,3.1367,3.1367,3.1055,3.1035,3.1348,3.1055,3.084,3.0723,3.0371,3.0195,3.0195,3.0664,3.0898,3.0898,3.0898,3.0898,3.0898,3.0898,3.0898,3.0898,3.0898,3.0898,3.0898,3.0898,3.0898,3.0898,3.0898,3.0898,3.0898,0.0,0.0,0.0,0.0,0.0,0.0,0.0,0.0,0.0,0.0,0.0,0.0,3.3958,3.3982,3.3982,3.3982,3.4006,3.4246,3.4751,3.4775,3.5064,3.5641,3.6122,0.0,3.7542,3.6804,3.6729,3.7567,3.6729,3.908,4.4213,4.4717,4.7209,5.1032,4.793,4.5381,4.3373,4.1725,4.1341,4.1581,3.9585,3.8791,3.8767,3.819,3.831,3.8575,3.7012,3.6723,3.7036,3.6531,3.6002,3.5569,3.5569,3.5232,3.4775,0.0,0.0,0.0,3.3621,3.4487,3.5785,3.6386,3.7733,3.9025,3.9498,4.041,4.0639,3.8711,3.8306,3.7523,3.5081,3.4375,3.3965,3.3555,0.0,0.0,0.0,0.0,0.0,0.0,0.0,0.0,0.0,0.0,0.0,0.0,3.0918,3.0918,3.0918,3.0898,3.0898,3.0918,3.0898,3.0684,3.0234,3.0215,3.0195,3.0195,3.0664,3.0898,3.0898,3.0898,3.0898,3.0898,3.0898,3.0898,3.0898,3.0898,3.0898,3.0898,3.0898,3.0898,3.0898,3.0898,3.0898,3.0898,0.0,0.0,0.0,0.0,0.0,0.0,0.0,0.0,0.0,0.0,0.0,0.0,0.0,3.4486,3.4486,3.4486,3.4486,3.4583,3.4775,3.4775,3.5208,3.6074,3.5978,3.6365,3.7336,3.6389,3.6221,3.6853,3.6221,3.8094,4.2351,4.3853,4.575,4.7882,4.7064,4.6102,4.4876,4.1942,4.0595,4.0355,3.9272,3.9032,3.9224,3.8334,3.8551,3.9104,3.7493,3.7036,3.7108,3.6579,3.605,3.5617,3.5617,3.5256,3.4703,3.4366,3.427,3.4198,3.3861,3.3933,3.4414,3.5593,3.6338,3.6988,3.7853,3.8888,3.9443,3.8785,3.7679,3.6537,3.5601,3.4648,3.3678,0.0,0.0,0.0,0.0,0.0,0.0,0.0,0.0,0.0,0.0,0.0,0.0,0.0,0.0,3.0644,3.0078,3.0293,3.0312,3.0059,3.0039,2.9824,2.9375,2.9648,2.9648,2.9375,3.0098,3.0312,3.0059,3.0625,3.0723,3.0469,3.0762,3.0898,3.0898,3.0898,3.0898,3.0898,3.0898,3.0898,3.0898,3.0898,3.0898,3.0898,0.0,0.0,0.0,3.4775,0.0,3.3549,3.3549,3.3236,3.314,3.3501,0.0,0.0,0.0,0.0,3.4775,3.4775,3.4775,3.4775,3.4775,3.4775,3.5136,3.5833,3.5881,3.6269,3.707,3.6293,3.61,3.6512,3.5932,3.7445,4.0956,4.2711,4.4587,4.6439,4.5886,4.6126,4.6776,4.3794,4.2303,4.1846,4.0258,4.0042,4.0571,3.9657,3.9994,4.0739,3.9296,3.8575,3.8166,3.7445,3.6747,3.6122,3.593,3.54,3.4703,3.4366,3.427,3.4222,3.403,3.3789,3.3837,3.504,3.5232,3.5352,3.6411,3.7228,3.7733,3.7733,3.6828,3.5826,3.5075,3.4168,3.3244,0.0,0.0,0.0,0.0,0.0,0.0,0.0,0.0,0.0,0.0,0.0,0.0,0.0,0.0,0.0,2.9646,2.9824,2.9863,2.9646,2.9434,2.9219,2.8926,2.9199,2.9199,2.8926,2.9648,2.9922,2.9805,3.0391,3.0566,3.0449,3.0762,3.0898,3.0898,3.0898,3.0898,3.0898,3.0898,3.0898,3.0898,3.0898,3.0898,3.0898,3.4775,3.4775,3.4775,3.4775,3.4342,3.3982,3.3982,3.3982,3.3982,3.3982,0.0,0.0,0.0,0.0,0.0,3.4847,3.4847,3.4847,3.4847,3.4799,3.4799,3.4823,3.5857,3.6536,3.6814,3.6536,3.6512,3.6765,3.5982,3.7228,4.0331,4.1413,4.3866,4.7233,4.4683,4.5573,4.8844,4.7185,4.6559,4.6319,4.2639,4.1822,4.2771,4.2134,4.2567,4.3337,4.2303,4.1268,4.0258,3.92,3.8142,3.7156,3.6579,3.5689,3.4799,3.4775,3.4775,3.4679,0.0,0.0,0.0,3.4631,3.4342,3.4222,3.5304,3.5569,3.5569,3.5593,3.5951,3.5647,3.3462,3.3037,3.2703,0.0,0.0,0.0,0.0,0.0,0.0,0.0,0.0,0.0,0.0,0.0,0.0,0.0,2.957,2.9607,2.9531,2.9531,2.9531,2.9531,2.9121,2.8906,2.8906,2.8906,2.8906,2.8906,2.9355,2.9766,3.0156,3.0176,3.0449,3.0879,3.0879,3.0898,3.0898,3.0898,3.0898,3.0898,3.0898,3.0898,3.0898,3.0898,3.0898,3.0898,3.4775,3.4775,3.4775,3.4775,3.4342,3.3982,3.3982,3.3741,3.3621,0.0,0.0,0.0,3.5352,3.6074,3.6531,3.6531,3.6531,3.6218,3.5449,3.54,3.5569,3.5954,3.6242,3.6823,3.7646,3.7232,3.6847,3.6512,3.6317,3.6843,3.8118,3.997,4.1774,4.3529,4.4323,4.5044,4.5477,4.2735,4.2904,4.4693,4.1798,4.1701,4.312,4.1461,4.1485,4.2254,4.1196,4.0884,4.0812,3.9753,3.9176,3.8647,3.694,3.593,3.5328,3.4895,3.4775,3.4751,3.4607,0.0,0.0,0.0,0.0,0.0,3.3765,3.4222,3.4534,3.4919,3.4728,3.4462,3.4207,3.3462,3.2599,0.0,0.0,0.0,0.0,0.0,0.0,0.0,0.0,0.0,0.0,0.0,0.0,0.0,2.9394,2.9297,2.8672,2.8652,2.8652,2.8652,2.8535,2.8457,2.8457,2.8457,2.8457,2.8476,2.8887,2.916,2.9297,2.9902,3.0273,3.041,3.0742,3.0898,3.0898,3.0898,3.0898,3.0898,3.0898,3.0898,3.0898,3.0898,3.0898,3.0898,3.4823,3.4967,3.5111,3.5111,3.4895,3.4655,3.4655,3.4631,3.4607,0.0,0.0,0.0,3.6218,3.7421,3.8022,3.7565,3.7324,3.694,3.6314,3.6074,3.6074,3.6386,3.6627,3.7012,3.7637,3.7348,3.7036,3.6723,3.6507,3.6675,3.7228,3.8695,3.997,4.1028,4.1798,4.2471,4.2832,3.985,4.0836,4.4165,4.2904,4.3361,4.4732,4.3746,4.389,4.4491,4.3673,4.3289,4.2904,4.1172,4.0018,3.8936,3.7012,3.6338,3.6074,3.5112,3.4943,3.5063,3.4847,3.4222,3.3789,3.4462,0.0,0.0,3.3428,3.3501,3.343,3.3789,3.3718,3.3555,3.3384,3.2825,3.2075,0.0,0.0,0.0,0.0,0.0,0.0,0.0,0.0,0.0,0.0,2.9043,2.8926,2.8672,2.8887,2.8828,2.832,2.8301,2.8301,2.8301,2.8301,2.8301,2.8301,2.8301,2.8301,2.8301,2.8711,2.9004,2.9219,2.9883,3.0293,3.0508,3.0781,3.0898,3.0898,3.0898,3.0898,3.0898,3.0898,3.0898,3.0898,3.0898,3.0898,3.0898,0.0,3.5256,3.5641,3.5689,3.5761,3.5809,3.5881,3.6218,3.6362,0.0,3.6531,3.718,3.7829,3.908,3.9489,3.8503,3.7829,3.7421,3.73,3.6795,3.6483,3.6483,3.6988,3.7276,3.7276,3.7348,3.7324,3.7204,3.6723,3.6723,3.7204,3.7685,3.8455,3.9393,3.8479,3.9104,4.0691,3.8599,4.0114,4.3901,4.4549,4.5645,4.6848,4.7257,4.7738,4.8122,4.7593,4.68,4.5621,4.3024,4.0691,3.8647,3.7156,3.6867,3.6819,3.5425,3.5304,3.5521,3.5112,3.4558,3.4366,3.5304,3.4126,0.0,3.3646,3.3212,3.2587,3.2587,3.2971,3.3028,3.2132,3.1965,3.1743,0.0,0.0,0.0,0.0,0.0,0.0,0.0,0.0,0.0,2.832,2.8301,2.8301,2.8301,2.8301,2.8301,2.8301,2.8301,2.8301,2.8301,2.8301,2.8301,2.8301,2.8301,2.8301,2.8301,2.8711,2.9121,2.9512,2.998,3.043,3.082,3.0859,3.0898,3.0898,3.0898,3.0898,3.0898,3.0898,3.0898,3.0898,3.0898,3.0898,3.0898,3.4799,3.5256,3.5761,3.617,3.6603,3.7036,3.7445,3.7252,3.7324,3.8094,3.9393,4.0763,4.2134,4.1822,4.1413,4.122,3.9946,3.8767,3.7878,3.7324,3.7036,3.7036,3.7541,3.7829,3.7829,3.8262,3.807,3.7204,3.7084,3.7084,3.7204,3.73,3.7685,3.831,3.8551,3.8647,3.8719,4.0355,4.1076,4.1293,4.2663,4.4876,4.7305,4.6992,4.7185,4.7593,4.7064,4.6728,4.6223,4.3962,4.1533,3.932,3.8575,3.7517,3.6507,3.6194,3.5881,3.5689,3.6002,3.5713,3.5256,0.0,3.4631,0.0,3.3044,3.2971,3.314,3.314,3.3212,3.3502,3.4078,3.4172,3.3714,0.0,0.0,0.0,0.0,0.0,0.0,0.0,0.0,0.0,2.8301,2.8301,2.8301,2.8301,2.8301,2.8301,2.8301,2.8301,2.8301,2.8301,2.8301,2.8301,2.8301,2.8301,2.8301,2.8301,2.8711,2.8965,2.9062,2.9844,3.0254,3.0351,3.0723,3.0898,3.0898,3.0898,3.0898,3.0898,3.0898,3.0898,3.0898,3.0898,3.0898,3.0898,3.528,3.5857,3.6579,3.7108,3.7637,3.8262,3.9056,3.9176,3.9465,4.0282,4.2014,4.3241,4.3481,4.3289,4.2832,4.2038,4.0763,3.9657,3.8839,3.831,3.7878,3.7589,3.7829,3.8118,3.8383,3.8407,3.8262,3.7998,3.7733,3.7589,3.7589,3.7589,3.7733,3.7974,3.7998,3.7998,3.807,3.9417,4.0138,4.0667,4.3842,4.591,4.7233,4.8291,4.8868,4.9036,4.8483,4.7449,4.603,4.4154,4.2471,0.0,3.8671,3.819,3.8142,0.0,3.6411,3.6411,0.0,0.0,0.0,3.5689,0.0,0.0,0.0,3.326,3.2971,3.3236,3.2851,3.2731,3.3525,0.0,3.3481,0.0,0.0,0.0,0.0,0.0,0.0,0.0,0.0,0.0,2.8262,2.8301,2.8301,2.8301,2.8301,2.8301,2.8301,2.8301,2.8301,2.8301,2.8301,2.8301,2.8301,2.8301,2.8301,2.8301,2.8711,2.9023,2.9258,2.9902,3.0332,3.0547,3.0781,3.0898,3.0898,3.0898,3.0898,3.0898,3.0898,3.0898,3.0898,3.0898,3.0898,3.0898,3.5569,3.6314,3.7204,3.7733,3.8455,3.9296,4.0234,4.0763,4.1341,4.2158,4.3938,4.4813,4.4202,4.4093,4.3794,4.2808,4.1293,4.0331,4.021,3.9345,3.8623,3.8166,3.8142,3.831,3.8647,3.831,3.831,3.8671,3.819,3.7974,3.7974,3.7974,3.8046,3.8118,3.7589,3.7805,3.8599,3.8479,3.9441,4.1365,4.5525,4.6824,4.6535,4.9229,5.0239,5.0191,4.983,4.8267,4.6126,4.4395,4.3409,4.2351,3.9128,3.9032,0.0,0.0,0.0,0.0,0.0,0.0,0.0,0.0,0.0,3.5473,0.0,0.0,0.0,0.0,0.0,0.0,0.0,0.0,0.0,0.0,0.0,0.0,0.0,0.0,0.0,0.0,0.0,0.0,0.0,2.8301,2.8301,2.8301,2.8301,2.8301,2.8301,2.8301,2.8301,2.8301,2.8301,2.8301,2.8301,2.8301,2.8301,2.8301,2.8711,2.9101,2.9453,2.9961,3.041,3.0762,3.0859,3.0898,3.0898,3.0898,3.0898,3.0898,3.0898,3.0898,3.0898,3.0898,3.0898,3.0898,3.4967,3.5761,3.6675,3.7204,3.8527,3.9705,4.0306,4.0451,4.1172,4.3096,4.4395,4.5453,4.6271,4.4708,4.4106,4.5357,4.2351,4.0956,4.2362,4.0138,3.8791,3.8719,3.8719,3.8527,3.8094,3.8503,3.8503,3.807,3.8022,3.7974,3.7974,3.7974,3.8238,3.8695,3.8142,3.8984,4.0787,4.0331,4.1293,4.3337,4.5309,4.5501,4.4837,4.7545,4.8555,4.8628,4.9012,4.8676,4.7714,0.0,4.4275,4.3192,0.0,4.0306,3.9128,3.9753,0.0,0.0,0.0,0.0,0.0,0.0,3.8094,0.0,0.0,0.0,3.439,3.3982,0.0,0.0,0.0,0.0,0.0,0.0,0.0,0.0,0.0,0.0,0.0,0.0,0.0,0.0,0.0,2.8301,2.8301,2.8301,2.8301,2.8301,2.8301,2.8301,2.8301,2.8301,2.8301,2.8301,2.8301,2.8301,2.8301,2.8301,2.8711,2.8945,2.9023,2.9824,3.0234,3.0293,3.0703,3.0898,3.0898,3.0898,3.0898,3.0898,3.0898,3.0898,3.0898,3.0898,3.0898,3.0898,3.5328,3.6146,3.7036,3.7565,3.8479,3.9537,4.0691,4.2158,4.3673,4.5164,4.603,4.692,4.7978,4.6728,4.5862,4.591,4.3938,4.2591,4.2386,4.0691,3.9874,4.0186,3.9609,3.932,3.9393,3.9008,3.8695,3.8455,3.8142,3.7974,3.7974,3.7974,3.8455,3.9248,3.8719,3.9489,4.1196,4.1268,4.1629,4.2327,4.4189,4.4563,4.4275,4.7834,4.9205,4.9205,4.9109,4.8555,4.7569,0.0,4.4765,0.0,0.0,0.0,0.0,3.9801,0.0,0.0,0.0,0.0,0.0,0.0,0.0,0.0,3.6074,0.0,3.4342,0.0,0.0,0.0,0.0,0.0,0.0,0.0,3.3862,0.0,0.0,0.0,0.0,0.0,0.0,0.0,0.0,0.0,0.0,0.0,2.8301,2.8301,2.8301,2.8301,2.8301,2.8301,2.8301,2.8301,2.8301,2.8301,2.8301,2.8301,2.8476,2.8691,2.8945,2.9551,2.9961,3.0215,3.0684,3.0898,3.0898,3.0898,3.0898,3.0898,3.0898,3.0898,3.0898,3.0898,3.0898,3.0898,3.5809,3.6579,3.73,3.7685,3.8359,3.9345,4.0932,4.3072,4.4924,4.6126,4.6607,4.7377,4.8724,4.805,4.7425,4.7257,4.6126,4.4804,4.3361,4.2134,4.1317,4.098,4.0379,4.009,4.0186,3.9417,3.896,3.8815,3.8262,3.8142,3.8431,3.8286,3.8864,4.0018,3.9801,4.0571,4.2086,4.2615,4.2952,4.3241,4.4659,4.5164,4.5444,4.8171,4.9397,4.9589,4.906,4.8363,4.7497,4.6054,4.5414,0.0,4.2303,0.0,4.2193,0.0,0.0,0.0,3.9922,0.0,0.0,0.0,0.0,0.0,0.0,0.0,0.0,0.0,0.0,0.0,0.0,0.0,0.0,0.0,0.0,3.3982,0.0,0.0,0.0,0.0,0.0,0.0,0.0,0.0,0.0,0.0,0.0,2.8301,2.8301,2.8301,2.8301,2.8301,2.8301,2.8301,2.8301,2.8301,2.8301,2.8301,2.8301,2.8516,2.8945,2.9375,2.9805,3.0215,3.0684,3.0898,3.0898,3.0898,3.0898,3.0898,3.0898,3.0898,3.0898,3.0898,3.0898,3.0898,3.6266,3.6819,3.7204,3.7204,3.8118,3.9345,4.0932,4.211,4.3409,4.4909,4.5149,4.6006,4.8098,4.7834,4.8315,5.0383,4.9084,4.7714,4.6631,4.5029,4.3012,4.0547,4.0884,4.0667,3.9657,3.9609,3.932,3.8815,3.8262,3.8527,3.9537,3.9032,3.9633,4.1148,4.1653,4.276,4.4213,4.4741,4.6199,4.8026,4.7569,4.8002,4.8796,0.0,4.8219,4.9036,4.8507,0.0,0.0,4.7016,4.6319,0.0,0.0,0.0,0.0,0.0,0.0,0.0,0.0,0.0,0.0,3.997,0.0,0.0,0.0,0.0,3.6819,0.0,0.0,0.0,0.0,0.0,3.54,3.4847,3.4318,0.0,0.0,0.0,0.0,0.0,0.0,0.0,0.0,0.0,0.0,0.0,0.0,0.0,2.8301,2.8301,2.8301,2.8301,2.8301,2.8301,2.8301,2.8301,2.8301,2.8301,2.8301,2.8516,2.8945,2.9375,2.9805,3.0215,3.0684,3.0898,3.0898,3.0898,3.0898,3.0898,3.0898,3.0898,3.0898,3.0898,3.0898,3.0898,3.7421,3.7902,3.8046,3.7324,3.8094,3.9585,4.187,4.2808,4.4323,4.7353,4.805,4.9349,5.2163,5.2307,5.2499,5.3221,5.1513,4.995,4.8868,4.6992,4.5501,4.4611,4.4419,4.3649,4.223,4.2182,4.1437,3.985,3.9681,3.9777,4.0114,3.9585,4.0186,4.1701,4.1894,4.2639,4.3914,4.5501,4.5982,4.5766,4.6631,4.7834,4.9036,0.0,4.8555,4.8531,4.8363,4.7834,0.0,4.6824,4.6367,4.5669,4.4251,4.3673,4.3241,4.1653,4.1293,0.0,0.0,0.0,4.1244,4.0355,0.0,0.0,0.0,0.0,0.0,0.0,0.0,0.0,0.0,0.0,3.5569,3.5376,3.4847,3.4318,0.0,0.0,0.0,0.0,0.0,0.0,0.0,0.0,0.0,0.0,0.0,0.0,0.0,2.8144,2.8301,2.8301,2.8301,2.8301,2.8301,2.8301,2.8437,2.8711,2.8711,2.8926,2.9355,2.9785,3.0059,3.0215,3.0684,3.0898,3.0898,3.0898,3.0898,3.0898,3.0898,3.0898,3.0898,3.0898,3.0898,3.0898,3.8551,3.8695,3.8599,3.7902,3.8671,4.009,4.2217,4.3721,4.5718,4.8676,5.0046,5.173,5.4327,5.4784,5.488,5.488,5.3846,5.2331,5.0287,4.9253,4.8026,4.6487,4.6295,4.5357,4.3553,4.3697,4.2784,4.0667,4.1052,4.1244,4.122,4.0499,4.0908,4.2338,4.2856,4.3144,4.3433,4.6535,4.692,4.5597,4.7185,4.8219,0.0,0.0,4.87,4.8507,0.0,4.7569,4.6968,4.6776,4.6367,4.5718,4.4467,4.4058,4.3721,4.1966,4.1846,4.2169,4.1389,4.1317,0.0,4.0812,4.0018,0.0,3.8022,0.0,0.0,0.0,0.0,0.0,0.0,0.0,0.0,3.5737,3.5328,3.4607,0.0,3.2394,0.0,0.0,0.0,0.0,0.0,0.0,0.0,0.0,0.0,0.0,0.0,0.0,2.8301,2.8301,2.8301,2.8359,2.8516,2.8359,2.8574,2.9141,2.9004,2.9141,2.959,3.0,3.0195,3.0215,3.0684,3.0898,3.0898,3.0898,3.0898,3.0898,3.0898,3.0898,3.0898,3.0898,3.0898,3.0898,3.9657,3.9272,3.8936,3.8936,3.9753,4.0787,4.1918,4.4708,4.7281,4.8964,5.1081,5.3029,5.464,5.5241,5.5578,5.5602,5.6011,5.4784,5.1249,5.1874,5.0551,4.6415,4.668,4.591,4.3746,0.0,0.0,0.0,4.2375,4.2891,4.2867,4.1749,4.1774,4.2843,4.4419,4.4251,4.3084,4.7738,4.8892,4.7642,4.9133,4.9181,4.8315,4.8243,4.8555,4.8892,4.7882,4.7473,4.7353,4.6848,4.6319,4.579,4.5197,4.4395,4.3361,4.2351,4.2434,4.2554,4.1509,4.1581,4.1822,4.1317,0.0,0.0,0.0,0.0,3.9946,0.0,0.0,0.0,0.0,0.0,0.0,3.5978,3.5593,3.4847,0.0,0.0,0.0,0.0,0.0,0.0,0.0,0.0,0.0,0.0,0.0,0.0,0.0,0.0,2.8301,2.8301,2.832,2.8496,2.8887,2.8535,2.8769,2.957,2.918,2.9219,2.9704,3.0059,3.0234,3.0254,3.0703,3.0898,3.0898,3.0898,3.0898,3.0898,3.0898,3.0898,3.0898,3.0898,3.0898,3.0898,4.0186,4.0403,4.0571,4.0571,4.0475,4.1148,4.3385,4.5092,4.7281,5.0455,5.3053,5.5361,5.7357,5.7694,5.7935,5.8319,5.743,5.6419,5.5458,5.452,5.3004,5.0744,5.0022,4.8676,4.6535,4.6631,4.603,4.4708,0.0,4.3938,4.3914,4.2856,4.2338,4.2254,4.4251,4.4034,4.2423,4.6415,4.7882,4.7545,4.7954,4.8411,4.8748,0.0,4.769,4.8411,4.7738,4.6992,4.6319,4.6175,4.5766,4.5173,4.4645,4.4309,4.401,4.3313,4.2663,4.2169,4.1846,4.1581,4.1365,4.122,4.0787,4.021,0.0,0.0,0.0,0.0,0.0,0.0,0.0,0.0,0.0,3.629,3.5208,3.4198,0.0,0.0,0.0,3.2627,0.0,0.0,0.0,0.0,0.0,0.0,0.0,0.0,0.0,0.0,0.0,2.8301,2.8594,2.8652,2.8457,2.8984,2.9355,2.9626,2.9766,3.0117,3.0566,3.0664,3.0703,3.0723,3.084,3.0898,3.0898,3.0898,3.0898,3.0898,3.0898,3.0898,3.0898,3.0898,3.0898,3.0898,4.1076,4.1677,4.2279,4.2519,4.2711,4.3313,4.4741,4.5934,4.7714,5.0744,5.3437,5.5506,5.6732,5.7694,5.8271,5.8343,5.7526,5.6828,5.6347,5.5458,5.4255,5.2692,5.1393,4.9806,4.7882,4.7401,0.0,4.5573,0.0,4.4285,4.4261,4.3024,4.2313,4.2062,4.3962,4.3866,4.2578,4.5525,4.7353,4.8122,4.7425,4.7521,0.0,4.68,4.6728,4.7209,4.692,4.6439,4.5886,4.5645,4.5381,4.5029,4.4717,4.4477,4.4165,4.3673,4.3096,4.2543,4.2086,4.1749,4.1533,4.1533,4.1124,4.0667,4.0355,4.0523,4.0451,0.0,0.0,0.0,0.0,0.0,0.0,0.0,0.0,0.0,0.0,0.0,0.0,0.0,3.3053,0.0,0.0,0.0,0.0,0.0,0.0,0.0,0.0,0.0,0.0,2.8301,2.8887,2.9082,2.8848,2.9512,2.9941,3.0156,3.0176,3.0449,3.0898,3.0898,3.0898,3.0898,3.0898,3.0898,3.0898,3.0898,3.0898,3.0898,3.0898,3.0898,3.0898,3.0898,3.0898,3.0898,4.199,4.2928,4.3866,4.4213,4.5269,4.6199,4.6415,4.7401,4.8844,5.084,5.3389,5.5025,5.5025,5.6684,5.7622,5.7165,5.7117,5.6684,5.5674,5.553,5.4832,5.3341,5.1754,5.0143,4.8531,4.7401,4.6367,0.0,0.0,4.4213,4.4261,4.2784,4.2014,4.1942,4.3601,4.3794,4.2976,4.49,4.6776,4.8363,4.7112,4.6655,4.6655,4.6054,4.5814,4.5814,4.5742,4.5766,4.5742,4.5221,4.5029,4.4981,4.4981,4.4669,4.4189,4.377,4.3577,4.3313,4.2327,4.2014,4.1966,4.1894,4.1533,4.1172,4.1172,4.1124,4.0812,3.9898,3.997,3.9609,0.0,0.0,0.0,0.0,0.0,0.0,0.0,0.0,0.0,0.0,0.0,0.0,0.0,0.0,0.0,0.0,0.0,0.0,0.0,0.0,0.0,2.8379,2.916,0.0,2.9704,0.0,3.0488,3.0879,3.0488,3.0508,3.0898,3.0898,3.0898,3.0898,3.0898,3.0898,3.0898,3.0898,3.0898,3.0898,3.0898,3.0898,3.0898,3.0898,3.0918,3.0976,4.2121,4.3529,4.4693,4.4333,4.5934,4.7666,4.8988,5.0479,5.1874,5.3101,5.5602,5.7237,5.7237,5.7574,5.7766,5.7694,5.767,0.0,0.0,0.0,0.0,5.4399,5.2836,5.1249,4.9614,4.8122,4.7281,0.0,0.0,4.389,4.4261,4.3168,4.2217,4.1413,4.3372,4.3925,4.3433,4.4213,0.0,4.5173,4.5814,4.6319,4.6607,4.5645,4.5221,4.5149,4.4717,4.4837,4.5197,4.5101,4.4789,4.4429,4.4429,4.4357,4.4261,4.4165,4.3866,4.3385,4.2784,4.2362,4.187,4.1437,4.1244,4.1172,4.1172,4.0836,4.0475,4.0282,3.9633,3.8984,3.8599,0.0,0.0,0.0,0.0,0.0,0.0,0.0,0.0,0.0,0.0,3.403,0.0,0.0,0.0,0.0,0.0,0.0,0.0,0.0,0.0,0.0,2.9297,0.0,0.0,0.0,3.082,3.0898,3.082,3.082,3.0898,3.0898,3.0898,3.0898,3.0898,3.0898,3.0898,3.0898,3.0898,3.0898,3.0898,3.0898,3.0898,3.0898,3.1113,3.1406,4.401,4.4852,4.5718,4.6295,4.793,4.9686,0.0,5.3125,5.4015,5.3149,5.4616,5.5746,5.5746,5.6732,5.7405,5.7405,5.7405,5.7189,5.666,5.6107,5.5433,5.464,5.3365,5.1946,5.0335,4.8459,4.7497,4.7497,0.0,4.3385,4.389,4.2832,4.1798,4.086,4.2687,4.3842,0.0,0.0,0.0,4.5077,4.4804,4.5333,4.6199,4.5053,4.4477,4.4251,4.401,4.4082,4.4347,4.4573,4.4501,4.4285,4.4285,4.4093,4.3866,4.3601,4.3144,4.2591,4.2086,4.1749,4.1509,4.1244,4.1172,4.1172,4.1172,4.098,4.0739,4.0451,3.9994,3.9465,3.8912,3.7926,0.0,0.0,0.0,0.0,0.0,0.0,3.5232,0.0,0.0,0.0,0.0,0.0,0.0,0.0,0.0,2.8041,0.0,0.0,0.0,0.0,0.0,0.0,0.0,0.0,0.0,3.0898,3.0898,3.0898,3.0898,3.0898,3.0898,3.0898,3.0898,3.0898,3.0898,3.0898,3.0898,3.0898,3.0898,3.0898,3.0898,3.0898,3.1152,3.1523,4.615,4.6439,4.7064,4.8555,5.0143,5.1658,5.3029,5.4952,5.553,5.3534,5.3991,5.4496,5.4496,5.6011,5.6973,5.6852,5.6852,5.6588,5.5938,5.5482,5.5001,5.4471,5.3654,5.2427,5.0744,4.8724,4.7449,0.0,0.0,0.0,0.0,4.2423,4.1581,0.0,0.0,0.0,0.0,0.0,4.4419,4.5477,4.4323,4.4683,4.5814,4.4693,4.4021,4.3697,4.3697,4.3601,4.3601,4.4093,4.4285,4.4285,4.4285,4.3973,4.3601,4.3216,4.2711,4.2182,4.1653,4.1437,4.1317,4.122,4.1172,4.1172,4.1172,4.1172,4.1076,4.0643,4.0379,3.9898,3.8839,3.795,0.0,0.0,0.0,0.0,0.0,0.0,0.0,0.0,0.0,0.0,3.427,0.0,0.0,0.0,0.0,2.9209,2.8192,2.8476,0.0,0.0,0.0,3.0195,3.0469,0.0,3.1269,0.0,3.0937,3.0898,3.0898,3.0898,3.0898,3.0898,3.0898,3.0898,3.0898,3.0898,3.0898,3.0898,3.0898,3.0898,3.0898,3.0996,3.1289,3.168,4.7257,4.8122,4.9133,5.0287,5.1802,5.3053,5.3654,5.5169,5.6323,5.654,5.666,5.6732,5.6732,5.69,5.6828,5.6347,5.6299,5.5866,5.4832,5.4712,5.4447,5.3918,5.3798,5.2788,5.0744,4.906,4.7281,0.0,0.0,0.0,0.0,0.0,0.0,0.0,0.0,0.0,0.0,4.3505,4.4285,4.4453,4.4789,4.5357,4.5814,4.4693,4.4261,4.4213,4.4213,4.3877,4.3601,4.4093,4.4285,4.4285,4.4285,4.4261,4.4189,4.4141,4.3818,4.3265,4.2819,4.2313,4.1774,4.1293,4.1172,4.1172,4.1172,4.1172,4.1172,4.1124,4.0355,3.9345,3.8262,3.7974,3.7902,0.0,0.0,0.0,0.0,0.0,3.6675,3.5665,0.0,0.0,0.0,3.4702,0.0,0.0,3.1033,3.0434,2.9724,2.9755,2.9688,2.9528,0.0,3.0195,3.1387,3.1094,3.1113,3.1445,3.1074,3.0898,3.0898,3.0898,3.0898,3.0898,3.0898,3.0898,3.0898,3.0898,3.0898,3.0898,3.0898,3.0898,3.0937,3.1328,3.1738,3.2168,0.0,0.0,0.0,0.0,0.0,0.0,0.0,5.5602,5.6419,5.6949,5.7021,5.69,5.6588,5.654,5.6323,5.577,5.5722,5.5409,5.4664,5.4616,5.4231,5.3413,5.3654,5.2836,5.0744,5.007,4.8531,0.0,0.0,0.0,0.0,0.0,0.0,0.0,0.0,4.1942,4.2206,4.3361,4.4165,4.4765,4.4981,4.5453,4.5838,4.5053,4.4227,4.3385,4.3385,4.3048,4.2663,4.3216,4.3601,4.3842,4.3842,4.3842,4.3794,4.3481,4.3241,4.2952,4.2482,4.2193,4.1846,4.1317,4.1172,4.1172,4.1172,4.1172,4.1172,4.1172,4.0331,3.9465,3.9032,3.8431,3.7974,0.0,0.0,0.0,0.0,0.0,0.0,3.5713,0.0,3.5304,0.0,0.0,0.0,0.0,0.0,3.1316,2.9059,3.0193,0.0,2.9662,0.0,3.0717,3.1133,3.0976,3.1307,3.2223,3.1307,3.1286,3.196,3.1228,3.0898,3.0898,3.0898,3.0898,3.0898,3.0898,3.0898,3.0898,3.0898,3.0898,3.0918,3.1074,3.1582,3.2187,5.1105,0.0,5.1081,0.0,5.2956,5.3582,5.5361,5.5987,5.6371,5.6732,5.678,5.666,5.6275,5.6083,5.577,5.5217,5.5169,5.4928,5.4399,5.4375,5.4039,5.3317,5.363,0.0,5.0984,5.0792,4.9469,4.6944,4.6944,0.0,0.0,0.0,0.0,0.0,4.1653,4.2206,4.2891,4.3818,4.4756,4.5597,4.5597,4.5718,4.5862,4.5269,4.4251,4.2976,4.2976,4.2543,4.2062,4.276,4.312,4.3313,4.3457,4.3505,4.3409,4.2904,4.2819,4.2747,4.2362,4.2145,4.1894,4.1509,4.1293,4.1172,4.1172,4.1172,4.11,4.0787,4.0138,3.9513,3.92,3.8503,3.8046,3.819,0.0,0.0,0.0,0.0,0.0,0.0,3.5881,3.5569,3.5112,3.5064,0.0,0.0,0.0,0.0,0.0,0.0,0.0,0.0,0.0,0.0,0.0,3.194,3.2342,3.3176,3.2018,3.1903,3.2685,3.146,3.0898,3.0898,3.0898,3.0898,3.0898,3.0898,3.0898,3.0898,3.0898,3.0898,3.0918,3.1172,3.166,3.2207,5.2067,5.2259,5.274,5.4303,5.4568,5.4952,5.6059,5.6227,5.6227,5.6251,5.6251,5.6251,5.6227,5.5746,5.5193,5.4664,5.4616,5.4399,5.387,5.3822,5.3822,0.0,0.0,5.3077,5.1513,5.096,4.9662,4.7497,0.0,0.0,4.2795,0.0,4.1196,4.1244,4.2784,4.3216,4.2964,4.4996,4.6199,4.6704,4.6704,4.6391,4.5862,4.5269,4.4467,4.3505,4.3505,4.2832,4.2134,4.3144,4.3168,4.2916,4.3361,4.3505,4.3409,4.2904,4.2819,4.2819,4.2819,4.2434,4.1966,4.1966,4.1581,4.1172,4.1172,4.1172,4.0884,3.985,3.9609,3.9272,3.819,3.7998,3.8166,3.8719,0.0,0.0,0.0,0.0,0.0,3.73,3.7637,3.7324,3.5761,3.5617,0.0,0.0,0.0,0.0,0.0,0.0,0.0,3.2984,3.3496,0.0,3.4336,3.4336,3.4391,3.4391,3.3233,3.2685,3.2685,3.146,3.0898,3.0898,3.0898,3.0898,3.0898,3.0898,3.0898,3.0898,3.0898,3.0898,3.0996,3.1836,3.2209,3.2285,5.3269,5.3317,5.3485,5.3991,5.4375,5.4736,5.5073,5.5433,5.565,5.565,5.5337,5.5121,5.5121,5.4977,5.464,0.0,5.4063,5.3991,0.0,5.3822,5.3678,5.3317,5.363,5.3101,5.1513,5.1682,5.0551,4.805,0.0,0.0,0.0,4.4202,4.3481,4.2808,4.3697,4.4395,4.4972,4.603,4.6776,4.7209,4.6848,4.6391,4.5862,4.5269,4.4467,4.3505,4.3505,4.3072,4.2627,4.288,4.2904,4.2843,4.3012,4.3241,4.3409,4.2904,4.2819,4.2747,4.2386,4.2169,4.1894,4.1533,4.1317,4.1172,4.1172,4.1172,4.1076,4.0739,4.0403,3.9922,3.9224,3.8791,3.8479,3.8286,3.8094,0.0,0.0,0.0,0.0,3.7228,3.7012,3.6723,0.0,3.5833,0.0,0.0,0.0,0.0,0.0,0.0,0.0,0.0,3.4196,0.0,3.4391,3.4391,3.4836,3.5608,3.4447,3.3459,3.2685,3.146,3.0898,3.0898,3.0898,3.0898,3.0898,3.0898,3.1055,3.1289,3.0996,3.125,3.1758,3.1738,3.209,3.2637,5.3822,5.3822,5.387,5.4087,5.4399,5.4664,5.488,5.5193,5.5337,5.5121,5.4808,5.452,5.4327,5.4303,0.0,5.3846,5.3822,5.3822,5.3822,5.3822,5.3678,5.3365,5.3654,5.3173,5.1826,0.0,0.0,4.9205,4.9253,4.8435,4.68,4.5862,4.5164,4.4732,4.5068,4.5597,4.6247,4.6776,4.7209,4.7449,4.692,4.6391,4.5862,4.5269,4.4467,4.3505,4.3505,4.3192,4.2843,4.2976,4.3048,4.3072,4.3289,4.3433,4.3409,4.2904,4.2819,4.2747,4.241,4.211,4.1894,4.1557,4.1341,4.1172,4.1172,4.1172,4.1124,4.0932,4.0619,4.0234,3.9705,3.9176,3.8695,3.8359,3.8118,3.7974,3.7974,0.0,0.0,0.0,0.0,0.0,0.0,3.6411,3.6314,0.0,0.0,0.0,0.0,0.0,0.0,3.46,3.5739,0.0,3.5772,3.5772,3.61,3.6827,3.5663,3.4447,3.3289,3.2113,3.1556,3.1576,3.1112,3.0898,3.0957,3.1402,3.1544,3.1544,3.174,3.1959,3.2148,3.2031,3.2344,3.2812,5.3822,5.3846,5.4015,0.0,5.4616,0.0,5.5217,5.5313,5.5145,5.4616,5.4544,5.4351,5.387,5.3822,5.3798,5.3774,0.0,0.0,0.0,5.3774,5.3774,5.3774,5.3774,5.3293,5.2307,5.2235,5.173,5.0696,4.9157,4.8411,4.8363,4.6848,4.6415,4.6872,4.6848,4.68,4.68,4.7257,4.7425,4.7353,4.6824,4.6319,4.5814,4.5221,4.4381,4.3577,4.3577,4.3265,4.2988,4.3361,4.3505,4.3601,4.4069,4.3938,4.3409,4.2904,4.2819,4.2795,4.2723,4.2386,4.1966,4.1918,4.1557,4.1172,4.1172,4.1172,4.1052,4.0547,4.0451,4.0282,3.9753,3.92,3.8815,3.8815,3.831,3.795,3.7974,0.0,0.0,0.0,0.0,0.0,0.0,3.7204,3.6795,0.0,0.0,0.0,0.0,0.0,3.7228,3.7204,3.7709,3.7974,3.7974,3.7974,3.7998,3.8046,3.6866,3.5721,3.4612,3.3452,3.2939,3.2784,3.1674,3.1171,3.1171,3.2289,3.2342,3.182,3.2942,3.2952,3.2468,3.2779,3.2874,3.2891,0.0,0.0,5.4327,5.4063,5.4664,5.4977,5.4303,5.4544,5.4616,5.4063,5.4015,5.3966,5.3822,5.3822,5.3654,5.3269,5.3245,5.3245,5.3245,5.3245,5.3245,5.3245,5.3245,5.2932,5.2283,5.1874,5.1345,5.0696,4.9878,4.9493,4.9469,4.87,4.8411,4.8507,4.8098,4.769,4.7305,4.7016,4.6655,4.6247,4.5718,4.5366,4.5197,4.4669,4.4309,4.4093,4.4093,4.4021,4.3914,4.3625,4.3505,4.3529,4.3673,4.3625,4.3409,4.2904,4.2819,4.2651,4.1774,4.1749,4.187,4.1461,4.1268,4.1172,4.1172,4.1172,4.1148,4.1028,4.1004,4.0836,4.0306,3.9441,3.8815,3.8815,3.7998,3.7517,3.7926,3.7974,0.0,0.0,3.7974,3.7926,3.7805,3.7421,3.7084,0.0,0.0,0.0,0.0,3.7445,3.7613,3.7204,3.7709,3.7974,3.7974,3.7974,3.819,3.8623,3.7831,3.7267,3.6985,3.5769,3.4999,3.4596,3.4311,3.3644,3.2738,3.3029,3.3482,3.3921,3.393,3.4242,3.4616,3.437,3.3837,3.3281,5.3822,5.4039,5.4231,5.4183,5.4664,5.4832,5.4255,5.4423,5.4423,5.3894,5.3822,5.3822,5.3822,5.3822,5.3702,5.3437,5.3413,5.3317,5.3077,5.3293,5.3317,5.3077,5.3077,5.2716,5.1922,5.1634,5.1225,5.0696,5.0407,5.0239,5.0239,4.995,4.983,4.9806,4.9253,4.8844,4.8531,4.7762,4.7257,4.692,4.591,4.5501,4.5342,4.4573,4.4285,4.4285,4.4285,4.4285,4.4237,4.3925,4.389,4.389,4.389,4.389,4.3794,4.3265,4.2952,4.2699,4.2121,4.1749,4.1533,4.1244,4.1172,4.1172,4.1172,4.1172,4.1172,4.1172,4.1172,4.11,4.0812,3.9898,3.9176,3.9176,3.8262,3.7661,3.795,3.7974,0.0,3.7974,3.7974,3.7974,3.7974,3.7733,3.7445,3.7204,0.0,0.0,3.7204,3.7685,3.7853,3.7565,3.8094,3.8359,3.8359,3.8599,3.8888,3.9176,3.8777,3.8615,3.8559,3.7383,3.6655,3.6352,3.5839,3.515,3.4572,3.515,3.5466,3.5614,3.5951,3.6178,3.6194,3.5331,3.4738,3.4215,5.3822,5.3894,5.4063,5.4423,5.4544,5.4592,5.4496,5.4496,5.4327,5.387,5.3822,5.3822,5.3822,5.3822,5.3798,5.3702,5.3774,5.3606,5.3101,5.3461,5.3485,5.298,5.2956,5.2499,5.1513,5.1321,5.1032,5.0576,5.0576,5.0624,5.0696,5.0696,5.0696,5.0672,5.0119,4.9782,4.9565,4.8579,4.8074,4.781,4.6463,4.5934,4.5814,4.4765,4.4405,4.4405,4.4309,4.4285,4.4285,4.4285,4.4285,4.4285,4.4285,4.4285,4.4189,4.377,4.3265,4.2832,4.2747,4.199,4.1317,4.1413,4.1413,4.1413,4.1413,4.1413,4.1389,4.1317,4.1293,4.1268,4.1196,4.0258,3.9537,3.9705,3.8671,3.7926,3.8094,0.0,3.7974,3.7974,3.8046,3.8118,3.8118,3.819,3.7998,3.7469,3.7445,3.7445,0.0,3.7853,3.8142,3.8214,3.8695,3.8936,3.8936,3.9465,3.9729,3.9729,3.9801,3.985,3.9794,3.8794,3.8271,3.8145,3.7096,3.6556,3.644,3.744,3.7562,3.717,3.8109,3.8123,3.7489,3.6399,3.5848,3.55,5.3822,5.4183,5.4375,5.4015,5.4303,5.4447,5.4015,5.3942,5.3918,5.3822,5.3822,5.3822,5.3822,5.3822,5.3654,5.3221,5.3582,5.3606,5.3101,5.3149,5.2956,5.2427,5.2403,5.2115,5.1513,5.0576,5.007,4.9998,4.9998,5.0239,5.0696,5.0696,5.0696,5.0672,5.0119,4.9373,4.8507,4.7882,4.7112,4.6271,4.603,4.5934,4.5862,4.5173,4.4957,4.4885,4.4453,4.4285,4.4285,4.4285,4.4285,4.4285,4.4285,4.4285,4.4261,4.4189,4.3818,4.3216,4.2327,4.1966,4.1966,4.2458,4.2578,4.2578,4.2578,4.2578,4.2458,4.1942,4.1904,4.1701,4.1268,3.9946,3.9224,4.0138,3.8599,3.7637,3.8551,0.0,3.7974,3.7974,3.8407,3.8695,3.8695,3.9104,3.9128,3.8599,3.8575,3.8575,3.8575,3.8647,3.8888,3.9345,3.9441,3.9489,3.9489,4.0018,4.0282,4.0282,4.0739,4.0932,4.0932,4.076,4.0464,3.9977,3.9807,3.9078,3.8055,3.8228,3.8526,3.8807,3.8984,3.903,3.8862,3.8684,3.791,3.6824,5.3822,5.4015,5.4111,5.387,5.4015,5.4111,5.387,5.3822,5.3822,5.3822,5.3822,5.3702,5.3437,5.3413,5.3197,5.2692,5.3125,5.3317,5.3077,5.3077,5.2836,5.2307,5.1994,5.1465,5.0624,5.0119,4.9878,4.9878,4.9878,5.0143,5.0696,5.0696,5.0696,5.0696,5.0431,4.9878,4.9109,4.8579,4.7906,4.7136,4.6583,4.6343,4.6295,4.5766,4.5381,4.5053,4.4789,4.4525,4.4285,4.4285,4.4477,4.4717,4.4717,4.4717,4.4717,4.4717,4.4178,4.3337,4.2651,4.2458,4.2506,4.2747,4.2819,4.2819,4.2819,4.2819,4.2747,4.2506,4.2458,4.2289,4.1701,4.0306,3.9489,4.0258,3.8599,0.0,0.0,3.8334,3.8094,3.8407,3.8671,3.8936,3.9224,3.9465,3.9513,3.9272,3.9248,3.9248,3.9248,3.9513,3.9777,4.0018,4.0042,4.0162,4.0451,4.0691,4.0812,4.0812,4.1076,4.1172,4.1172,4.1172,4.1052,4.0812,4.0812,4.0469,3.9904,3.9904,4.0046,4.0257,4.0257,4.0257,4.0199,3.9474,3.8803,3.8149,5.3822,5.3822,5.3822,5.3822,5.3822,5.3774,5.3654,5.3654,5.3606,5.3485,5.3461,5.3365,5.3101,5.2956,5.2764,5.2475,5.2716,5.2884,5.2884,5.2764,5.2572,5.2283,5.1658,5.0864,4.9878,4.9758,4.9803,4.9878,4.9803,5.0022,5.0696,5.0696,5.0696,5.0696,5.0696,5.0311,4.9662,4.9253,4.87,4.8026,4.7233,4.6896,4.6848,4.6319,4.5862,4.5477,4.5293,4.5005,4.4645,4.4645,4.4933,4.5309,4.5309,4.5309,4.5221,4.5101,4.4467,4.3625,4.3241,4.3024,4.2952,4.3096,4.312,4.312,4.312,4.312,4.3096,4.2952,4.2928,4.2784,4.2254,4.0956,4.0114,4.0523,0.0,0.0,0.0,3.8527,3.8383,3.8936,3.9104,3.9345,3.9753,3.9898,3.9922,3.9801,3.9898,3.9922,3.9801,4.0282,4.0571,4.0571,4.0691,4.0956,4.1365,4.1485,4.1557,4.1557,4.1557,4.1557,4.1557,4.1413,4.1365,4.1365,4.1244,4.1172,4.1172,4.1172,4.1172,4.1172,4.1172,4.1172,4.1057,4.0024,3.965,3.9474,5.3822,5.3822,5.3822,5.3822,5.3822,5.3654,5.3197,5.3125,5.2956,5.2451,5.2403,5.2572,5.3029,5.2644,5.2524,5.298,5.2596,5.2331,5.2331,5.1874,5.1802,5.2259,5.1297,5.0479,4.9878,4.9373,4.9373,4.9878,4.9373,4.9686,5.0696,5.0696,5.0696,5.0696,5.0696,5.0119,4.9133,4.9084,4.8483,4.7545,4.7473,4.7449,4.7377,4.6848,4.6631,4.6535,4.6054,4.5838,4.5814,4.5814,4.5838,4.5862,4.5862,4.5862,4.5766,4.5285,4.4669,4.4213,4.4189,4.3866,4.3577,4.4106,4.4165,4.4165,4.4165,4.4165,4.4021,4.3553,4.3457,4.3289,4.2867,4.1798,4.1076,4.1124,0.0,0.0,3.9465,3.908,3.896,3.9489,3.997,4.0282,4.0331,4.0787,4.086,4.0379,4.0787,4.086,4.0355,4.0836,4.1124,4.1124,4.1605,4.187,4.1918,4.2458,4.2699,4.2699,4.2699,4.2699,4.2699,4.2193,4.1918,4.1894,4.1389,4.1172,4.1172,4.1172,4.1172,4.1172,4.1172,4.1172,4.1196,4.1115,4.1057,4.0884,5.3822,5.3822,5.3822,5.3822,5.3558,5.3293,5.3101,5.2788,5.2499,5.2307,5.2283,5.2235,5.2115,5.1922,5.173,5.161,5.173,5.1778,5.1778,5.161,5.1441,5.1297,5.0912,5.0431,4.9878,4.9662,4.9731,4.9878,4.9731,4.995,5.0696,5.0696,5.0696,5.0696,5.0696,5.0095,4.9109,4.9421,4.8772,4.7521,4.7858,4.7786,4.7473,4.7281,4.6992,4.668,4.6487,4.6199,4.5934,4.5934,4.615,4.6415,4.6415,4.6415,4.6319,4.579,4.5414,4.5269,4.5269,4.4924,4.4563,4.4717,4.4765,4.4693,4.4357,4.4285,4.4213,4.4021,4.4034,4.3866,4.3337,4.2375,4.1677,4.1677,0.0,3.997,4.0523,4.0403,4.0475,4.1004,4.1244,4.1509,4.1822,4.2038,4.2145,4.187,4.2062,4.2062,4.187,4.2062,4.2217,4.2217,4.2663,4.2615,4.199,4.2554,4.2819,4.2819,4.2819,4.2819,4.2819,4.2602,4.2338,4.1966,4.1749,4.1485,4.1172,4.1172,4.1172,4.1172,4.1172,4.1172,4.122,4.1557,4.1928,4.2051,5.3822,5.3822,5.3774,5.3606,5.3437,5.3197,5.286,5.2524,5.2211,5.2043,5.1874,5.1706,5.1513,5.1345,5.1177,5.096,5.1129,5.1249,5.1249,5.1249,5.1081,5.072,5.0696,5.0527,5.0143,4.995,4.995,5.0143,4.995,5.0143,5.0696,5.0696,5.06,5.0455,5.0624,4.9998,4.8868,4.9397,4.8796,4.7521,4.7906,4.793,4.7738,4.7569,4.7377,4.7185,4.7016,4.6728,4.6415,4.6415,4.6655,4.6968,4.6968,4.6848,4.6631,4.6271,4.6054,4.5958,4.6126,4.591,4.5534,4.5366,4.5381,4.5221,4.4861,4.4789,4.4789,4.4789,4.4645,4.4405,4.4082,4.3168,4.2399,4.2313,4.1485,4.1028,4.1389,4.1437,4.1629,4.2217,4.2265,4.241,4.2795,4.2819,4.2819,4.2819,4.2904,4.3,4.3,4.2916,4.2819,4.2819,4.3241,4.3168,4.2471,4.2976,4.3265,4.3265,4.3265,4.3265,4.3265,4.3072,4.2808,4.2423,4.211,4.1774,4.1413,4.1244,4.1172,4.1172,4.1172,4.1293,4.1485,4.1846,4.2362,4.2747,5.3822,5.3822,5.3654,5.3149,5.3485,5.3461,5.2427,5.2283,5.2091,5.1562,5.1032,5.0912,5.1441,5.1008,5.0912,5.1441,5.1008,5.072,5.072,5.0696,5.0696,5.0696,5.0696,5.0696,5.0696,5.0167,5.0143,5.0696,5.0143,5.0167,5.0696,5.0696,5.0407,4.9878,5.0455,4.9806,4.8339,4.8844,4.8459,4.7521,4.7521,4.781,4.8219,4.769,4.7834,4.8219,4.769,4.7497,4.7497,4.7497,4.7497,4.7497,4.7497,4.7136,4.6728,4.6728,4.6343,4.6054,4.6583,4.6728,4.6583,4.6054,4.5934,4.5934,4.5934,4.5934,4.5934,4.5934,4.5501,4.5077,4.5077,4.4251,4.3361,4.2916,4.2386,4.199,4.199,4.2049,4.2241,4.2771,4.2843,4.2843,4.2843,4.2843,4.2843,4.2843,4.3241,4.3529,4.3529,4.3048,4.2843,4.2843,4.3265,4.3529,4.3529,4.3997,4.4285,4.4285,4.4285,4.4285,4.4261,4.377,4.3505,4.3457,4.2423,4.199,4.1942,4.1413,4.1172,4.1172,4.1196,4.1509,4.1966,4.199,4.2386,4.2747,5.375,5.3245,5.2812,5.3029,5.2572,5.2091,5.1778,5.1417,5.1105,5.096,5.0792,5.0768,5.0912,5.1129,5.1177,5.096,5.1465,5.1658,5.1273,5.0912,5.0696,5.0696,5.0696,5.0696,5.0696,5.0527,5.0527,5.0696,5.0527,5.0527,5.0696,5.0696,5.0407,4.9948,5.0046,4.9638,4.8844,4.9012,4.8676,4.805,4.805,4.793,4.7714,4.7569,4.7593,4.7714,4.7569,4.7497,4.7497,4.7497,4.7497,4.7497,4.7497,4.7401,4.7257,4.7257,4.7161,4.7064,4.7233,4.7257,4.7136,4.6607,4.6487,4.6391,4.6006,4.5934,4.5934,4.5934,4.579,4.5694,4.5694,4.5429,4.49,4.401,4.4058,4.3914,4.3168,4.3385,4.3697,4.3866,4.3866,4.3866,4.3866,4.3866,4.3866,4.3866,4.3949,4.4045,4.4045,4.3962,4.3866,4.3866,4.3949,4.4045,4.4045,4.4213,4.4285,4.4285,4.4285,4.4285,4.4285,4.4117,4.389,4.3505,4.3192,4.2639,4.2024,4.1798,4.1509,4.122,4.1581,4.1822,4.2121,4.2784,4.3409,4.3746,5.3461,5.3029,5.2572,5.2451,5.2259,5.197,5.1562,5.1225,5.1008,5.1008,5.084,5.0696,5.0696,5.0984,5.1129,5.1032,5.1778,5.2067,5.1537,5.1201,5.0912,5.072,5.0696,5.0696,5.0696,5.0696,5.0696,5.0696,5.0696,5.0696,5.0696,5.0696,5.0287,4.9565,4.9851,4.9349,4.8459,4.8676,4.8459,4.7978,4.7978,4.7906,4.7786,4.7569,4.7617,4.7786,4.7569,4.7497,4.7497,4.7497,4.7497,4.7497,4.7497,4.7497,4.7497,4.7497,4.7497,4.7497,4.7497,4.7497,4.7425,4.7112,4.7016,4.6944,4.6631,4.6535,4.6535,4.6535,4.6391,4.6247,4.6247,4.6054,4.5645,4.4741,4.4861,4.4765,4.3962,4.4069,4.4285,4.4285,4.4285,4.4285,4.4285,4.4285,4.4285,4.4285,4.4285,4.4285,4.4285,4.4285,4.4285,4.4285,4.4285,4.4285,4.4285,4.4285,4.4285,4.4285,4.4285,4.4285,4.4285,4.4285,4.4093,4.3818,4.3601,4.3168,4.2567,4.2351,4.2169,4.1904,4.2217,4.2399,4.2663,4.3289,4.3721,4.389,5.3125,5.3053,5.2692,5.173,5.2331,5.2596,5.1586,5.1417,5.1417,5.1417,5.1008,5.072,5.0768,5.0816,5.1008,5.1441,5.1922,5.2043,5.1658,5.1537,5.1273,5.0792,5.072,5.0696,5.0696,5.0696,5.0696,5.0696,5.0696,5.0696,5.0696,5.0696,5.0119,4.9109,4.9589,4.8964,4.7593,4.8026,4.7954,4.7569,4.7521,4.7786,4.8171,4.769,4.781,4.8147,4.7666,4.7497,4.7497,4.7497,4.7497,4.7497,4.7497,4.7497,4.7497,4.7497,4.7497,4.7497,4.7497,4.7497,4.7497,4.7497,4.7497,4.7497,4.7497,4.7497,4.7497,4.7497,4.7112,4.6776,4.6776,4.6391,4.5886,4.5293,4.5221,4.5029,4.4501,4.4381,4.4357,4.4357,4.4309,4.4285,4.4285,4.4285,4.4285,4.4285,4.4285,4.4309,4.4357,4.4309,4.4333,4.4429,4.4333,4.4309,4.4357,4.4309,4.4285,4.4285,4.4285,4.4285,4.4285,4.4285,4.4285,4.4261,4.3818,4.3553,4.3481,4.3024,4.2867,4.2819,4.2867,4.3096,4.3529,4.3553,4.3577,4.3505,5.3582,5.3004,5.2379,5.2139,5.1946,5.161,5.096,5.0864,5.0864,5.0864,5.0768,5.0864,5.1273,5.1682,5.1826,5.1513,5.1586,5.197,5.2692,5.1946,5.1441,5.1321,5.0912,5.0696,5.0696,5.0696,5.0696,5.0696,5.0696,5.0696,5.0696,5.0696,5.0119,4.9084,4.9205,4.882,4.8098,4.781,4.7858,4.8074,4.7666,4.7569,4.7666,4.7545,4.7569,4.7666,4.7545,4.7497,4.7497,4.7497,4.7497,4.7497,4.7497,4.7497,4.7497,4.7497,4.7497,4.7497,4.7497,4.7497,4.7497,4.7497,4.7497,4.7497,4.7497,4.7497,4.7497,4.7497,4.7401,4.7329,4.7329,4.7233,4.6992,4.6463,4.6367,4.6199,4.5645,4.5149,4.4909,4.4909,4.4549,4.4285,4.4285,4.4285,4.4285,4.4285,4.4285,4.4477,4.4885,4.4525,4.4669,4.5549,4.4717,4.4477,4.4909,4.4501,4.4285,4.4285,4.4285,4.4285,4.4285,4.4285,4.4285,4.4285,4.4165,4.3914,4.3505,4.3385,4.312,4.2867,4.3192,4.3409,4.3553,4.3949,4.4117,4.4021,5.3077,5.2644,5.2115,5.161,5.1513,5.1321,5.0792,5.0912,5.0984,5.0744,5.0912,5.1081,5.1105,5.1369,5.1513,5.1489,5.173,5.1994,5.2307,5.2043,5.1754,5.1489,5.1225,5.1081,5.1081,5.084,5.0696,5.0696,5.0696,5.0696,5.0696,5.0696,5.0263,4.9445,4.9181,4.8796,4.8267,4.7714,4.7666,4.7882,4.7617,4.7497,4.7497,4.7497,4.7497,4.7497,4.7497,4.7497,4.7497,4.7497,4.7497,4.7497,4.7497,4.7497,4.7497,4.7497,4.7497,4.7497,4.7497,4.7497,4.7497,4.7497,4.7497,4.7497,4.7497,4.7497,4.7497,4.7497,4.7497,4.7497,4.7497,4.7497,4.7329,4.68,4.6704,4.6535,4.6006,4.5694,4.5438,4.5438,4.5197,4.5029,4.5029,4.5029,4.5029,4.5029,4.5029,4.5149,4.5501,4.5261,4.5293,4.591,4.5381,4.5173,4.5501,4.5173,4.4909,4.4669,4.4405,4.4285,4.4285,4.4285,4.4285,4.4285,4.4285,4.4117,4.3914,4.3914,4.3746,4.3553,4.3818,4.3914,4.3938,4.4189,4.4117,4.3914,5.262,5.2475,5.2115,5.1153,5.1273,5.1321,5.0792,5.1081,5.1201,5.0768,5.1081,5.1225,5.0888,5.084,5.1056,5.1586,5.1946,5.1994,5.1658,5.1946,5.1946,5.1513,5.1393,5.1345,5.1345,5.0936,5.0696,5.0696,5.0696,5.0696,5.0696,5.0696,5.0407,4.9924,4.9325,4.8796,4.8267,4.7714,4.7497,4.7497,4.7497,4.7497,4.7497,4.7497,4.7497,4.7497,4.7497,4.7497,4.7497,4.7497,4.7497,4.7497,4.7497,4.7497,4.7497,4.7497,4.7497,4.7497,4.7497,4.7497,4.7497,4.7497,4.7497,4.7497,4.7497,4.7497,4.7497,4.7497,4.7497,4.7497,4.7497,4.7497,4.7353,4.692,4.6848,4.6704,4.6247,4.6102,4.6054,4.6054,4.5982,4.5934,4.5934,4.5934,4.5934,4.5934,4.5934,4.5958,4.6054,4.5982,4.6006,4.6199,4.603,4.5958,4.6054,4.5982,4.5694,4.5197,4.4669,4.4381,4.4285,4.4285,4.4285,4.4285,4.4285,4.4285,4.4285,4.4285,4.4285,4.4285,4.4285,4.4285,4.4285,4.4285,4.3925,4.3529,5.363,5.3269,5.2764,5.2163,5.1754,5.1321,5.0792,5.0768,5.0792,5.072,5.0768,5.096,5.1345,5.1393,5.1586,5.2139,5.1826,5.1754,5.2139,5.1826,5.1562,5.1489,5.1056,5.0816,5.0816,5.0744,5.0696,5.0696,5.0696,5.0696,5.0696,5.0696,5.0407,4.9924,4.9325,4.8796,4.8267,4.7714,4.7497,4.7497,4.7497,4.7497,4.7497,4.7497,4.7497,4.7497,4.7497,4.7497,4.7497,4.7497,4.7497,4.7497,4.7497,4.7497,4.7497,4.7497,4.7497,4.7497,4.7497,4.7497,4.7497,4.7497,4.7497,4.7497,4.7497,4.7497,4.7497,4.7497,4.7497,4.7497,4.7497,4.7497,4.7473,4.7401,4.7401,4.7377,4.7305,4.6896,4.6607,4.6607,4.6199,4.5934,4.5934,4.5934,4.5934,4.5934,4.5934,4.6126,4.6583,4.6175,4.6343,4.7257,4.6391,4.615,4.6607,4.615,4.5886,4.5814,4.5221,4.4717,4.4285,4.4285,4.4285,4.4285,4.4285,4.4285,4.4285,4.4285,4.4285,4.4285,4.4285,4.4285,4.4285,4.4285,4.3925,4.3577,5.3461,5.3221,5.2812,5.197,5.1658,5.1321,5.0792,5.096,5.1032,5.0744,5.096,5.1129,5.1056,5.1056,5.1153,5.1393,5.1177,5.1153,5.1393,5.173,5.1922,5.1922,5.1706,5.1586,5.1586,5.1008,5.0696,5.0696,5.0696,5.0696,5.0696,5.0696,5.0576,5.0287,4.9445,4.9109,4.9084,4.7978,4.7666,4.7906,4.7617,4.7497,4.7497,4.7497,4.7497,4.7497,4.7497,4.7497,4.7497,4.7497,4.7497,4.7497,4.7497,4.7497,4.7497,4.7497,4.7497,4.7497,4.7497,4.7497,4.7497,4.7497,4.7497,4.7497,4.7497,4.7497,4.7497,4.7497,4.7497,4.7497,4.7497,4.7497,4.7497,4.7497,4.7497,4.7497,4.7497,4.7305,4.7161,4.7161,4.6944,4.68,4.68,4.68,4.68,4.68,4.68,4.692,4.7136,4.6944,4.7016,4.7497,4.704,4.692,4.7161,4.692,4.6655,4.6367,4.6126,4.5597,4.4717,4.4429,4.4285,4.4285,4.4285,4.4285,4.4285,4.4285,4.4285,4.4285,4.4285,4.4285,4.4285,4.4285,4.4117,4.3949]}]]